| time (UTC) | temp F | wind direction | speed MPH | gust MPH | rain 1hr in | rain 24hr in | rain mn in | humidity % | barometer mb |
| 20260831102804 | 92 | 298 | 3.0 | 13.0 | 0.00 | 0.00 | 0.00 | 38 | 1015.9 |
| 20260831102704 | 92 | 297 | 3.0 | 13.0 | 0.00 | 0.00 | 0.00 | 38 | 1015.8 |
| 20260831102604 | 92 | 298 | 3.0 | 13.0 | 0.00 | 0.00 | 0.00 | 38 | 1015.9 |
| 20260831102504 | 92 | 297 | 4.0 | 13.0 | 0.00 | 0.00 | 0.00 | 38 | 1015.9 |
| 20260831102404 | 92 | 298 | 4.0 | 13.0 | 0.00 | 0.00 | 0.00 | 38 | 1015.7 |
| 20260831102306 | 92 | 299 | 4.0 | 13.0 | 0.00 | 0.00 | 0.00 | 39 | 1015.8 |
| 20260831102204 | 92 | 298 | 4.0 | 13.0 | 0.00 | 0.00 | 0.00 | 39 | 1015.7 |
| 20260831102104 | 92 | 298 | 4.0 | 13.0 | 0.00 | 0.00 | 0.00 | 39 | 1015.7 |
| 20260831102004 | 92 | 299 | 4.0 | 10.0 | 0.00 | 0.00 | 0.00 | 39 | 1015.8 |
| 20260831101904 | 92 | 299 | 5.0 | 10.0 | 0.00 | 0.00 | 0.00 | 39 | 1015.8 |
| 20260831101804 | 92 | 300 | 5.0 | 10.0 | 0.00 | 0.00 | 0.00 | 39 | 1015.7 |
| 20260831101704 | 92 | 301 | 5.0 | 11.0 | 0.00 | 0.00 | 0.00 | 39 | 1015.6 |
| 20260831101603 | 92 | 300 | 5.0 | 11.0 | 0.00 | 0.00 | 0.00 | 40 | 1015.8 |
| 20260831101503 | 92 | 301 | 5.0 | 11.0 | 0.00 | 0.00 | 0.00 | 41 | 1015.8 |
| 20260831101403 | 92 | 300 | 5.0 | 11.0 | 0.00 | 0.00 | 0.00 | 42 | 1015.8 |
| 20260831101303 | 92 | 299 | 5.0 | 11.0 | 0.00 | 0.00 | 0.00 | 41 | 1015.9 |
| 20260831101204 | 92 | 300 | 5.0 | 11.0 | 0.00 | 0.00 | 0.00 | 39 | 1015.9 |
| 20260831101103 | 92 | 301 | 4.0 | 11.0 | 0.00 | 0.00 | 0.00 | 40 | 1015.9 |
| 20260831101003 | 92 | 300 | 4.0 | 11.0 | 0.00 | 0.00 | 0.00 | 39 | 1015.9 |
| 20260831100903 | 92 | 299 | 4.0 | 11.0 | 0.00 | 0.00 | 0.00 | 39 | 1015.8 |
| 20260831100803 | 92 | 298 | 3.0 | 11.0 | 0.00 | 0.00 | 0.00 | 40 | 1015.9 |
| 20260831100703 | 92 | 297 | 3.0 | 11.0 | 0.00 | 0.00 | 0.00 | 40 | 1015.9 |
| 20260831100603 | 92 | 298 | 3.0 | 8.0 | 0.00 | 0.00 | 0.00 | 42 | 1015.8 |
| 20260831100503 | 92 | 298 | 3.0 | 8.0 | 0.00 | 0.00 | 0.00 | 42 | 1015.9 |
| 20260831100403 | 91 | 299 | 3.0 | 9.0 | 0.00 | 0.00 | 0.00 | 42 | 1015.9 |
| 20260831100303 | 91 | 299 | 3.0 | 9.0 | 0.00 | 0.00 | 0.00 | 42 | 1015.8 |
| 20260831100203 | 91 | 298 | 3.0 | 9.0 | 0.00 | 0.00 | 0.00 | 42 | 1015.8 |
| 20260831100103 | 91 | 298 | 3.0 | 9.0 | 0.00 | 0.00 | 0.00 | 43 | 1015.9 |
| 20260831100003 | 91 | 298 | 3.0 | 9.0 | 0.00 | 0.00 | 0.00 | 45 | 1015.8 |
| 20260831095903 | 91 | 299 | 3.0 | 9.0 | 0.00 | 0.00 | 0.00 | 45 | 1015.8 |
| 20260831095803 | 91 | 299 | 3.0 | 9.0 | 0.00 | 0.00 | 0.00 | 45 | 1015.8 |
| 20260831095703 | 91 | 298 | 3.0 | 9.0 | 0.00 | 0.00 | 0.00 | 45 | 1015.8 |
| 20260831095603 | 91 | 298 | 3.0 | 13.0 | 0.00 | 0.00 | 0.00 | 45 | 1015.8 |
| 20260831095503 | 91 | 298 | 3.0 | 13.0 | 0.00 | 0.00 | 0.00 | 45 | 1015.8 |
| 20260831095403 | 91 | 298 | 3.0 | 13.0 | 0.00 | 0.00 | 0.00 | 45 | 1015.9 |
| 20260831095306 | 91 | 300 | 3.0 | 13.0 | 0.00 | 0.00 | 0.00 | 46 | 1015.8 |
| 20260831095203 | 91 | 301 | 3.0 | 13.0 | 0.00 | 0.00 | 0.00 | 46 | 1015.8 |
| 20260831095103 | 91 | 302 | 3.0 | 13.0 | 0.00 | 0.00 | 0.00 | 47 | 1015.8 |
| 20260831095004 | 91 | 301 | 3.0 | 13.0 | 0.00 | 0.00 | 0.00 | 47 | 1015.8 |
| 20260831094903 | 91 | 301 | 3.0 | 13.0 | 0.00 | 0.00 | 0.00 | 47 | 1015.8 |
| 20260831094803 | 91 | 303 | 3.0 | 13.0 | 0.00 | 0.00 | 0.00 | 46 | 1015.9 |
| 20260831094703 | 91 | 304 | 3.0 | 13.0 | 0.00 | 0.00 | 0.00 | 46 | 1015.8 |
| 20260831094603 | 91 | 306 | 2.0 | 7.0 | 0.00 | 0.00 | 0.00 | 46 | 1015.8 |
| 20260831094505 | 91 | 307 | 2.0 | 7.0 | 0.00 | 0.00 | 0.00 | 46 | 1015.9 |
| 20260831094403 | 91 | 305 | 2.0 | 7.0 | 0.00 | 0.00 | 0.00 | 46 | 1015.9 |
| 20260831094303 | 91 | 303 | 2.0 | 9.0 | 0.00 | 0.00 | 0.00 | 46 | 1015.9 |
| 20260831094203 | 91 | 301 | 2.0 | 9.0 | 0.00 | 0.00 | 0.00 | 46 | 1015.8 |
| 20260831094103 | 91 | 299 | 2.0 | 9.0 | 0.00 | 0.00 | 0.00 | 48 | 1015.8 |
| 20260831094003 | 91 | 302 | 2.0 | 9.0 | 0.00 | 0.00 | 0.00 | 48 | 1015.8 |
| 20260831093903 | 91 | 301 | 3.0 | 10.0 | 0.00 | 0.00 | 0.00 | 49 | 1015.8 |
| 20260831093803 | 91 | 299 | 3.0 | 10.0 | 0.00 | 0.00 | 0.00 | 49 | 1015.9 |
| 20260831093703 | 91 | 299 | 3.0 | 10.0 | 0.00 | 0.00 | 0.00 | 49 | 1015.8 |
| 20260831093603 | 91 | 298 | 3.0 | 10.0 | 0.00 | 0.00 | 0.00 | 49 | 1015.8 |
| 20260831093503 | 91 | 298 | 3.0 | 10.0 | 0.00 | 0.00 | 0.00 | 48 | 1015.8 |
| 20260831093403 | 91 | 299 | 3.0 | 10.0 | 0.00 | 0.00 | 0.00 | 48 | 1015.8 |
| 20260831093303 | 91 | 300 | 2.0 | 10.0 | 0.00 | 0.00 | 0.00 | 48 | 1015.8 |
| 20260831093203 | 91 | 300 | 2.0 | 10.0 | 0.00 | 0.00 | 0.00 | 48 | 1015.8 |
| 20260831093103 | 91 | 301 | 2.0 | 10.0 | 0.00 | 0.00 | 0.00 | 48 | 1015.9 |
| 20260831093003 | 91 | 299 | 2.0 | 10.0 | 0.00 | 0.00 | 0.00 | 49 | 1015.9 |
| 20260831092903 | 91 | 298 | 2.0 | 8.0 | 0.00 | 0.00 | 0.00 | 49 | 1015.9 |
| 20260831092803 | 91 | 297 | 1.0 | 5.0 | 0.00 | 0.00 | 0.00 | 49 | 1015.9 |
| 20260831092703 | 91 | 297 | 1.0 | 5.0 | 0.00 | 0.00 | 0.00 | 49 | 1015.8 |
| 20260831092603 | 91 | 298 | 1.0 | 5.0 | 0.00 | 0.00 | 0.00 | 49 | 1015.8 |
| 20260831092503 | 91 | 299 | 1.0 | 7.0 | 0.00 | 0.00 | 0.00 | 49 | 1015.9 |
| 20260831092403 | 91 | 298 | 1.0 | 7.0 | 0.00 | 0.00 | 0.00 | 49 | 1015.8 |
| 20260831092306 | 91 | 297 | 1.0 | 7.0 | 0.00 | 0.00 | 0.00 | 49 | 1015.8 |
| 20260831092203 | 91 | 295 | 1.0 | 7.0 | 0.00 | 0.00 | 0.00 | 50 | 1015.8 |
| 20260831092103 | 91 | 293 | 1.0 | 7.0 | 0.00 | 0.00 | 0.00 | 50 | 1015.7 |
| 20260831092003 | 91 | 295 | 1.0 | 7.0 | 0.00 | 0.00 | 0.00 | 50 | 1015.8 |
| 20260831091903 | 90 | 297 | 1.0 | 7.0 | 0.00 | 0.00 | 0.00 | 50 | 1015.8 |
| 20260831091803 | 91 | 298 | 1.0 | 7.0 | 0.00 | 0.00 | 0.00 | 50 | 1015.8 |
| 20260831091703 | 90 | 298 | 1.0 | 7.0 | 0.00 | 0.00 | 0.00 | 50 | 1015.8 |
| 20260831091603 | 91 | 296 | 1.0 | 7.0 | 0.00 | 0.00 | 0.00 | 50 | 1015.9 |
| 20260831091503 | 90 | 296 | 1.0 | 6.0 | 0.00 | 0.00 | 0.00 | 51 | 1015.9 |
| 20260831091403 | 90 | 295 | 1.0 | 6.0 | 0.00 | 0.00 | 0.00 | 52 | 1015.9 |
| 20260831091303 | 90 | 308 | 1.0 | 6.0 | 0.00 | 0.00 | 0.00 | 52 | 1015.8 |
| 20260831091203 | 90 | 306 | 1.0 | 6.0 | 0.00 | 0.00 | 0.00 | 52 | 1015.9 |
| 20260831091103 | 90 | 304 | 1.0 | 6.0 | 0.00 | 0.00 | 0.00 | 52 | 1015.8 |
| 20260831091003 | 90 | 306 | 1.0 | 6.0 | 0.00 | 0.00 | 0.00 | 52 | 1015.8 |
| 20260831090903 | 90 | 307 | 1.0 | 6.0 | 0.00 | 0.00 | 0.00 | 52 | 1015.8 |
| 20260831090803 | 90 | 308 | 1.0 | 6.0 | 0.00 | 0.00 | 0.00 | 53 | 1015.7 |
| 20260831090703 | 90 | 307 | 1.0 | 6.0 | 0.00 | 0.00 | 0.00 | 53 | 1015.9 |
| 20260831090603 | 90 | 307 | 1.0 | 6.0 | 0.00 | 0.00 | 0.00 | 53 | 1015.9 |
| 20260831090503 | 90 | 308 | 1.0 | 6.0 | 0.00 | 0.00 | 0.00 | 53 | 1015.9 |
| 20260831090403 | 90 | 308 | 2.0 | 6.0 | 0.00 | 0.00 | 0.00 | 54 | 1015.9 |
| 20260831090303 | 90 | 304 | 1.0 | 6.0 | 0.00 | 0.00 | 0.00 | 54 | 1015.8 |
| 20260831090203 | 90 | 304 | 1.0 | 6.0 | 0.00 | 0.00 | 0.00 | 54 | 1015.9 |
| 20260831090103 | 90 | 306 | 1.0 | 6.0 | 0.00 | 0.00 | 0.00 | 54 | 1015.8 |
| 20260831090003 | 90 | 307 | 2.0 | 7.0 | 0.00 | 0.00 | 0.00 | 54 | 1015.8 |
| 20260831085903 | 90 | 303 | 2.0 | 7.0 | 0.00 | 0.00 | 0.00 | 54 | 1015.8 |
| 20260831085803 | 90 | 301 | 2.0 | 7.0 | 0.00 | 0.00 | 0.00 | 54 | 1015.8 |
| 20260831085703 | 90 | 301 | 2.0 | 7.0 | 0.00 | 0.00 | 0.00 | 54 | 1015.9 |
| 20260831085603 | 90 | 301 | 2.0 | 7.0 | 0.00 | 0.00 | 0.00 | 54 | 1015.9 |
| 20260831085503 | 90 | 300 | 2.0 | 7.0 | 0.00 | 0.00 | 0.00 | 54 | 1015.9 |
| 20260831085403 | 90 | 299 | 2.0 | 7.0 | 0.00 | 0.00 | 0.00 | 54 | 1015.9 |
| 20260831085306 | 90 | 302 | 3.0 | 7.0 | 0.00 | 0.00 | 0.00 | 54 | 1015.9 |
| 20260831085203 | 90 | 303 | 3.0 | 8.0 | 0.00 | 0.00 | 0.00 | 54 | 1015.8 |
| 20260831085103 | 90 | 302 | 3.0 | 8.0 | 0.00 | 0.00 | 0.00 | 55 | 1015.8 |
| 20260831085003 | 89 | 302 | 3.0 | 8.0 | 0.00 | 0.00 | 0.00 | 55 | 1015.9 |
| 20260831084903 | 90 | 303 | 3.0 | 8.0 | 0.00 | 0.00 | 0.00 | 55 | 1015.9 |
| 20260831084803 | 89 | 302 | 3.0 | 12.0 | 0.00 | 0.00 | 0.00 | 55 | 1015.9 |
| 20260831084703 | 89 | 302 | 3.0 | 12.0 | 0.00 | 0.00 | 0.00 | 55 | 1015.9 |
| 20260831084603 | 89 | 300 | 4.0 | 12.0 | 0.00 | 0.00 | 0.00 | 54 | 1015.9 |
| 20260831084503 | 89 | 300 | 4.0 | 12.0 | 0.00 | 0.00 | 0.00 | 54 | 1015.9 |
| 20260831084403 | 89 | 301 | 5.0 | 12.0 | 0.00 | 0.00 | 0.00 | 54 | 1015.8 |
| 20260831084303 | 89 | 300 | 5.0 | 12.0 | 0.00 | 0.00 | 0.00 | 54 | 1015.9 |
| 20260831084203 | 89 | 299 | 5.0 | 12.0 | 0.00 | 0.00 | 0.00 | 54 | 1015.9 |
| 20260831084103 | 89 | 299 | 4.0 | 12.0 | 0.00 | 0.00 | 0.00 | 54 | 1015.8 |
| 20260831084003 | 89 | 297 | 5.0 | 12.0 | 0.00 | 0.00 | 0.00 | 55 | 1015.8 |
| 20260831083903 | 89 | 298 | 5.0 | 12.0 | 0.00 | 0.00 | 0.00 | 55 | 1015.9 |
| 20260831083803 | 89 | 298 | 4.0 | 11.0 | 0.00 | 0.00 | 0.00 | 55 | 1015.9 |
| 20260831083703 | 89 | 297 | 4.0 | 11.0 | 0.00 | 0.00 | 0.00 | 55 | 1015.9 |
| 20260831083603 | 89 | 299 | 4.0 | 11.0 | 0.00 | 0.00 | 0.00 | 55 | 1015.9 |
| 20260831083503 | 89 | 299 | 4.0 | 9.0 | 0.00 | 0.00 | 0.00 | 56 | 1015.8 |
| 20260831083403 | 89 | 300 | 5.0 | 10.0 | 0.00 | 0.00 | 0.00 | 56 | 1015.8 |
| 20260831083303 | 89 | 299 | 5.0 | 13.0 | 0.00 | 0.00 | 0.00 | 56 | 1015.8 |
| 20260831083203 | 89 | 300 | 5.0 | 13.0 | 0.00 | 0.00 | 0.00 | 56 | 1015.9 |
| 20260831083103 | 89 | 301 | 5.0 | 13.0 | 0.00 | 0.00 | 0.00 | 56 | 1015.8 |
| 20260831083003 | 89 | 302 | 5.0 | 13.0 | 0.00 | 0.00 | 0.00 | 56 | 1015.8 |
| 20260831082903 | 89 | 303 | 6.0 | 13.0 | 0.00 | 0.00 | 0.00 | 55 | 1015.8 |
| 20260831082803 | 89 | 303 | 6.0 | 13.0 | 0.00 | 0.00 | 0.00 | 55 | 1015.8 |
| 20260831082704 | 89 | 303 | 5.0 | 13.0 | 0.00 | 0.00 | 0.00 | 55 | 1015.8 |
| 20260831082604 | 89 | 302 | 5.0 | 13.0 | 0.00 | 0.00 | 0.00 | 54 | 1015.9 |
| 20260831082504 | 89 | 303 | 5.0 | 13.0 | 0.00 | 0.00 | 0.00 | 54 | 1015.9 |
| 20260831082404 | 89 | 302 | 4.0 | 13.0 | 0.00 | 0.00 | 0.00 | 54 | 1015.9 |
| 20260831082306 | 89 | 304 | 4.0 | 12.0 | 0.00 | 0.00 | 0.00 | 55 | 1015.8 |
| 20260831082204 | 89 | 302 | 4.0 | 11.0 | 0.00 | 0.00 | 0.00 | 55 | 1015.8 |
| 20260831082104 | 89 | 299 | 4.0 | 11.0 | 0.00 | 0.00 | 0.00 | 55 | 1015.8 |
| 20260831082004 | 89 | 298 | 4.0 | 11.0 | 0.00 | 0.00 | 0.00 | 55 | 1015.7 |
| 20260831081904 | 89 | 297 | 4.0 | 11.0 | 0.00 | 0.00 | 0.00 | 55 | 1015.6 |
| 20260831081804 | 89 | 299 | 4.0 | 11.0 | 0.00 | 0.00 | 0.00 | 55 | 1015.7 |
| 20260831081704 | 89 | 299 | 4.0 | 11.0 | 0.00 | 0.00 | 0.00 | 55 | 1015.5 |
| 20260831081604 | 90 | 299 | 4.0 | 11.0 | 0.00 | 0.00 | 0.00 | 55 | 1015.5 |
| 20260831081504 | 90 | 300 | 4.0 | 11.0 | 0.00 | 0.00 | 0.00 | 55 | 1015.5 |
| 20260831081404 | 90 | 299 | 5.0 | 11.0 | 0.00 | 0.00 | 0.00 | 54 | 1015.6 |
| 20260831081304 | 90 | 299 | 4.0 | 8.0 | 0.00 | 0.00 | 0.00 | 55 | 1015.6 |
| 20260831081204 | 90 | 300 | 4.0 | 14.0 | 0.00 | 0.00 | 0.00 | 55 | 1015.6 |
| 20260831081104 | 90 | 301 | 4.0 | 14.0 | 0.00 | 0.00 | 0.00 | 55 | 1015.6 |
| 20260831081004 | 90 | 303 | 4.0 | 14.0 | 0.00 | 0.00 | 0.00 | 55 | 1015.5 |
| 20260831080904 | 90 | 303 | 4.0 | 14.0 | 0.00 | 0.00 | 0.00 | 55 | 1015.5 |
| 20260831080804 | 90 | 302 | 4.0 | 14.0 | 0.00 | 0.00 | 0.00 | 55 | 1015.6 |
| 20260831080704 | 90 | 302 | 4.0 | 14.0 | 0.00 | 0.00 | 0.00 | 54 | 1015.5 |
| 20260831080604 | 90 | 301 | 4.0 | 14.0 | 0.00 | 0.00 | 0.00 | 54 | 1015.7 |
| 20260831080504 | 90 | 300 | 3.0 | 14.0 | 0.00 | 0.00 | 0.00 | 54 | 1015.8 |
| 20260831080404 | 90 | 300 | 3.0 | 14.0 | 0.00 | 0.00 | 0.00 | 54 | 1015.6 |
| 20260831080304 | 90 | 300 | 3.0 | 14.0 | 0.00 | 0.00 | 0.00 | 55 | 1015.6 |
| 20260831080204 | 90 | 300 | 2.0 | 8.0 | 0.00 | 0.00 | 0.00 | 55 | 1015.6 |
| 20260831080104 | 90 | 299 | 2.0 | 8.0 | 0.00 | 0.00 | 0.00 | 56 | 1015.6 |
| 20260831080004 | 90 | 302 | 2.0 | 6.0 | 0.00 | 0.00 | 0.00 | 56 | 1015.5 |
| 20260831075904 | 90 | 300 | 2.0 | 6.0 | 0.00 | 0.00 | 0.00 | 56 | 1015.5 |
| 20260831075804 | 90 | 299 | 3.0 | 8.0 | 0.00 | 0.00 | 0.00 | 56 | 1015.6 |
| 20260831075704 | 90 | 300 | 3.0 | 8.0 | 0.00 | 0.00 | 0.00 | 56 | 1015.5 |
| 20260831075604 | 90 | 300 | 3.0 | 8.0 | 0.00 | 0.00 | 0.00 | 56 | 1015.4 |
| 20260831075504 | 90 | 300 | 2.0 | 8.0 | 0.00 | 0.00 | 0.00 | 56 | 1015.4 |
| 20260831075404 | 90 | 301 | 3.0 | 8.0 | 0.00 | 0.00 | 0.00 | 56 | 1015.4 |
| 20260831075306 | 89 | 300 | 3.0 | 8.0 | 0.00 | 0.00 | 0.00 | 56 | 1015.5 |
| 20260831075204 | 89 | 300 | 3.0 | 8.0 | 0.00 | 0.00 | 0.00 | 56 | 1015.4 |
| 20260831075104 | 89 | 300 | 3.0 | 8.0 | 0.00 | 0.00 | 0.00 | 56 | 1015.4 |
| 20260831075004 | 89 | 296 | 3.0 | 8.0 | 0.00 | 0.00 | 0.00 | 56 | 1015.5 |
| 20260831074904 | 89 | 298 | 3.0 | 8.0 | 0.00 | 0.00 | 0.00 | 56 | 1015.5 |
| 20260831074804 | 89 | 300 | 3.0 | 8.0 | 0.00 | 0.00 | 0.00 | 57 | 1015.4 |
| 20260831074704 | 89 | 301 | 3.0 | 7.0 | 0.00 | 0.00 | 0.00 | 57 | 1015.5 |
| 20260831074604 | 89 | 301 | 3.0 | 9.0 | 0.00 | 0.00 | 0.00 | 57 | 1015.5 |
| 20260831074504 | 89 | 301 | 3.0 | 9.0 | 0.00 | 0.00 | 0.00 | 57 | 1015.5 |
| 20260831074403 | 89 | 299 | 3.0 | 11.0 | 0.00 | 0.00 | 0.00 | 57 | 1015.5 |
| 20260831074304 | 89 | 300 | 3.0 | 11.0 | 0.00 | 0.00 | 0.00 | 57 | 1015.5 |
| 20260831074204 | 89 | 299 | 4.0 | 11.0 | 0.00 | 0.00 | 0.00 | 57 | 1015.5 |
| 20260831074104 | 89 | 299 | 4.0 | 11.0 | 0.00 | 0.00 | 0.00 | 57 | 1015.4 |
| 20260831074003 | 89 | 298 | 4.0 | 11.0 | 0.00 | 0.00 | 0.00 | 57 | 1015.5 |
| 20260831073903 | 89 | 296 | 4.0 | 11.0 | 0.00 | 0.00 | 0.00 | 57 | 1015.6 |
| 20260831073803 | 89 | 295 | 4.0 | 11.0 | 0.00 | 0.00 | 0.00 | 57 | 1015.6 |
| 20260831073703 | 89 | 294 | 4.0 | 11.0 | 0.00 | 0.00 | 0.00 | 57 | 1015.5 |
| 20260831073603 | 89 | 294 | 4.0 | 11.0 | 0.00 | 0.00 | 0.00 | 57 | 1015.5 |
| 20260831073504 | 89 | 295 | 4.0 | 11.0 | 0.00 | 0.00 | 0.00 | 57 | 1015.4 |
| 20260831073403 | 89 | 297 | 4.0 | 10.0 | 0.00 | 0.00 | 0.00 | 58 | 1015.5 |
| 20260831073303 | 89 | 296 | 5.0 | 8.0 | 0.00 | 0.00 | 0.00 | 58 | 1015.4 |
| 20260831073203 | 89 | 297 | 5.0 | 8.0 | 0.00 | 0.00 | 0.00 | 58 | 1015.4 |
| 20260831073103 | 89 | 298 | 4.0 | 8.0 | 0.00 | 0.00 | 0.00 | 58 | 1015.3 |
| 20260831073003 | 89 | 300 | 4.0 | 8.0 | 0.00 | 0.00 | 0.00 | 58 | 1015.3 |
| 20260831072903 | 89 | 300 | 5.0 | 8.0 | 0.00 | 0.00 | 0.00 | 58 | 1015.4 |
| 20260831072803 | 89 | 299 | 4.0 | 8.0 | 0.00 | 0.00 | 0.00 | 58 | 1015.2 |
| 20260831072703 | 89 | 300 | 4.0 | 8.0 | 0.00 | 0.00 | 0.00 | 58 | 1015.3 |
| 20260831072603 | 89 | 301 | 4.0 | 8.0 | 0.00 | 0.00 | 0.00 | 58 | 1015.2 |
| 20260831072503 | 89 | 301 | 4.0 | 8.0 | 0.00 | 0.00 | 0.00 | 58 | 1015.3 |
| 20260831072403 | 89 | 300 | 4.0 | 8.0 | 0.00 | 0.00 | 0.00 | 58 | 1015.3 |
| 20260831072306 | 89 | 301 | 4.0 | 8.0 | 0.00 | 0.00 | 0.00 | 58 | 1015.3 |
| 20260831072203 | 89 | 299 | 4.0 | 8.0 | 0.00 | 0.00 | 0.00 | 58 | 1015.2 |
| 20260831072103 | 89 | 299 | 4.0 | 8.0 | 0.00 | 0.00 | 0.00 | 58 | 1015.2 |
| 20260831072004 | 89 | 298 | 4.0 | 9.0 | 0.00 | 0.00 | 0.00 | 59 | 1015.3 |
| 20260831071904 | 89 | 297 | 4.0 | 12.0 | 0.00 | 0.00 | 0.00 | 59 | 1015.2 |
| 20260831071803 | 89 | 297 | 4.0 | 12.0 | 0.00 | 0.00 | 0.00 | 59 | 1015.4 |
| 20260831071703 | 89 | 297 | 4.0 | 12.0 | 0.00 | 0.00 | 0.00 | 59 | 1015.3 |
| 20260831071603 | 89 | 295 | 4.0 | 12.0 | 0.00 | 0.00 | 0.00 | 59 | 1015.3 |
| 20260831071503 | 89 | 295 | 4.0 | 12.0 | 0.00 | 0.00 | 0.00 | 59 | 1015.4 |
| 20260831071403 | 89 | 295 | 4.0 | 12.0 | 0.00 | 0.00 | 0.00 | 59 | 1015.3 |
| 20260831071305 | 89 | 295 | 4.0 | 12.0 | 0.00 | 0.00 | 0.00 | 58 | 1015.4 |
| 20260831071203 | 89 | 295 | 5.0 | 12.0 | 0.00 | 0.00 | 0.00 | 58 | 1015.4 |
| 20260831071103 | 89 | 295 | 5.0 | 12.0 | 0.00 | 0.00 | 0.00 | 58 | 1015.4 |
| 20260831071003 | 89 | 294 | 5.0 | 12.0 | 0.00 | 0.00 | 0.00 | 59 | 1015.4 |
| 20260831070903 | 89 | 297 | 5.0 | 11.0 | 0.00 | 0.00 | 0.00 | 58 | 1015.3 |
| 20260831070803 | 89 | 299 | 5.0 | 11.0 | 0.00 | 0.00 | 0.00 | 59 | 1015.2 |
| 20260831070703 | 89 | 300 | 5.0 | 11.0 | 0.00 | 0.00 | 0.00 | 59 | 1015.2 |
| 20260831070603 | 89 | 300 | 5.0 | 12.0 | 0.00 | 0.00 | 0.00 | 59 | 1015.2 |
| 20260831070503 | 89 | 301 | 5.0 | 12.0 | 0.00 | 0.00 | 0.00 | 59 | 1015.2 |
| 20260831070403 | 89 | 301 | 5.0 | 12.0 | 0.00 | 0.00 | 0.00 | 58 | 1015.2 |
| 20260831070303 | 89 | 301 | 5.0 | 12.0 | 0.00 | 0.00 | 0.00 | 58 | 1015.2 |
| 20260831070203 | 89 | 303 | 5.0 | 12.0 | 0.00 | 0.00 | 0.00 | 58 | 1015.2 |
| 20260831070103 | 89 | 302 | 5.0 | 13.0 | 0.00 | 0.00 | 0.00 | 58 | 1015.2 |
| 20260831070003 | 89 | 301 | 5.0 | 13.0 | 0.00 | 0.00 | 0.00 | 58 | 1015.2 |
| 20260831065903 | 89 | 299 | 5.0 | 13.0 | 0.00 | 0.00 | 0.00 | 58 | 1015.2 |
| 20260831065803 | 89 | 300 | 5.0 | 13.0 | 0.00 | 0.00 | 0.00 | 58 | 1015.2 |
| 20260831065703 | 89 | 300 | 5.0 | 13.0 | 0.00 | 0.00 | 0.00 | 59 | 1015.2 |
| 20260831065603 | 89 | 300 | 5.0 | 13.0 | 0.00 | 0.00 | 0.00 | 59 | 1015.3 |
| 20260831065503 | 89 | 300 | 5.0 | 13.0 | 0.00 | 0.00 | 0.00 | 59 | 1015.2 |
| 20260831065403 | 89 | 300 | 5.0 | 13.0 | 0.00 | 0.00 | 0.00 | 59 | 1015.1 |
| 20260831065306 | 89 | 300 | 5.0 | 13.0 | 0.00 | 0.00 | 0.00 | 59 | 1015.1 |
| 20260831065203 | 89 | 299 | 5.0 | 13.0 | 0.00 | 0.00 | 0.00 | 59 | 1015.0 |
| 20260831065103 | 89 | 299 | 4.0 | 12.0 | 0.00 | 0.00 | 0.00 | 59 | 1015.0 |
| 20260831065003 | 89 | 301 | 5.0 | 12.0 | 0.00 | 0.00 | 0.00 | 59 | 1015.1 |
| 20260831064903 | 89 | 301 | 4.0 | 12.0 | 0.00 | 0.00 | 0.00 | 59 | 1015.1 |
| 20260831064803 | 89 | 301 | 4.0 | 9.0 | 0.00 | 0.00 | 0.00 | 59 | 1015.1 |
| 20260831064703 | 89 | 299 | 4.0 | 9.0 | 0.00 | 0.00 | 0.00 | 59 | 1015.1 |
| 20260831064603 | 89 | 297 | 4.0 | 9.0 | 0.00 | 0.00 | 0.00 | 60 | 1015.1 |
| 20260831064503 | 89 | 297 | 4.0 | 9.0 | 0.00 | 0.00 | 0.00 | 60 | 1015.1 |
| 20260831064403 | 89 | 296 | 4.0 | 13.0 | 0.00 | 0.00 | 0.00 | 60 | 1015.1 |
| 20260831064303 | 89 | 296 | 4.0 | 13.0 | 0.00 | 0.00 | 0.00 | 60 | 1015.1 |
| 20260831064203 | 89 | 296 | 4.0 | 13.0 | 0.00 | 0.00 | 0.00 | 60 | 1015.1 |
| 20260831064103 | 89 | 297 | 4.0 | 13.0 | 0.00 | 0.00 | 0.00 | 60 | 1015.1 |
| 20260831064003 | 89 | 296 | 4.0 | 13.0 | 0.00 | 0.00 | 0.00 | 60 | 1015.1 |
| 20260831063903 | 89 | 298 | 4.0 | 13.0 | 0.00 | 0.00 | 0.00 | 60 | 1015.2 |
| 20260831063803 | 89 | 297 | 4.0 | 13.0 | 0.00 | 0.00 | 0.00 | 61 | 1015.2 |
| 20260831063703 | 89 | 299 | 4.0 | 13.0 | 0.00 | 0.00 | 0.00 | 61 | 1015.1 |
| 20260831063603 | 89 | 300 | 4.0 | 13.0 | 0.00 | 0.00 | 0.00 | 61 | 1015.2 |
| 20260831063503 | 89 | 299 | 4.0 | 13.0 | 0.00 | 0.00 | 0.00 | 61 | 1015.2 |
| 20260831063403 | 89 | 301 | 4.0 | 11.0 | 0.00 | 0.00 | 0.00 | 62 | 1015.2 |
| 20260831063303 | 89 | 300 | 4.0 | 11.0 | 0.00 | 0.00 | 0.00 | 62 | 1015.1 |
| 20260831063203 | 89 | 300 | 4.0 | 11.0 | 0.00 | 0.00 | 0.00 | 62 | 1015.2 |
| 20260831063103 | 89 | 302 | 4.0 | 11.0 | 0.00 | 0.00 | 0.00 | 62 | 1015.1 |
| 20260831063003 | 89 | 301 | 4.0 | 11.0 | 0.00 | 0.00 | 0.00 | 62 | 1015.1 |
| 20260831062903 | 89 | 300 | 4.0 | 11.0 | 0.00 | 0.00 | 0.00 | 62 | 1015.1 |
| 20260831062803 | 89 | 299 | 4.0 | 11.0 | 0.00 | 0.00 | 0.00 | 62 | 1015.0 |
| 20260831062703 | 89 | 300 | 4.0 | 11.0 | 0.00 | 0.00 | 0.00 | 62 | 1015.0 |
| 20260831062603 | 89 | 300 | 4.0 | 11.0 | 0.00 | 0.00 | 0.00 | 62 | 1015.1 |
| 20260831062503 | 89 | 299 | 4.0 | 13.0 | 0.00 | 0.00 | 0.00 | 62 | 1015.1 |
| 20260831062403 | 89 | 299 | 4.0 | 13.0 | 0.00 | 0.00 | 0.00 | 62 | 1015.1 |
| 20260831062305 | 88 | 299 | 4.0 | 13.0 | 0.00 | 0.00 | 0.00 | 62 | 1015.2 |
| 20260831062203 | 88 | 300 | 4.0 | 13.0 | 0.00 | 0.00 | 0.00 | 63 | 1015.2 |
| 20260831062103 | 88 | 298 | 4.0 | 13.0 | 0.00 | 0.00 | 0.00 | 63 | 1015.1 |
| 20260831062003 | 88 | 299 | 4.0 | 13.0 | 0.00 | 0.00 | 0.00 | 63 | 1015.1 |
| 20260831061903 | 88 | 300 | 4.0 | 13.0 | 0.00 | 0.00 | 0.00 | 63 | 1015.2 |
| 20260831061803 | 88 | 300 | 4.0 | 13.0 | 0.00 | 0.00 | 0.00 | 63 | 1015.1 |
| 20260831061703 | 88 | 299 | 4.0 | 13.0 | 0.00 | 0.00 | 0.00 | 63 | 1015.2 |
| 20260831061603 | 88 | 298 | 4.0 | 13.0 | 0.00 | 0.00 | 0.00 | 63 | 1015.3 |
| 20260831061503 | 88 | 299 | 3.0 | 10.0 | 0.00 | 0.00 | 0.00 | 64 | 1015.3 |
| 20260831061403 | 88 | 298 | 4.0 | 10.0 | 0.00 | 0.00 | 0.00 | 64 | 1015.2 |
| 20260831061303 | 88 | 299 | 4.0 | 10.0 | 0.00 | 0.00 | 0.00 | 64 | 1015.1 |
| 20260831061203 | 88 | 298 | 4.0 | 10.0 | 0.00 | 0.00 | 0.00 | 64 | 1015.1 |
| 20260831061103 | 88 | 297 | 3.0 | 10.0 | 0.00 | 0.00 | 0.00 | 64 | 1015.1 |
| 20260831061003 | 87 | 296 | 4.0 | 10.0 | 0.00 | 0.00 | 0.00 | 64 | 1015.2 |
| 20260831060903 | 87 | 296 | 4.0 | 10.0 | 0.00 | 0.00 | 0.00 | 64 | 1015.2 |
| 20260831060803 | 87 | 297 | 4.0 | 10.0 | 0.00 | 0.00 | 0.00 | 64 | 1015.2 |
| 20260831060703 | 87 | 298 | 4.0 | 10.0 | 0.00 | 0.00 | 0.00 | 64 | 1015.1 |
| 20260831060603 | 87 | 300 | 4.0 | 10.0 | 0.00 | 0.00 | 0.00 | 65 | 1015.2 |
| 20260831060503 | 87 | 300 | 4.0 | 10.0 | 0.00 | 0.00 | 0.00 | 65 | 1015.2 |
| 20260831060403 | 87 | 300 | 4.0 | 11.0 | 0.00 | 0.00 | 0.00 | 65 | 1015.2 |
| 20260831060303 | 87 | 300 | 4.0 | 11.0 | 0.00 | 0.00 | 0.00 | 66 | 1015.3 |
| 20260831060203 | 87 | 299 | 4.0 | 11.0 | 0.00 | 0.00 | 0.00 | 66 | 1015.2 |
| 20260831060003 | 86 | 302 | 4.0 | 11.0 | 0.00 | 0.00 | 0.00 | 66 | 1015.2 |
| 20260831055903 | 86 | 301 | 4.0 | 11.0 | 0.00 | 0.00 | 0.00 | 66 | 1015.2 |
| 20260831055804 | 86 | 299 | 4.0 | 11.0 | 0.00 | 0.00 | 0.00 | 67 | 1015.2 |
| 20260831055704 | 86 | 298 | 4.0 | 11.0 | 0.00 | 0.00 | 0.00 | 67 | 1015.2 |
| 20260831055604 | 86 | 296 | 4.0 | 11.0 | 0.00 | 0.00 | 0.00 | 67 | 1015.2 |
| 20260831055504 | 86 | 296 | 4.0 | 11.0 | 0.00 | 0.00 | 0.00 | 67 | 1015.2 |
| 20260831055404 | 85 | 295 | 4.0 | 9.0 | 0.00 | 0.00 | 0.00 | 67 | 1015.2 |
| 20260831055306 | 85 | 298 | 4.0 | 14.0 | 0.00 | 0.00 | 0.00 | 67 | 1015.3 |
| 20260831055204 | 85 | 300 | 4.0 | 14.0 | 0.00 | 0.00 | 0.00 | 68 | 1015.2 |
| 20260831055104 | 85 | 298 | 4.0 | 14.0 | 0.00 | 0.00 | 0.00 | 68 | 1015.2 |
| 20260831055004 | 85 | 299 | 4.0 | 14.0 | 0.00 | 0.00 | 0.00 | 68 | 1015.2 |
| 20260831054904 | 85 | 298 | 5.0 | 14.0 | 0.00 | 0.00 | 0.00 | 68 | 1015.2 |
| 20260831054804 | 85 | 299 | 5.0 | 14.0 | 0.00 | 0.00 | 0.00 | 68 | 1015.3 |
| 20260831054704 | 85 | 301 | 5.0 | 14.0 | 0.00 | 0.00 | 0.00 | 68 | 1015.2 |
| 20260831054604 | 85 | 300 | 5.0 | 14.0 | 0.00 | 0.00 | 0.00 | 68 | 1015.2 |
| 20260831054504 | 84 | 300 | 5.0 | 14.0 | 0.00 | 0.00 | 0.00 | 68 | 1015.2 |
| 20260831054404 | 84 | 304 | 5.0 | 14.0 | 0.00 | 0.00 | 0.00 | 68 | 1015.2 |
| 20260831054304 | 84 | 302 | 5.0 | 10.0 | 0.00 | 0.00 | 0.00 | 68 | 1015.2 |
| 20260831054204 | 84 | 300 | 5.0 | 10.0 | 0.00 | 0.00 | 0.00 | 69 | 1015.2 |
| 20260831054104 | 84 | 300 | 5.0 | 10.0 | 0.00 | 0.00 | 0.00 | 69 | 1015.2 |
| 20260831054004 | 84 | 299 | 4.0 | 9.0 | 0.00 | 0.00 | 0.00 | 69 | 1015.2 |
| 20260831053904 | 84 | 299 | 4.0 | 12.0 | 0.00 | 0.00 | 0.00 | 69 | 1015.2 |
| 20260831053804 | 84 | 298 | 4.0 | 12.0 | 0.00 | 0.00 | 0.00 | 69 | 1015.1 |
| 20260831053704 | 84 | 298 | 4.0 | 12.0 | 0.00 | 0.00 | 0.00 | 69 | 1015.2 |
| 20260831053604 | 84 | 298 | 4.0 | 12.0 | 0.00 | 0.00 | 0.00 | 69 | 1015.2 |
| 20260831053504 | 84 | 297 | 4.0 | 12.0 | 0.00 | 0.00 | 0.00 | 69 | 1015.2 |
| 20260831053404 | 84 | 293 | 4.0 | 12.0 | 0.00 | 0.00 | 0.00 | 69 | 1015.2 |
| 20260831053304 | 84 | 295 | 4.0 | 12.0 | 0.00 | 0.00 | 0.00 | 69 | 1015.2 |
| 20260831053204 | 84 | 293 | 4.0 | 12.0 | 0.00 | 0.00 | 0.00 | 69 | 1015.1 |
| 20260831053104 | 84 | 293 | 3.0 | 12.0 | 0.00 | 0.00 | 0.00 | 69 | 1015.1 |
| 20260831053004 | 84 | 294 | 4.0 | 12.0 | 0.00 | 0.00 | 0.00 | 69 | 1015.1 |
| 20260831052904 | 84 | 294 | 4.0 | 12.0 | 0.00 | 0.00 | 0.00 | 69 | 1015.2 |
| 20260831052804 | 84 | 295 | 4.0 | 12.0 | 0.00 | 0.00 | 0.00 | 69 | 1015.2 |
| 20260831052704 | 84 | 295 | 4.0 | 12.0 | 0.00 | 0.00 | 0.00 | 69 | 1015.2 |
| 20260831052604 | 84 | 295 | 4.0 | 12.0 | 0.00 | 0.00 | 0.00 | 69 | 1015.2 |
| 20260831052504 | 84 | 294 | 4.0 | 11.0 | 0.00 | 0.00 | 0.00 | 70 | 1015.2 |
| 20260831052404 | 84 | 294 | 4.0 | 11.0 | 0.00 | 0.00 | 0.00 | 70 | 1015.2 |
| 20260831052306 | 84 | 293 | 4.0 | 11.0 | 0.00 | 0.00 | 0.00 | 70 | 1015.2 |
| 20260831052204 | 83 | 295 | 4.0 | 11.0 | 0.00 | 0.00 | 0.00 | 70 | 1015.1 |
| 20260831052104 | 83 | 296 | 4.0 | 11.0 | 0.00 | 0.00 | 0.00 | 70 | 1015.1 |
| 20260831052004 | 83 | 296 | 4.0 | 11.0 | 0.00 | 0.00 | 0.00 | 70 | 1015.1 |
| 20260831051904 | 83 | 296 | 4.0 | 11.0 | 0.00 | 0.00 | 0.00 | 70 | 1015.1 |
| 20260831051804 | 83 | 296 | 4.0 | 7.0 | 0.00 | 0.00 | 0.00 | 70 | 1015.1 |
| 20260831051704 | 83 | 297 | 4.0 | 8.0 | 0.00 | 0.00 | 0.00 | 70 | 1015.1 |
| 20260831051604 | 83 | 298 | 4.0 | 11.0 | 0.00 | 0.00 | 0.00 | 70 | 1015.1 |
| 20260831051504 | 83 | 299 | 4.0 | 11.0 | 0.00 | 0.00 | 0.00 | 70 | 1015.2 |
| 20260831051404 | 83 | 300 | 4.0 | 11.0 | 0.00 | 0.00 | 0.00 | 70 | 1015.2 |
| 20260831051304 | 83 | 301 | 3.0 | 11.0 | 0.00 | 0.00 | 0.00 | 70 | 1015.2 |
| 20260831051204 | 83 | 303 | 3.0 | 11.0 | 0.00 | 0.00 | 0.00 | 70 | 1015.2 |
| 20260831051104 | 83 | 300 | 4.0 | 11.0 | 0.00 | 0.00 | 0.00 | 70 | 1015.2 |
| 20260831051004 | 83 | 301 | 4.0 | 11.0 | 0.00 | 0.00 | 0.00 | 70 | 1015.1 |
| 20260831050904 | 83 | 301 | 4.0 | 11.0 | 0.00 | 0.00 | 0.00 | 70 | 1015.2 |
| 20260831050803 | 83 | 301 | 4.0 | 11.0 | 0.00 | 0.00 | 0.00 | 70 | 1015.2 |
| 20260831050703 | 83 | 301 | 4.0 | 11.0 | 0.00 | 0.00 | 0.00 | 70 | 1015.2 |
| 20260831050603 | 83 | 300 | 4.0 | 10.0 | 0.00 | 0.00 | 0.00 | 70 | 1015.2 |
| 20260831050503 | 83 | 299 | 4.0 | 10.0 | 0.00 | 0.00 | 0.00 | 70 | 1015.1 |
| 20260831050403 | 83 | 300 | 4.0 | 10.0 | 0.00 | 0.00 | 0.00 | 70 | 1015.2 |
| 20260831050303 | 83 | 299 | 4.0 | 10.0 | 0.00 | 0.00 | 0.00 | 70 | 1015.2 |
| 20260831050203 | 83 | 297 | 4.0 | 10.0 | 0.00 | 0.00 | 0.00 | 70 | 1015.1 |
| 20260831050103 | 83 | 298 | 3.0 | 9.0 | 0.00 | 0.00 | 0.00 | 70 | 1015.1 |
| 20260831050004 | 83 | 299 | 3.0 | 9.0 | 0.00 | 0.00 | 0.00 | 70 | 1015.1 |
| 20260831045903 | 83 | 299 | 3.0 | 9.0 | 0.00 | 0.00 | 0.00 | 70 | 1015.1 |
| 20260831045803 | 83 | 299 | 3.0 | 9.0 | 0.00 | 0.00 | 0.00 | 70 | 1015.2 |
| 20260831045703 | 83 | 299 | 3.0 | 8.0 | 0.00 | 0.00 | 0.00 | 70 | 1015.1 |
| 20260831045603 | 83 | 298 | 3.0 | 8.0 | 0.00 | 0.00 | 0.00 | 70 | 1015.1 |
| 20260831045503 | 83 | 297 | 3.0 | 8.0 | 0.00 | 0.00 | 0.00 | 70 | 1015.2 |
| 20260831045403 | 83 | 296 | 3.0 | 8.0 | 0.00 | 0.00 | 0.00 | 70 | 1015.2 |
| 20260831045306 | 83 | 296 | 3.0 | 8.0 | 0.00 | 0.00 | 0.00 | 70 | 1015.1 |
| 20260831045203 | 83 | 296 | 3.0 | 8.0 | 0.00 | 0.00 | 0.00 | 70 | 1015.1 |
| 20260831045103 | 83 | 297 | 3.0 | 8.0 | 0.00 | 0.00 | 0.00 | 70 | 1015.1 |
| 20260831045003 | 83 | 295 | 3.0 | 8.0 | 0.00 | 0.00 | 0.00 | 70 | 1015.1 |
| 20260831044903 | 83 | 296 | 3.0 | 8.0 | 0.00 | 0.00 | 0.00 | 70 | 1015.2 |
| 20260831044803 | 83 | 294 | 3.0 | 6.0 | 0.00 | 0.00 | 0.00 | 70 | 1015.1 |
| 20260831044703 | 83 | 294 | 3.0 | 7.0 | 0.00 | 0.00 | 0.00 | 70 | 1015.1 |
| 20260831044603 | 83 | 295 | 3.0 | 7.0 | 0.00 | 0.00 | 0.00 | 70 | 1015.1 |
| 20260831044503 | 83 | 294 | 3.0 | 7.0 | 0.00 | 0.00 | 0.00 | 71 | 1015.1 |
| 20260831044403 | 83 | 295 | 3.0 | 7.0 | 0.00 | 0.00 | 0.00 | 71 | 1015.1 |
| 20260831044303 | 83 | 294 | 3.0 | 7.0 | 0.00 | 0.00 | 0.00 | 71 | 1015.1 |
| 20260831044203 | 83 | 295 | 3.0 | 7.0 | 0.00 | 0.00 | 0.00 | 71 | 1015.1 |
| 20260831044103 | 83 | 294 | 3.0 | 7.0 | 0.00 | 0.00 | 0.00 | 71 | 1015.1 |
| 20260831044003 | 83 | 295 | 4.0 | 8.0 | 0.00 | 0.00 | 0.00 | 71 | 1015.0 |
| 20260831043903 | 83 | 297 | 4.0 | 8.0 | 0.00 | 0.00 | 0.00 | 71 | 1014.9 |
| 20260831043803 | 83 | 297 | 4.0 | 11.0 | 0.00 | 0.00 | 0.00 | 71 | 1015.0 |
| 20260831043703 | 83 | 297 | 4.0 | 11.0 | 0.00 | 0.00 | 0.00 | 71 | 1015.1 |
| 20260831043603 | 83 | 297 | 4.0 | 11.0 | 0.00 | 0.00 | 0.00 | 71 | 1015.1 |
| 20260831043503 | 83 | 298 | 4.0 | 11.0 | 0.00 | 0.00 | 0.00 | 71 | 1015.1 |
| 20260831043403 | 83 | 297 | 4.0 | 11.0 | 0.00 | 0.00 | 0.00 | 71 | 1015.0 |
| 20260831043303 | 83 | 297 | 4.0 | 11.0 | 0.00 | 0.00 | 0.00 | 71 | 1015.0 |
| 20260831043203 | 83 | 296 | 4.0 | 11.0 | 0.00 | 0.00 | 0.00 | 71 | 1014.9 |
| 20260831043103 | 83 | 297 | 3.0 | 11.0 | 0.00 | 0.00 | 0.00 | 71 | 1015.0 |
| 20260831043003 | 83 | 295 | 3.0 | 11.0 | 0.00 | 0.00 | 0.00 | 71 | 1015.1 |
| 20260831042903 | 83 | 294 | 3.0 | 11.0 | 0.00 | 0.00 | 0.00 | 71 | 1015.1 |
| 20260831042803 | 83 | 295 | 3.0 | 9.0 | 0.00 | 0.00 | 0.00 | 71 | 1014.9 |
| 20260831042703 | 83 | 295 | 3.0 | 9.0 | 0.00 | 0.00 | 0.00 | 71 | 1015.1 |
| 20260831042603 | 83 | 294 | 3.0 | 9.0 | 0.00 | 0.00 | 0.00 | 71 | 1015.1 |
| 20260831042503 | 83 | 294 | 3.0 | 7.0 | 0.00 | 0.00 | 0.00 | 71 | 1015.0 |
| 20260831042403 | 83 | 294 | 3.0 | 9.0 | 0.00 | 0.00 | 0.00 | 71 | 1015.0 |
| 20260831042306 | 83 | 294 | 4.0 | 9.0 | 0.00 | 0.00 | 0.00 | 71 | 1015.0 |
| 20260831042203 | 83 | 294 | 4.0 | 9.0 | 0.00 | 0.00 | 0.00 | 71 | 1015.1 |
| 20260831042103 | 83 | 294 | 4.0 | 9.0 | 0.00 | 0.00 | 0.00 | 71 | 1015.0 |
| 20260831042003 | 83 | 295 | 4.0 | 9.0 | 0.00 | 0.00 | 0.00 | 71 | 1014.9 |
| 20260831041903 | 83 | 296 | 4.0 | 9.0 | 0.00 | 0.00 | 0.00 | 71 | 1015.0 |
| 20260831041803 | 83 | 296 | 4.0 | 9.0 | 0.00 | 0.00 | 0.00 | 70 | 1014.9 |
| 20260831041703 | 83 | 296 | 4.0 | 9.0 | 0.00 | 0.00 | 0.00 | 70 | 1014.9 |
| 20260831041603 | 83 | 297 | 4.0 | 9.0 | 0.00 | 0.00 | 0.00 | 70 | 1014.9 |
| 20260831041503 | 83 | 297 | 4.0 | 9.0 | 0.00 | 0.00 | 0.00 | 70 | 1014.9 |
| 20260831041403 | 83 | 297 | 4.0 | 8.0 | 0.00 | 0.00 | 0.00 | 70 | 1015.1 |
| 20260831041303 | 83 | 298 | 4.0 | 8.0 | 0.00 | 0.00 | 0.00 | 70 | 1015.1 |
| 20260831041203 | 83 | 299 | 4.0 | 8.0 | 0.00 | 0.00 | 0.00 | 70 | 1015.0 |
| 20260831041103 | 83 | 300 | 4.0 | 8.0 | 0.00 | 0.00 | 0.00 | 70 | 1015.0 |
| 20260831041003 | 83 | 299 | 3.0 | 7.0 | 0.00 | 0.00 | 0.00 | 70 | 1014.9 |
| 20260831040903 | 83 | 297 | 4.0 | 8.0 | 0.00 | 0.00 | 0.00 | 70 | 1015.0 |
| 20260831040803 | 83 | 297 | 4.0 | 8.0 | 0.00 | 0.00 | 0.00 | 70 | 1015.0 |
| 20260831040703 | 83 | 296 | 4.0 | 8.0 | 0.00 | 0.00 | 0.00 | 70 | 1015.1 |
| 20260831040603 | 83 | 296 | 4.0 | 8.0 | 0.00 | 0.00 | 0.00 | 70 | 1015.1 |
| 20260831040503 | 83 | 297 | 4.0 | 8.0 | 0.00 | 0.00 | 0.00 | 70 | 1015.1 |
| 20260831040403 | 83 | 297 | 4.0 | 8.0 | 0.00 | 0.00 | 0.00 | 70 | 1015.2 |
| 20260831040303 | 83 | 297 | 4.0 | 8.0 | 0.00 | 0.00 | 0.00 | 69 | 1015.1 |
| 20260831040203 | 83 | 296 | 4.0 | 9.0 | 0.00 | 0.00 | 0.00 | 69 | 1015.1 |
| 20260831040103 | 83 | 296 | 4.0 | 9.0 | 0.00 | 0.00 | 0.00 | 69 | 1015.1 |
| 20260831040003 | 83 | 296 | 4.0 | 9.0 | 0.00 | 0.00 | 0.00 | 69 | 1015.1 |
| 20260831035903 | 83 | 298 | 4.0 | 9.0 | 0.00 | 0.00 | 0.00 | 69 | 1015.1 |
| 20260831035803 | 83 | 298 | 4.0 | 9.0 | 0.00 | 0.00 | 0.00 | 69 | 1015.2 |
| 20260831035703 | 83 | 299 | 4.0 | 9.0 | 0.00 | 0.00 | 0.00 | 69 | 1015.1 |
| 20260831035603 | 83 | 299 | 4.0 | 9.0 | 0.00 | 0.00 | 0.00 | 69 | 1015.1 |
| 20260831035503 | 83 | 299 | 4.0 | 9.0 | 0.00 | 0.00 | 0.00 | 69 | 1015.2 |
| 20260831035403 | 83 | 299 | 4.0 | 9.0 | 0.00 | 0.00 | 0.00 | 69 | 1015.2 |
| 20260831035306 | 83 | 300 | 3.0 | 9.0 | 0.00 | 0.00 | 0.00 | 69 | 1015.2 |
| 20260831035203 | 83 | 301 | 3.0 | 9.0 | 0.00 | 0.00 | 0.00 | 69 | 1015.2 |
| 20260831035103 | 83 | 301 | 3.0 | 9.0 | 0.00 | 0.00 | 0.00 | 69 | 1015.1 |
| 20260831035003 | 83 | 303 | 3.0 | 9.0 | 0.00 | 0.00 | 0.00 | 69 | 1015.2 |
| 20260831034903 | 83 | 301 | 3.0 | 9.0 | 0.00 | 0.00 | 0.00 | 69 | 1015.2 |
| 20260831034803 | 83 | 301 | 3.0 | 9.0 | 0.00 | 0.00 | 0.00 | 69 | 1015.2 |
| 20260831034703 | 83 | 301 | 3.0 | 9.0 | 0.00 | 0.00 | 0.00 | 69 | 1015.2 |
| 20260831034603 | 83 | 301 | 3.0 | 9.0 | 0.00 | 0.00 | 0.00 | 69 | 1015.2 |
| 20260831034503 | 83 | 301 | 3.0 | 8.0 | 0.00 | 0.00 | 0.00 | 70 | 1015.2 |
| 20260831034403 | 83 | 301 | 3.0 | 8.0 | 0.00 | 0.00 | 0.00 | 69 | 1015.2 |
| 20260831034303 | 83 | 300 | 3.0 | 8.0 | 0.00 | 0.00 | 0.00 | 69 | 1015.1 |
| 20260831034203 | 83 | 302 | 4.0 | 10.0 | 0.00 | 0.00 | 0.00 | 69 | 1015.1 |
| 20260831034103 | 83 | 302 | 4.0 | 11.0 | 0.00 | 0.00 | 0.00 | 69 | 1015.2 |
| 20260831034003 | 83 | 301 | 5.0 | 11.0 | 0.00 | 0.00 | 0.00 | 69 | 1015.2 |
| 20260831033903 | 83 | 300 | 5.0 | 15.0 | 0.00 | 0.00 | 0.00 | 69 | 1015.2 |
| 20260831033803 | 83 | 301 | 5.0 | 15.0 | 0.00 | 0.00 | 0.00 | 69 | 1015.3 |
| 20260831033703 | 83 | 301 | 5.0 | 15.0 | 0.00 | 0.00 | 0.00 | 70 | 1015.2 |
| 20260831033603 | 83 | 300 | 5.0 | 15.0 | 0.00 | 0.00 | 0.00 | 70 | 1015.2 |
| 20260831033503 | 83 | 300 | 5.0 | 15.0 | 0.00 | 0.00 | 0.00 | 70 | 1015.3 |
| 20260831033403 | 83 | 302 | 5.0 | 15.0 | 0.00 | 0.00 | 0.00 | 70 | 1015.2 |
| 20260831033303 | 83 | 302 | 5.0 | 15.0 | 0.00 | 0.00 | 0.00 | 70 | 1015.2 |
| 20260831033204 | 83 | 301 | 5.0 | 15.0 | 0.00 | 0.00 | 0.00 | 70 | 1015.2 |
| 20260831033104 | 83 | 301 | 5.0 | 15.0 | 0.00 | 0.00 | 0.00 | 70 | 1015.2 |
| 20260831033004 | 83 | 301 | 4.0 | 15.0 | 0.00 | 0.00 | 0.00 | 71 | 1015.2 |
| 20260831032904 | 83 | 302 | 4.0 | 10.0 | 0.00 | 0.00 | 0.00 | 71 | 1015.3 |
| 20260831032804 | 83 | 300 | 3.0 | 10.0 | 0.00 | 0.00 | 0.00 | 71 | 1015.3 |
| 20260831032704 | 83 | 301 | 3.0 | 10.0 | 0.00 | 0.00 | 0.00 | 71 | 1015.3 |
| 20260831032604 | 83 | 304 | 3.0 | 10.0 | 0.00 | 0.00 | 0.00 | 71 | 1015.3 |
| 20260831032504 | 83 | 302 | 3.0 | 10.0 | 0.00 | 0.00 | 0.00 | 71 | 1015.3 |
| 20260831032404 | 83 | 300 | 3.0 | 10.0 | 0.00 | 0.00 | 0.00 | 71 | 1015.4 |
| 20260831032306 | 83 | 298 | 3.0 | 8.0 | 0.00 | 0.00 | 0.00 | 71 | 1015.3 |
| 20260831032204 | 83 | 299 | 3.0 | 7.0 | 0.00 | 0.00 | 0.00 | 71 | 1015.3 |
| 20260831032104 | 83 | 298 | 2.0 | 7.0 | 0.00 | 0.00 | 0.00 | 71 | 1015.3 |
| 20260831032004 | 83 | 298 | 2.0 | 7.0 | 0.00 | 0.00 | 0.00 | 71 | 1015.4 |
| 20260831031904 | 83 | 299 | 2.0 | 7.0 | 0.00 | 0.00 | 0.00 | 71 | 1015.5 |
| 20260831031804 | 83 | 299 | 3.0 | 7.0 | 0.00 | 0.00 | 0.00 | 71 | 1015.4 |
| 20260831031704 | 83 | 299 | 2.0 | 7.0 | 0.00 | 0.00 | 0.00 | 71 | 1015.4 |
| 20260831031604 | 83 | 299 | 3.0 | 7.0 | 0.00 | 0.00 | 0.00 | 71 | 1015.3 |
| 20260831031504 | 83 | 300 | 3.0 | 7.0 | 0.00 | 0.00 | 0.00 | 71 | 1015.4 |
| 20260831031404 | 83 | 300 | 3.0 | 7.0 | 0.00 | 0.00 | 0.00 | 71 | 1015.4 |
| 20260831031304 | 83 | 301 | 2.0 | 7.0 | 0.00 | 0.00 | 0.00 | 72 | 1015.3 |
| 20260831031204 | 83 | 300 | 3.0 | 7.0 | 0.00 | 0.00 | 0.00 | 72 | 1015.4 |
| 20260831031104 | 83 | 300 | 3.0 | 7.0 | 0.00 | 0.00 | 0.00 | 72 | 1015.4 |
| 20260831031004 | 83 | 300 | 3.0 | 7.0 | 0.00 | 0.00 | 0.00 | 72 | 1015.4 |
| 20260831030904 | 84 | 300 | 3.0 | 7.0 | 0.00 | 0.00 | 0.00 | 72 | 1015.5 |
| 20260831030804 | 84 | 301 | 3.0 | 7.0 | 0.00 | 0.00 | 0.00 | 72 | 1015.5 |
| 20260831030704 | 84 | 302 | 4.0 | 15.0 | 0.00 | 0.00 | 0.00 | 72 | 1015.5 |
| 20260831030604 | 84 | 301 | 4.0 | 15.0 | 0.00 | 0.00 | 0.00 | 72 | 1015.5 |
| 20260831030504 | 84 | 300 | 4.0 | 15.0 | 0.00 | 0.00 | 0.00 | 72 | 1015.5 |
| 20260831030404 | 84 | 302 | 3.0 | 15.0 | 0.00 | 0.00 | 0.00 | 72 | 1015.6 |
| 20260831030304 | 84 | 301 | 4.0 | 15.0 | 0.00 | 0.00 | 0.00 | 72 | 1015.6 |
| 20260831030204 | 84 | 302 | 3.0 | 15.0 | 0.00 | 0.00 | 0.00 | 72 | 1015.5 |
| 20260831030104 | 84 | 299 | 4.0 | 15.0 | 0.00 | 0.00 | 0.00 | 72 | 1015.6 |
| 20260831030004 | 84 | 299 | 4.0 | 15.0 | 0.00 | 0.00 | 0.00 | 72 | 1015.6 |
| 20260831025904 | 84 | 300 | 4.0 | 15.0 | 0.00 | 0.00 | 0.00 | 72 | 1015.6 |
| 20260831025804 | 84 | 299 | 4.0 | 15.0 | 0.00 | 0.00 | 0.00 | 72 | 1015.6 |
| 20260831025704 | 84 | 297 | 4.0 | 12.0 | 0.00 | 0.00 | 0.00 | 72 | 1015.5 |
| 20260831025604 | 84 | 297 | 4.0 | 11.0 | 0.00 | 0.00 | 0.00 | 72 | 1015.5 |
| 20260831025504 | 84 | 297 | 4.0 | 11.0 | 0.00 | 0.00 | 0.00 | 72 | 1015.5 |
| 20260831025404 | 84 | 297 | 4.0 | 11.0 | 0.00 | 0.00 | 0.00 | 72 | 1015.5 |
| 20260831025306 | 84 | 300 | 5.0 | 12.0 | 0.00 | 0.00 | 0.00 | 72 | 1015.6 |
| 20260831025204 | 84 | 301 | 5.0 | 12.0 | 0.00 | 0.00 | 0.00 | 72 | 1015.5 |
| 20260831025104 | 84 | 301 | 4.0 | 12.0 | 0.00 | 0.00 | 0.00 | 72 | 1015.6 |
| 20260831025004 | 84 | 305 | 4.0 | 12.0 | 0.00 | 0.00 | 0.00 | 72 | 1015.5 |
| 20260831024904 | 84 | 304 | 4.0 | 12.0 | 0.00 | 0.00 | 0.00 | 72 | 1015.5 |
| 20260831024804 | 84 | 304 | 4.0 | 12.0 | 0.00 | 0.00 | 0.00 | 72 | 1015.5 |
| 20260831024703 | 84 | 306 | 4.0 | 12.0 | 0.00 | 0.00 | 0.00 | 72 | 1015.5 |
| 20260831024603 | 84 | 307 | 4.0 | 12.0 | 0.00 | 0.00 | 0.00 | 72 | 1015.7 |
| 20260831024503 | 84 | 308 | 4.0 | 12.0 | 0.00 | 0.00 | 0.00 | 72 | 1015.6 |
| 20260831024403 | 84 | 308 | 4.0 | 12.0 | 0.00 | 0.00 | 0.00 | 72 | 1015.6 |
| 20260831024303 | 84 | 306 | 3.0 | 11.0 | 0.00 | 0.00 | 0.00 | 72 | 1015.5 |
| 20260831024203 | 84 | 305 | 3.0 | 11.0 | 0.00 | 0.00 | 0.00 | 72 | 1015.6 |
| 20260831024103 | 84 | 305 | 3.0 | 11.0 | 0.00 | 0.00 | 0.00 | 72 | 1015.5 |
| 20260831024003 | 84 | 303 | 4.0 | 11.0 | 0.00 | 0.00 | 0.00 | 72 | 1015.5 |
| 20260831023903 | 84 | 302 | 4.0 | 11.0 | 0.00 | 0.00 | 0.00 | 72 | 1015.4 |
| 20260831023803 | 84 | 303 | 3.0 | 11.0 | 0.00 | 0.00 | 0.00 | 72 | 1015.5 |
| 20260831023703 | 84 | 300 | 3.0 | 9.0 | 0.00 | 0.00 | 0.00 | 72 | 1015.5 |
| 20260831023603 | 84 | 299 | 3.0 | 9.0 | 0.00 | 0.00 | 0.00 | 72 | 1015.5 |
| 20260831023503 | 84 | 297 | 3.0 | 9.0 | 0.00 | 0.00 | 0.00 | 72 | 1015.4 |
| 20260831023403 | 84 | 297 | 3.0 | 9.0 | 0.00 | 0.00 | 0.00 | 72 | 1015.5 |
| 20260831023303 | 84 | 298 | 3.0 | 9.0 | 0.00 | 0.00 | 0.00 | 72 | 1015.7 |
| 20260831023203 | 84 | 298 | 3.0 | 9.0 | 0.00 | 0.00 | 0.00 | 72 | 1015.7 |
| 20260831023103 | 84 | 298 | 3.0 | 9.0 | 0.00 | 0.00 | 0.00 | 72 | 1015.8 |
| 20260831023003 | 84 | 298 | 3.0 | 8.0 | 0.00 | 0.00 | 0.00 | 72 | 1015.8 |
| 20260831022903 | 84 | 299 | 2.0 | 7.0 | 0.00 | 0.00 | 0.00 | 72 | 1015.7 |
| 20260831022803 | 84 | 299 | 2.0 | 7.0 | 0.00 | 0.00 | 0.00 | 72 | 1015.7 |
| 20260831022703 | 84 | 298 | 3.0 | 10.0 | 0.00 | 0.00 | 0.00 | 72 | 1015.8 |
| 20260831022603 | 84 | 299 | 2.0 | 10.0 | 0.00 | 0.00 | 0.00 | 72 | 1015.7 |
| 20260831022503 | 84 | 300 | 2.0 | 10.0 | 0.00 | 0.00 | 0.00 | 72 | 1015.8 |
| 20260831022403 | 84 | 299 | 2.0 | 10.0 | 0.00 | 0.00 | 0.00 | 72 | 1015.8 |
| 20260831022306 | 84 | 297 | 2.0 | 10.0 | 0.00 | 0.00 | 0.00 | 72 | 1015.8 |
| 20260831022203 | 84 | 299 | 2.0 | 10.0 | 0.00 | 0.00 | 0.00 | 72 | 1015.7 |
| 20260831022103 | 84 | 299 | 3.0 | 13.0 | 0.00 | 0.00 | 0.00 | 72 | 1015.7 |
| 20260831022003 | 84 | 298 | 3.0 | 13.0 | 0.00 | 0.00 | 0.00 | 72 | 1015.8 |
| 20260831021903 | 84 | 298 | 3.0 | 13.0 | 0.00 | 0.00 | 0.00 | 72 | 1015.7 |
| 20260831021803 | 84 | 298 | 3.0 | 13.0 | 0.00 | 0.00 | 0.00 | 72 | 1015.7 |
| 20260831021703 | 84 | 299 | 3.0 | 13.0 | 0.00 | 0.00 | 0.00 | 72 | 1015.6 |
| 20260831021603 | 84 | 298 | 3.0 | 13.0 | 0.00 | 0.00 | 0.00 | 72 | 1015.7 |
| 20260831021503 | 84 | 299 | 3.0 | 13.0 | 0.00 | 0.00 | 0.00 | 72 | 1015.7 |
| 20260831021403 | 84 | 299 | 3.0 | 13.0 | 0.00 | 0.00 | 0.00 | 72 | 1015.7 |
| 20260831021303 | 84 | 300 | 3.0 | 13.0 | 0.00 | 0.00 | 0.00 | 72 | 1015.6 |
| 20260831021203 | 84 | 300 | 3.0 | 13.0 | 0.00 | 0.00 | 0.00 | 72 | 1015.6 |
| 20260831021103 | 84 | 298 | 3.0 | 9.0 | 0.00 | 0.00 | 0.00 | 72 | 1015.8 |
| 20260831021003 | 84 | 301 | 2.0 | 9.0 | 0.00 | 0.00 | 0.00 | 72 | 1015.7 |
| 20260831020903 | 84 | 300 | 3.0 | 9.0 | 0.00 | 0.00 | 0.00 | 72 | 1015.7 |
| 20260831020803 | 84 | 299 | 4.0 | 10.0 | 0.00 | 0.00 | 0.00 | 72 | 1015.7 |
| 20260831020703 | 84 | 300 | 4.0 | 10.0 | 0.00 | 0.00 | 0.00 | 72 | 1015.7 |
| 20260831020603 | 84 | 300 | 4.0 | 10.0 | 0.00 | 0.00 | 0.00 | 72 | 1015.7 |
| 20260831020503 | 84 | 301 | 3.0 | 10.0 | 0.00 | 0.00 | 0.00 | 72 | 1015.5 |
| 20260831020403 | 84 | 301 | 4.0 | 10.0 | 0.00 | 0.00 | 0.00 | 72 | 1015.6 |
| 20260831020303 | 84 | 301 | 3.0 | 10.0 | 0.00 | 0.00 | 0.00 | 72 | 1015.6 |
| 20260831020203 | 84 | 300 | 3.0 | 10.0 | 0.00 | 0.00 | 0.00 | 72 | 1015.6 |
| 20260831020103 | 84 | 300 | 3.0 | 10.0 | 0.00 | 0.00 | 0.00 | 72 | 1015.7 |
| 20260831020003 | 84 | 300 | 3.0 | 10.0 | 0.00 | 0.00 | 0.00 | 72 | 1015.7 |
| 20260831015903 | 84 | 299 | 3.0 | 10.0 | 0.00 | 0.00 | 0.00 | 72 | 1015.7 |
| 20260831015803 | 84 | 298 | 2.0 | 9.0 | 0.00 | 0.00 | 0.00 | 72 | 1015.7 |
| 20260831015703 | 84 | 299 | 2.0 | 9.0 | 0.00 | 0.00 | 0.00 | 72 | 1015.8 |
| 20260831015603 | 84 | 298 | 3.0 | 9.0 | 0.00 | 0.00 | 0.00 | 72 | 1015.7 |
| 20260831015503 | 84 | 298 | 3.0 | 9.0 | 0.00 | 0.00 | 0.00 | 72 | 1015.7 |
| 20260831015403 | 84 | 298 | 3.0 | 9.0 | 0.00 | 0.00 | 0.00 | 72 | 1015.6 |
| 20260831015305 | 84 | 297 | 3.0 | 9.0 | 0.00 | 0.00 | 0.00 | 72 | 1015.7 |
| 20260831015203 | 84 | 298 | 4.0 | 9.0 | 0.00 | 0.00 | 0.00 | 72 | 1015.6 |
| 20260831015103 | 84 | 299 | 4.0 | 9.0 | 0.00 | 0.00 | 0.00 | 72 | 1015.6 |
| 20260831015003 | 84 | 300 | 4.0 | 9.0 | 0.00 | 0.00 | 0.00 | 72 | 1015.7 |
| 20260831014903 | 84 | 302 | 4.0 | 11.0 | 0.00 | 0.00 | 0.00 | 72 | 1015.6 |
| 20260831014803 | 84 | 302 | 4.0 | 11.0 | 0.00 | 0.00 | 0.00 | 72 | 1015.6 |
| 20260831014703 | 84 | 301 | 4.0 | 11.0 | 0.00 | 0.00 | 0.00 | 72 | 1015.6 |
| 20260831014603 | 84 | 302 | 4.0 | 11.0 | 0.00 | 0.00 | 0.00 | 72 | 1015.7 |
| 20260831014503 | 84 | 303 | 4.0 | 11.0 | 0.00 | 0.00 | 0.00 | 72 | 1015.7 |
| 20260831014403 | 84 | 302 | 4.0 | 11.0 | 0.00 | 0.00 | 0.00 | 72 | 1015.6 |
| 20260831014303 | 84 | 302 | 4.0 | 11.0 | 0.00 | 0.00 | 0.00 | 72 | 1015.7 |
| 20260831014203 | 84 | 303 | 4.0 | 11.0 | 0.00 | 0.00 | 0.00 | 72 | 1015.7 |
| 20260831014103 | 84 | 302 | 4.0 | 11.0 | 0.00 | 0.00 | 0.00 | 72 | 1015.6 |
| 20260831014003 | 84 | 301 | 4.0 | 11.0 | 0.00 | 0.00 | 0.00 | 72 | 1015.5 |
| 20260831013903 | 84 | 299 | 3.0 | 11.0 | 0.00 | 0.00 | 0.00 | 72 | 1015.5 |
| 20260831013803 | 84 | 299 | 3.0 | 11.0 | 0.00 | 0.00 | 0.00 | 72 | 1015.6 |
| 20260831013703 | 84 | 299 | 3.0 | 11.0 | 0.00 | 0.00 | 0.00 | 72 | 1015.5 |
| 20260831013603 | 84 | 299 | 3.0 | 11.0 | 0.00 | 0.00 | 0.00 | 72 | 1015.6 |
| 20260831013503 | 84 | 297 | 3.0 | 8.0 | 0.00 | 0.00 | 0.00 | 72 | 1015.6 |
| 20260831013403 | 84 | 298 | 2.0 | 7.0 | 0.00 | 0.00 | 0.00 | 72 | 1015.7 |
| 20260831013303 | 84 | 298 | 2.0 | 7.0 | 0.00 | 0.00 | 0.00 | 72 | 1015.7 |
| 20260831013203 | 84 | 296 | 2.0 | 7.0 | 0.00 | 0.00 | 0.00 | 72 | 1015.6 |
| 20260831013103 | 84 | 296 | 2.0 | 7.0 | 0.00 | 0.00 | 0.00 | 72 | 1015.6 |
| 20260831013003 | 84 | 295 | 2.0 | 8.0 | 0.00 | 0.00 | 0.00 | 72 | 1015.6 |
| 20260831012903 | 84 | 295 | 2.0 | 8.0 | 0.00 | 0.00 | 0.00 | 72 | 1015.6 |
| 20260831012804 | 84 | 296 | 2.0 | 8.0 | 0.00 | 0.00 | 0.00 | 72 | 1015.6 |
| 20260831012704 | 84 | 297 | 2.0 | 8.0 | 0.00 | 0.00 | 0.00 | 72 | 1015.6 |
| 20260831012604 | 84 | 296 | 3.0 | 8.0 | 0.00 | 0.00 | 0.00 | 72 | 1015.6 |
| 20260831012504 | 84 | 297 | 3.0 | 8.0 | 0.00 | 0.00 | 0.00 | 72 | 1015.6 |
| 20260831012404 | 84 | 297 | 3.0 | 8.0 | 0.00 | 0.00 | 0.00 | 72 | 1015.6 |
| 20260831012306 | 84 | 297 | 3.0 | 8.0 | 0.00 | 0.00 | 0.00 | 72 | 1015.6 |
| 20260831012204 | 84 | 298 | 3.0 | 8.0 | 0.00 | 0.00 | 0.00 | 72 | 1015.5 |
| 20260831012104 | 84 | 299 | 2.0 | 8.0 | 0.00 | 0.00 | 0.00 | 72 | 1015.5 |
| 20260831012004 | 84 | 300 | 2.0 | 7.0 | 0.00 | 0.00 | 0.00 | 72 | 1015.5 |
| 20260831011904 | 84 | 300 | 2.0 | 7.0 | 0.00 | 0.00 | 0.00 | 72 | 1015.6 |
| 20260831011804 | 84 | 300 | 2.0 | 8.0 | 0.00 | 0.00 | 0.00 | 72 | 1015.6 |
| 20260831011704 | 84 | 299 | 3.0 | 8.0 | 0.00 | 0.00 | 0.00 | 72 | 1015.5 |
| 20260831011604 | 84 | 301 | 3.0 | 8.0 | 0.00 | 0.00 | 0.00 | 72 | 1015.6 |
| 20260831011504 | 84 | 301 | 3.0 | 8.0 | 0.00 | 0.00 | 0.00 | 72 | 1015.6 |
| 20260831011404 | 84 | 303 | 3.0 | 10.0 | 0.00 | 0.00 | 0.00 | 72 | 1015.6 |
| 20260831011304 | 84 | 302 | 4.0 | 10.0 | 0.00 | 0.00 | 0.00 | 72 | 1015.6 |
| 20260831011204 | 84 | 301 | 4.0 | 10.0 | 0.00 | 0.00 | 0.00 | 72 | 1015.7 |
| 20260831011104 | 84 | 302 | 4.0 | 10.0 | 0.00 | 0.00 | 0.00 | 72 | 1015.7 |
| 20260831011004 | 84 | 301 | 4.0 | 10.0 | 0.00 | 0.00 | 0.00 | 72 | 1015.6 |
| 20260831010904 | 84 | 302 | 4.0 | 10.0 | 0.00 | 0.00 | 0.00 | 72 | 1015.6 |
| 20260831010804 | 84 | 302 | 4.0 | 10.0 | 0.00 | 0.00 | 0.00 | 72 | 1015.6 |
| 20260831010704 | 84 | 302 | 4.0 | 10.0 | 0.00 | 0.00 | 0.00 | 72 | 1015.6 |
| 20260831010604 | 84 | 302 | 4.0 | 10.0 | 0.00 | 0.00 | 0.00 | 72 | 1015.6 |
| 20260831010504 | 84 | 300 | 3.0 | 10.0 | 0.00 | 0.00 | 0.00 | 72 | 1015.7 |
| 20260831010404 | 84 | 299 | 2.0 | 8.0 | 0.00 | 0.00 | 0.00 | 72 | 1015.6 |
| 20260831010304 | 84 | 299 | 2.0 | 9.0 | 0.00 | 0.00 | 0.00 | 72 | 1015.5 |
| 20260831010204 | 84 | 297 | 2.0 | 9.0 | 0.00 | 0.00 | 0.00 | 72 | 1015.7 |
| 20260831010104 | 84 | 298 | 2.0 | 9.0 | 0.00 | 0.00 | 0.00 | 72 | 1015.6 |
| 20260831010004 | 84 | 298 | 2.0 | 9.0 | 0.00 | 0.00 | 0.00 | 72 | 1015.6 |
| 20260831005904 | 84 | 299 | 2.0 | 9.0 | 0.00 | 0.00 | 0.00 | 72 | 1015.7 |
| 20260831005804 | 84 | 301 | 3.0 | 9.0 | 0.00 | 0.00 | 0.00 | 72 | 1015.6 |
| 20260831005704 | 84 | 299 | 3.0 | 9.0 | 0.00 | 0.00 | 0.00 | 72 | 1015.6 |
| 20260831005604 | 84 | 299 | 3.0 | 9.0 | 0.00 | 0.00 | 0.00 | 72 | 1015.6 |
| 20260831005504 | 84 | 299 | 3.0 | 9.0 | 0.00 | 0.00 | 0.00 | 72 | 1015.6 |
| 20260831005404 | 84 | 297 | 3.0 | 9.0 | 0.00 | 0.00 | 0.00 | 72 | 1015.7 |
| 20260831005306 | 84 | 298 | 3.0 | 8.0 | 0.00 | 0.00 | 0.00 | 72 | 1015.8 |
| 20260831005204 | 84 | 299 | 3.0 | 8.0 | 0.00 | 0.00 | 0.00 | 73 | 1015.7 |
| 20260831005104 | 84 | 299 | 3.0 | 8.0 | 0.00 | 0.00 | 0.00 | 73 | 1015.7 |
| 20260831005004 | 84 | 298 | 3.0 | 8.0 | 0.00 | 0.00 | 0.00 | 73 | 1015.7 |
| 20260831004904 | 84 | 296 | 2.0 | 8.0 | 0.00 | 0.00 | 0.00 | 73 | 1015.8 |
| 20260831004803 | 84 | 295 | 2.0 | 7.0 | 0.00 | 0.00 | 0.00 | 73 | 1015.8 |
| 20260831004704 | 84 | 298 | 2.0 | 6.0 | 0.00 | 0.00 | 0.00 | 73 | 1015.7 |
| 20260831004603 | 84 | 298 | 2.0 | 7.0 | 0.00 | 0.00 | 0.00 | 73 | 1015.6 |
| 20260831004504 | 84 | 297 | 2.0 | 7.0 | 0.00 | 0.00 | 0.00 | 73 | 1015.8 |
| 20260831004404 | 84 | 298 | 2.0 | 7.0 | 0.00 | 0.00 | 0.00 | 73 | 1015.8 |
| 20260831004303 | 84 | 297 | 2.0 | 7.0 | 0.00 | 0.00 | 0.00 | 73 | 1015.8 |
| 20260831004203 | 84 | 298 | 2.0 | 7.0 | 0.00 | 0.00 | 0.00 | 73 | 1015.7 |
| 20260831004103 | 84 | 297 | 2.0 | 7.0 | 0.00 | 0.00 | 0.00 | 73 | 1015.7 |
| 20260831004003 | 84 | 297 | 3.0 | 7.0 | 0.00 | 0.00 | 0.00 | 73 | 1015.6 |
| 20260831003903 | 84 | 297 | 3.0 | 7.0 | 0.00 | 0.00 | 0.00 | 73 | 1015.7 |
| 20260831003803 | 84 | 297 | 3.0 | 7.0 | 0.00 | 0.00 | 0.00 | 73 | 1015.7 |
| 20260831003703 | 84 | 295 | 3.0 | 7.0 | 0.00 | 0.00 | 0.00 | 73 | 1015.7 |
| 20260831003603 | 84 | 295 | 2.0 | 7.0 | 0.00 | 0.00 | 0.00 | 73 | 1015.8 |
| 20260831003503 | 84 | 295 | 2.0 | 6.0 | 0.00 | 0.00 | 0.00 | 73 | 1015.9 |
| 20260831003403 | 84 | 295 | 2.0 | 6.0 | 0.00 | 0.00 | 0.00 | 73 | 1015.7 |
| 20260831003303 | 84 | 295 | 2.0 | 6.0 | 0.00 | 0.00 | 0.00 | 73 | 1015.8 |
| 20260831003203 | 84 | 295 | 1.0 | 6.0 | 0.00 | 0.00 | 0.00 | 73 | 1015.7 |
| 20260831003103 | 84 | 296 | 1.0 | 4.0 | 0.00 | 0.00 | 0.00 | 73 | 1015.6 |
| 20260831003003 | 84 | 299 | 1.0 | 4.0 | 0.00 | 0.00 | 0.00 | 73 | 1015.7 |
| 20260831002903 | 84 | 301 | 1.0 | 4.0 | 0.00 | 0.00 | 0.00 | 73 | 1015.8 |
| 20260831002803 | 84 | 298 | 1.0 | 7.0 | 0.00 | 0.00 | 0.00 | 73 | 1015.8 |
| 20260831002703 | 84 | 295 | 1.0 | 10.0 | 0.00 | 0.00 | 0.00 | 73 | 1015.8 |
| 20260831002603 | 84 | 295 | 1.0 | 10.0 | 0.00 | 0.00 | 0.00 | 73 | 1015.8 |
| 20260831002503 | 84 | 297 | 2.0 | 10.0 | 0.00 | 0.00 | 0.00 | 73 | 1015.7 |
| 20260831002403 | 84 | 296 | 2.0 | 10.0 | 0.00 | 0.00 | 0.00 | 73 | 1015.8 |
| 20260831002306 | 84 | 295 | 1.0 | 10.0 | 0.00 | 0.00 | 0.00 | 73 | 1015.6 |
| 20260831002203 | 84 | 295 | 2.0 | 10.0 | 0.00 | 0.00 | 0.00 | 73 | 1015.7 |
| 20260831002103 | 84 | 297 | 2.0 | 10.0 | 0.00 | 0.00 | 0.00 | 73 | 1015.8 |
| 20260831002003 | 84 | 297 | 2.0 | 10.0 | 0.00 | 0.00 | 0.00 | 73 | 1015.8 |
| 20260831001903 | 84 | 296 | 2.0 | 10.0 | 0.00 | 0.00 | 0.00 | 74 | 1015.7 |
| 20260831001803 | 84 | 296 | 2.0 | 10.0 | 0.00 | 0.00 | 0.00 | 73 | 1015.8 |
| 20260831001703 | 84 | 299 | 2.0 | 7.0 | 0.00 | 0.00 | 0.00 | 74 | 1015.8 |
| 20260831001603 | 85 | 297 | 2.0 | 9.0 | 0.00 | 0.00 | 0.00 | 74 | 1015.7 |
| 20260831001503 | 84 | 298 | 2.0 | 9.0 | 0.00 | 0.00 | 0.00 | 74 | 1015.8 |
| 20260831001403 | 84 | 301 | 3.0 | 9.0 | 0.00 | 0.00 | 0.00 | 74 | 1015.7 |
| 20260831001303 | 84 | 303 | 3.0 | 9.0 | 0.00 | 0.00 | 0.00 | 74 | 1015.7 |
| 20260831001203 | 85 | 302 | 3.0 | 11.0 | 0.00 | 0.00 | 0.00 | 74 | 1015.8 |
| 20260831001103 | 84 | 302 | 3.0 | 11.0 | 0.00 | 0.00 | 0.00 | 74 | 1015.7 |
| 20260831001003 | 85 | 303 | 3.0 | 11.0 | 0.00 | 0.00 | 0.00 | 74 | 1015.8 |
| 20260831000903 | 85 | 303 | 3.0 | 11.0 | 0.00 | 0.00 | 0.00 | 74 | 1016.0 |
| 20260831000803 | 85 | 305 | 3.0 | 11.0 | 0.00 | 0.00 | 0.00 | 74 | 1016.0 |
| 20260831000703 | 85 | 304 | 3.0 | 11.0 | 0.00 | 0.00 | 0.00 | 74 | 1016.1 |
| 20260831000603 | 85 | 306 | 3.0 | 11.0 | 0.00 | 0.00 | 0.00 | 74 | 1015.9 |
| 20260831000503 | 85 | 302 | 3.0 | 11.0 | 0.00 | 0.00 | 0.00 | 74 | 1016.0 |
| 20260831000403 | 85 | 300 | 3.0 | 11.0 | 0.00 | 0.00 | 0.00 | 74 | 1016.0 |
| 20260831000303 | 85 | 297 | 3.0 | 11.0 | 0.00 | 0.00 | 0.00 | 74 | 1016.0 |
| 20260831000204 | 85 | 298 | 2.0 | 10.0 | 0.00 | 0.00 | 0.00 | 74 | 1015.9 |
| 20260831000103 | 85 | 297 | 3.0 | 10.0 | 0.00 | 0.00 | 0.00 | 74 | 1015.9 |
| 20260831000003 | 85 | 297 | 3.0 | 10.0 | 0.00 | 0.00 | 0.00 | 74 | 1015.9 |
| 20260830235903 | 85 | 297 | 3.0 | 10.0 | 0.00 | 0.00 | 0.00 | 74 | 1015.9 |
| 20260830235803 | 85 | 297 | 3.0 | 10.0 | 0.00 | 0.00 | 0.00 | 74 | 1015.9 |
| 20260830235703 | 85 | 297 | 3.0 | 10.0 | 0.00 | 0.00 | 0.00 | 74 | 1015.8 |
| 20260830235603 | 85 | 297 | 3.0 | 10.0 | 0.00 | 0.00 | 0.00 | 74 | 1015.8 |
| 20260830235503 | 85 | 297 | 3.0 | 8.0 | 0.00 | 0.00 | 0.00 | 74 | 1015.8 |
| 20260830235403 | 85 | 297 | 3.0 | 8.0 | 0.00 | 0.00 | 0.00 | 74 | 1015.9 |
| 20260830235305 | 85 | 297 | 3.0 | 8.0 | 0.00 | 0.00 | 0.00 | 74 | 1015.8 |
| 20260830235203 | 85 | 298 | 4.0 | 9.0 | 0.00 | 0.00 | 0.00 | 74 | 1015.8 |
| 20260830235103 | 85 | 299 | 4.0 | 9.0 | 0.00 | 0.00 | 0.00 | 74 | 1015.8 |
| 20260830235003 | 85 | 299 | 4.0 | 9.0 | 0.00 | 0.00 | 0.00 | 74 | 1015.8 |
| 20260830234903 | 85 | 300 | 4.0 | 9.0 | 0.00 | 0.00 | 0.00 | 74 | 1015.8 |
| 20260830234803 | 85 | 301 | 4.0 | 9.0 | 0.00 | 0.00 | 0.00 | 74 | 1015.8 |
| 20260830234703 | 85 | 301 | 4.0 | 9.0 | 0.00 | 0.00 | 0.00 | 74 | 1015.7 |
| 20260830234603 | 85 | 300 | 4.0 | 9.0 | 0.00 | 0.00 | 0.00 | 74 | 1015.8 |
| 20260830234503 | 85 | 300 | 3.0 | 9.0 | 0.00 | 0.00 | 0.00 | 74 | 1015.7 |
| 20260830234403 | 85 | 301 | 3.0 | 9.0 | 0.00 | 0.00 | 0.00 | 74 | 1015.8 |
| 20260830234303 | 85 | 302 | 4.0 | 9.0 | 0.00 | 0.00 | 0.00 | 74 | 1015.7 |
| 20260830234203 | 85 | 300 | 3.0 | 9.0 | 0.00 | 0.00 | 0.00 | 74 | 1015.6 |
| 20260830234103 | 85 | 300 | 3.0 | 9.0 | 0.00 | 0.00 | 0.00 | 73 | 1015.7 |
| 20260830234003 | 85 | 302 | 3.0 | 9.0 | 0.00 | 0.00 | 0.00 | 73 | 1015.7 |
| 20260830233903 | 85 | 302 | 3.0 | 9.0 | 0.00 | 0.00 | 0.00 | 73 | 1015.7 |
| 20260830233803 | 85 | 300 | 4.0 | 9.0 | 0.00 | 0.00 | 0.00 | 73 | 1015.7 |
| 20260830233703 | 85 | 301 | 4.0 | 9.0 | 0.00 | 0.00 | 0.00 | 73 | 1015.6 |
| 20260830233603 | 85 | 302 | 4.0 | 9.0 | 0.00 | 0.00 | 0.00 | 73 | 1015.7 |
| 20260830233503 | 85 | 304 | 4.0 | 9.0 | 0.00 | 0.00 | 0.00 | 73 | 1015.7 |
| 20260830233403 | 85 | 303 | 4.0 | 9.0 | 0.00 | 0.00 | 0.00 | 73 | 1015.7 |
| 20260830233303 | 85 | 303 | 3.0 | 8.0 | 0.00 | 0.00 | 0.00 | 73 | 1015.7 |
| 20260830233203 | 85 | 304 | 3.0 | 8.0 | 0.00 | 0.00 | 0.00 | 73 | 1015.6 |
| 20260830233103 | 85 | 304 | 3.0 | 8.0 | 0.00 | 0.00 | 0.00 | 73 | 1015.7 |
| 20260830233003 | 85 | 303 | 3.0 | 8.0 | 0.00 | 0.00 | 0.00 | 73 | 1015.6 |
| 20260830232903 | 85 | 302 | 3.0 | 8.0 | 0.00 | 0.00 | 0.00 | 73 | 1015.7 |
| 20260830232803 | 85 | 303 | 3.0 | 8.0 | 0.00 | 0.00 | 0.00 | 73 | 1015.7 |
| 20260830232703 | 85 | 301 | 3.0 | 8.0 | 0.00 | 0.00 | 0.00 | 73 | 1015.7 |
| 20260830232603 | 85 | 300 | 3.0 | 10.0 | 0.00 | 0.00 | 0.00 | 73 | 1015.6 |
| 20260830232503 | 85 | 298 | 3.0 | 10.0 | 0.00 | 0.00 | 0.00 | 73 | 1015.7 |
| 20260830232403 | 85 | 299 | 3.0 | 10.0 | 0.00 | 0.00 | 0.00 | 73 | 1015.6 |
| 20260830232305 | 85 | 299 | 4.0 | 11.0 | 0.00 | 0.00 | 0.00 | 73 | 1015.7 |
| 20260830232203 | 85 | 299 | 4.0 | 11.0 | 0.00 | 0.00 | 0.00 | 73 | 1015.7 |
| 20260830232103 | 85 | 299 | 4.0 | 11.0 | 0.00 | 0.00 | 0.00 | 73 | 1015.7 |
| 20260830232003 | 85 | 299 | 4.0 | 11.0 | 0.00 | 0.00 | 0.00 | 73 | 1015.7 |
| 20260830231903 | 85 | 298 | 4.0 | 11.0 | 0.00 | 0.00 | 0.00 | 73 | 1015.8 |
| 20260830231803 | 85 | 298 | 4.0 | 11.0 | 0.00 | 0.00 | 0.00 | 73 | 1015.8 |
| 20260830231703 | 85 | 298 | 4.0 | 11.0 | 0.00 | 0.00 | 0.00 | 73 | 1015.8 |
| 20260830231603 | 85 | 300 | 4.0 | 11.0 | 0.00 | 0.00 | 0.00 | 73 | 1015.8 |
| 20260830231503 | 85 | 300 | 4.0 | 11.0 | 0.00 | 0.00 | 0.00 | 73 | 1015.7 |
| 20260830231403 | 85 | 299 | 4.0 | 11.0 | 0.00 | 0.00 | 0.00 | 73 | 1015.8 |
| 20260830231303 | 85 | 297 | 3.0 | 6.0 | 0.00 | 0.00 | 0.00 | 73 | 1015.8 |
| 20260830231003 | 85 | 297 | 3.0 | 7.0 | 0.00 | 0.00 | 0.00 | 73 | 1015.7 |
| 20260830230903 | 85 | 295 | 3.0 | 7.0 | 0.00 | 0.00 | 0.00 | 73 | 1015.7 |
| 20260830230803 | 85 | 294 | 3.0 | 7.0 | 0.00 | 0.00 | 0.00 | 73 | 1015.7 |
| 20260830230703 | 85 | 297 | 3.0 | 6.0 | 0.00 | 0.00 | 0.00 | 73 | 1015.8 |
| 20260830230603 | 85 | 298 | 3.0 | 8.0 | 0.00 | 0.00 | 0.00 | 73 | 1015.8 |
| 20260830230503 | 85 | 298 | 3.0 | 8.0 | 0.00 | 0.00 | 0.00 | 73 | 1015.8 |
| 20260830230403 | 85 | 300 | 3.0 | 8.0 | 0.00 | 0.00 | 0.00 | 73 | 1015.8 |
| 20260830230303 | 85 | 300 | 3.0 | 8.0 | 0.00 | 0.00 | 0.00 | 74 | 1015.8 |
| 20260830230204 | 85 | 299 | 3.0 | 8.0 | 0.00 | 0.00 | 0.00 | 74 | 1015.8 |
| 20260830230103 | 85 | 298 | 3.0 | 8.0 | 0.00 | 0.00 | 0.00 | 74 | 1015.7 |
| 20260830230004 | 85 | 298 | 3.0 | 8.0 | 0.00 | 0.00 | 0.00 | 74 | 1015.6 |
| 20260830225903 | 85 | 300 | 3.0 | 8.0 | 0.00 | 0.00 | 0.00 | 74 | 1015.6 |
| 20260830225803 | 85 | 299 | 3.0 | 8.0 | 0.00 | 0.00 | 0.00 | 74 | 1015.7 |
| 20260830225703 | 86 | 300 | 3.0 | 8.0 | 0.00 | 0.00 | 0.00 | 74 | 1015.7 |
| 20260830225603 | 86 | 299 | 3.0 | 8.0 | 0.00 | 0.00 | 0.00 | 74 | 1015.6 |
| 20260830225503 | 85 | 299 | 3.0 | 8.0 | 0.00 | 0.00 | 0.00 | 74 | 1015.7 |
| 20260830225403 | 86 | 297 | 3.0 | 8.0 | 0.00 | 0.00 | 0.00 | 74 | 1015.7 |
| 20260830225305 | 86 | 297 | 3.0 | 8.0 | 0.00 | 0.00 | 0.00 | 74 | 1015.6 |
| 20260830225203 | 86 | 296 | 3.0 | 10.0 | 0.00 | 0.00 | 0.00 | 74 | 1015.6 |
| 20260830225103 | 86 | 297 | 3.0 | 10.0 | 0.00 | 0.00 | 0.00 | 74 | 1015.6 |
| 20260830225003 | 86 | 297 | 3.0 | 10.0 | 0.00 | 0.00 | 0.00 | 74 | 1015.6 |
| 20260830224903 | 85 | 295 | 3.0 | 10.0 | 0.00 | 0.00 | 0.00 | 74 | 1015.6 |
| 20260830224803 | 85 | 297 | 3.0 | 10.0 | 0.00 | 0.00 | 0.00 | 74 | 1015.6 |
| 20260830224703 | 85 | 295 | 4.0 | 11.0 | 0.00 | 0.00 | 0.00 | 74 | 1015.6 |
| 20260830224603 | 85 | 295 | 4.0 | 11.0 | 0.00 | 0.00 | 0.00 | 74 | 1015.6 |
| 20260830224503 | 85 | 296 | 4.0 | 11.0 | 0.00 | 0.00 | 0.00 | 75 | 1015.6 |
| 20260830224403 | 86 | 296 | 5.0 | 11.0 | 0.00 | 0.00 | 0.00 | 75 | 1015.7 |
| 20260830224303 | 85 | 297 | 5.0 | 11.0 | 0.00 | 0.00 | 0.00 | 75 | 1015.6 |
| 20260830224203 | 85 | 298 | 5.0 | 11.0 | 0.00 | 0.00 | 0.00 | 75 | 1015.6 |
| 20260830224103 | 86 | 297 | 5.0 | 11.0 | 0.00 | 0.00 | 0.00 | 75 | 1015.6 |
| 20260830224003 | 86 | 298 | 5.0 | 11.0 | 0.00 | 0.00 | 0.00 | 75 | 1015.6 |
| 20260830223903 | 86 | 298 | 5.0 | 11.0 | 0.00 | 0.00 | 0.00 | 75 | 1015.6 |
| 20260830223803 | 86 | 297 | 5.0 | 11.0 | 0.00 | 0.00 | 0.00 | 75 | 1015.6 |
| 20260830223703 | 86 | 300 | 5.0 | 10.0 | 0.00 | 0.00 | 0.00 | 75 | 1015.6 |
| 20260830223603 | 86 | 301 | 5.0 | 10.0 | 0.00 | 0.00 | 0.00 | 75 | 1015.6 |
| 20260830223503 | 86 | 301 | 5.0 | 10.0 | 0.00 | 0.00 | 0.00 | 75 | 1015.5 |
| 20260830223403 | 86 | 301 | 5.0 | 10.0 | 0.00 | 0.00 | 0.00 | 75 | 1015.6 |
| 20260830223303 | 86 | 301 | 4.0 | 10.0 | 0.00 | 0.00 | 0.00 | 75 | 1015.6 |
| 20260830223203 | 86 | 302 | 4.0 | 10.0 | 0.00 | 0.00 | 0.00 | 75 | 1015.5 |
| 20260830223103 | 86 | 302 | 4.0 | 10.0 | 0.00 | 0.00 | 0.00 | 75 | 1015.5 |
| 20260830223004 | 86 | 303 | 4.0 | 10.0 | 0.00 | 0.00 | 0.00 | 75 | 1015.5 |
| 20260830222903 | 86 | 304 | 4.0 | 10.0 | 0.00 | 0.00 | 0.00 | 75 | 1015.5 |
| 20260830222803 | 86 | 304 | 4.0 | 9.0 | 0.00 | 0.00 | 0.00 | 75 | 1015.5 |
| 20260830222703 | 86 | 303 | 4.0 | 10.0 | 0.00 | 0.00 | 0.00 | 75 | 1015.5 |
| 20260830222603 | 86 | 300 | 4.0 | 10.0 | 0.00 | 0.00 | 0.00 | 75 | 1015.5 |
| 20260830222503 | 86 | 301 | 4.0 | 10.0 | 0.00 | 0.00 | 0.00 | 75 | 1015.4 |
| 20260830222403 | 86 | 300 | 4.0 | 10.0 | 0.00 | 0.00 | 0.00 | 75 | 1015.5 |
| 20260830222306 | 86 | 299 | 4.0 | 10.0 | 0.00 | 0.00 | 0.00 | 75 | 1015.5 |
| 20260830222203 | 86 | 297 | 4.0 | 10.0 | 0.00 | 0.00 | 0.00 | 75 | 1015.5 |
| 20260830222103 | 86 | 299 | 3.0 | 10.0 | 0.00 | 0.00 | 0.00 | 75 | 1015.4 |
| 20260830222003 | 86 | 297 | 4.0 | 10.0 | 0.00 | 0.00 | 0.00 | 75 | 1015.4 |
| 20260830221903 | 86 | 297 | 4.0 | 10.0 | 0.00 | 0.00 | 0.00 | 75 | 1015.5 |
| 20260830221803 | 86 | 297 | 4.0 | 10.0 | 0.00 | 0.00 | 0.00 | 75 | 1015.5 |
| 20260830221703 | 86 | 297 | 3.0 | 10.0 | 0.00 | 0.00 | 0.00 | 75 | 1015.5 |
| 20260830221603 | 86 | 297 | 3.0 | 10.0 | 0.00 | 0.00 | 0.00 | 75 | 1015.4 |
| 20260830221503 | 86 | 297 | 3.0 | 10.0 | 0.00 | 0.00 | 0.00 | 75 | 1015.4 |
| 20260830221403 | 86 | 299 | 3.0 | 10.0 | 0.00 | 0.00 | 0.00 | 75 | 1015.5 |
| 20260830221303 | 86 | 303 | 3.0 | 7.0 | 0.00 | 0.00 | 0.00 | 75 | 1015.6 |
| 20260830221203 | 86 | 303 | 3.0 | 7.0 | 0.00 | 0.00 | 0.00 | 75 | 1015.5 |
| 20260830221103 | 86 | 301 | 3.0 | 7.0 | 0.00 | 0.00 | 0.00 | 75 | 1015.5 |
| 20260830221003 | 86 | 303 | 2.0 | 7.0 | 0.00 | 0.00 | 0.00 | 74 | 1015.5 |
| 20260830220903 | 86 | 303 | 2.0 | 7.0 | 0.00 | 0.00 | 0.00 | 74 | 1015.6 |
| 20260830220803 | 86 | 302 | 2.0 | 7.0 | 0.00 | 0.00 | 0.00 | 74 | 1015.5 |
| 20260830220703 | 86 | 300 | 3.0 | 8.0 | 0.00 | 0.00 | 0.00 | 74 | 1015.5 |
| 20260830220603 | 86 | 302 | 3.0 | 9.0 | 0.00 | 0.00 | 0.00 | 74 | 1015.6 |
| 20260830220503 | 86 | 303 | 4.0 | 9.0 | 0.00 | 0.00 | 0.00 | 75 | 1015.6 |
| 20260830220403 | 86 | 303 | 4.0 | 9.0 | 0.00 | 0.00 | 0.00 | 75 | 1015.5 |
| 20260830220303 | 86 | 302 | 4.0 | 9.0 | 0.00 | 0.00 | 0.00 | 75 | 1015.5 |
| 20260830220203 | 86 | 301 | 4.0 | 9.0 | 0.00 | 0.00 | 0.00 | 75 | 1015.5 |
| 20260830220119 | 86 | 302 | 5.0 | 10.0 | 0.00 | 0.00 | 0.00 | 75 | 1015.5 |
| 20260830215903 | 86 | 303 | 4.0 | 10.0 | 0.00 | 0.00 | 0.00 | 74 | 1015.5 |
| 20260830215803 | 86 | 303 | 4.0 | 10.0 | 0.00 | 0.00 | 0.00 | 74 | 1015.5 |
| 20260830215703 | 86 | 304 | 4.0 | 10.0 | 0.00 | 0.00 | 0.00 | 74 | 1015.5 |
| 20260830215603 | 86 | 302 | 3.0 | 10.0 | 0.00 | 0.00 | 0.00 | 74 | 1015.6 |
| 20260830215503 | 86 | 301 | 3.0 | 10.0 | 0.00 | 0.00 | 0.00 | 74 | 1015.7 |
| 20260830215403 | 86 | 300 | 3.0 | 10.0 | 0.00 | 0.00 | 0.00 | 74 | 1015.5 |
| 20260830215305 | 86 | 298 | 3.0 | 10.0 | 0.00 | 0.00 | 0.00 | 74 | 1015.6 |
| 20260830215204 | 86 | 300 | 3.0 | 10.0 | 0.00 | 0.00 | 0.00 | 74 | 1015.5 |
| 20260830215104 | 86 | 300 | 3.0 | 10.0 | 0.00 | 0.00 | 0.00 | 74 | 1015.5 |
| 20260830215004 | 86 | 298 | 3.0 | 8.0 | 0.00 | 0.00 | 0.00 | 74 | 1015.6 |
| 20260830214904 | 86 | 297 | 3.0 | 8.0 | 0.00 | 0.00 | 0.00 | 74 | 1015.6 |
| 20260830214804 | 86 | 298 | 4.0 | 8.0 | 0.00 | 0.00 | 0.00 | 74 | 1015.5 |
| 20260830214704 | 86 | 297 | 4.0 | 8.0 | 0.00 | 0.00 | 0.00 | 74 | 1015.5 |
| 20260830214604 | 86 | 298 | 4.0 | 8.0 | 0.00 | 0.00 | 0.00 | 74 | 1015.5 |
| 20260830214504 | 86 | 298 | 4.0 | 8.0 | 0.00 | 0.00 | 0.00 | 74 | 1015.6 |
| 20260830214404 | 86 | 299 | 4.0 | 8.0 | 0.00 | 0.00 | 0.00 | 74 | 1015.5 |
| 20260830214304 | 86 | 298 | 4.0 | 9.0 | 0.00 | 0.00 | 0.00 | 74 | 1015.5 |
| 20260830214204 | 86 | 299 | 4.0 | 9.0 | 0.00 | 0.00 | 0.00 | 74 | 1015.5 |
| 20260830214104 | 86 | 299 | 4.0 | 9.0 | 0.00 | 0.00 | 0.00 | 74 | 1015.4 |
| 20260830214004 | 86 | 300 | 4.0 | 9.0 | 0.00 | 0.00 | 0.00 | 74 | 1015.4 |
| 20260830213904 | 86 | 300 | 4.0 | 9.0 | 0.00 | 0.00 | 0.00 | 74 | 1015.4 |
| 20260830213804 | 86 | 300 | 4.0 | 9.0 | 0.00 | 0.00 | 0.00 | 73 | 1015.4 |
| 20260830213704 | 86 | 299 | 4.0 | 9.0 | 0.00 | 0.00 | 0.00 | 73 | 1015.5 |
| 20260830213604 | 86 | 300 | 4.0 | 9.0 | 0.00 | 0.00 | 0.00 | 73 | 1015.5 |
| 20260830213504 | 86 | 300 | 4.0 | 9.0 | 0.00 | 0.00 | 0.00 | 73 | 1015.5 |
| 20260830213404 | 86 | 300 | 4.0 | 9.0 | 0.00 | 0.00 | 0.00 | 73 | 1015.6 |
| 20260830213304 | 86 | 301 | 4.0 | 9.0 | 0.00 | 0.00 | 0.00 | 73 | 1015.6 |
| 20260830213204 | 86 | 300 | 3.0 | 9.0 | 0.00 | 0.00 | 0.00 | 73 | 1015.5 |
| 20260830213104 | 86 | 299 | 4.0 | 9.0 | 0.00 | 0.00 | 0.00 | 73 | 1015.6 |
| 20260830213004 | 86 | 298 | 4.0 | 9.0 | 0.00 | 0.00 | 0.00 | 73 | 1015.5 |
| 20260830212904 | 86 | 298 | 3.0 | 9.0 | 0.00 | 0.00 | 0.00 | 72 | 1015.5 |
| 20260830212804 | 86 | 298 | 4.0 | 9.0 | 0.00 | 0.00 | 0.00 | 73 | 1015.5 |
| 20260830212704 | 86 | 299 | 3.0 | 9.0 | 0.00 | 0.00 | 0.00 | 73 | 1015.5 |
| 20260830212604 | 86 | 297 | 3.0 | 8.0 | 0.00 | 0.00 | 0.00 | 73 | 1015.5 |
| 20260830212504 | 86 | 297 | 3.0 | 8.0 | 0.00 | 0.00 | 0.00 | 72 | 1015.4 |
| 20260830212404 | 86 | 296 | 3.0 | 8.0 | 0.00 | 0.00 | 0.00 | 72 | 1015.5 |
| 20260830212306 | 86 | 296 | 3.0 | 9.0 | 0.00 | 0.00 | 0.00 | 72 | 1015.5 |
| 20260830212204 | 86 | 297 | 3.0 | 9.0 | 0.00 | 0.00 | 0.00 | 72 | 1015.5 |
| 20260830212104 | 86 | 296 | 3.0 | 9.0 | 0.00 | 0.00 | 0.00 | 72 | 1015.5 |
| 20260830212004 | 86 | 297 | 2.0 | 9.0 | 0.00 | 0.00 | 0.00 | 73 | 1015.5 |
| 20260830211904 | 86 | 297 | 2.0 | 9.0 | 0.00 | 0.00 | 0.00 | 73 | 1015.5 |
| 20260830211804 | 86 | 297 | 2.0 | 9.0 | 0.00 | 0.00 | 0.00 | 73 | 1015.4 |
| 20260830211704 | 86 | 297 | 2.0 | 9.0 | 0.00 | 0.00 | 0.00 | 73 | 1015.5 |
| 20260830211604 | 86 | 297 | 3.0 | 9.0 | 0.00 | 0.00 | 0.00 | 73 | 1015.5 |
| 20260830211504 | 86 | 295 | 3.0 | 9.0 | 0.00 | 0.00 | 0.00 | 73 | 1015.4 |
| 20260830211404 | 86 | 298 | 3.0 | 9.0 | 0.00 | 0.00 | 0.00 | 73 | 1015.4 |
| 20260830211304 | 86 | 299 | 3.0 | 10.0 | 0.00 | 0.00 | 0.00 | 73 | 1015.4 |
| 20260830211204 | 86 | 296 | 3.0 | 11.0 | 0.00 | 0.00 | 0.00 | 73 | 1015.3 |
| 20260830211104 | 86 | 297 | 4.0 | 11.0 | 0.00 | 0.00 | 0.00 | 73 | 1015.4 |
| 20260830211004 | 86 | 298 | 4.0 | 11.0 | 0.00 | 0.00 | 0.00 | 73 | 1015.4 |
| 20260830210904 | 86 | 297 | 4.0 | 11.0 | 0.00 | 0.00 | 0.00 | 73 | 1015.5 |
| 20260830210803 | 32 | 298 | 4.0 | 11.0 | 0.00 | 0.00 | 0.00 | 73 | 1015.5 |
| 20260830210704 | 86 | 298 | 4.0 | 11.0 | 0.00 | 0.00 | 0.00 | 73 | 1015.4 |
| 20260830210603 | 86 | 298 | 5.0 | 13.0 | 0.00 | 0.00 | 0.00 | 73 | 1015.3 |
| 20260830210503 | 86 | 299 | 5.0 | 13.0 | 0.00 | 0.00 | 0.00 | 73 | 1015.3 |
| 20260830210403 | 86 | 297 | 5.0 | 13.0 | 0.00 | 0.00 | 0.00 | 73 | 1015.6 |
| 20260830210303 | 86 | 297 | 5.0 | 13.0 | 0.00 | 0.00 | 0.00 | 73 | 1015.6 |
| 20260830210203 | 86 | 298 | 5.0 | 13.0 | 0.00 | 0.00 | 0.00 | 73 | 1015.7 |
| 20260830210103 | 86 | 297 | 5.0 | 13.0 | 0.00 | 0.00 | 0.00 | 73 | 1015.5 |
| 20260830210004 | 87 | 298 | 5.0 | 13.0 | 0.00 | 0.00 | 0.00 | 72 | 1015.5 |
| 20260830205903 | 86 | 298 | 4.0 | 13.0 | 0.00 | 0.00 | 0.00 | 72 | 1015.6 |
| 20260830205803 | 87 | 298 | 5.0 | 13.0 | 0.00 | 0.00 | 0.00 | 72 | 1015.5 |
| 20260830205704 | 87 | 298 | 4.0 | 13.0 | 0.00 | 0.00 | 0.00 | 72 | 1015.5 |
| 20260830205603 | 87 | 299 | 4.0 | 11.0 | 0.00 | 0.00 | 0.00 | 72 | 1015.6 |
| 20260830205503 | 87 | 298 | 4.0 | 11.0 | 0.00 | 0.00 | 0.00 | 72 | 1015.6 |
| 20260830205403 | 87 | 298 | 4.0 | 10.0 | 0.00 | 0.00 | 0.00 | 72 | 1015.5 |
| 20260830205305 | 87 | 298 | 4.0 | 10.0 | 0.00 | 0.00 | 0.00 | 72 | 1015.5 |
| 20260830205203 | 87 | 298 | 3.0 | 7.0 | 0.00 | 0.00 | 0.00 | 72 | 1015.5 |
| 20260830205103 | 87 | 298 | 3.0 | 7.0 | 0.00 | 0.00 | 0.00 | 72 | 1015.5 |
| 20260830205003 | 87 | 297 | 3.0 | 7.0 | 0.00 | 0.00 | 0.00 | 72 | 1015.5 |
| 20260830204903 | 87 | 296 | 3.0 | 7.0 | 0.00 | 0.00 | 0.00 | 72 | 1015.4 |
| 20260830204803 | 87 | 295 | 3.0 | 6.0 | 0.00 | 0.00 | 0.00 | 72 | 1015.5 |
| 20260830204703 | 87 | 295 | 3.0 | 6.0 | 0.00 | 0.00 | 0.00 | 72 | 1015.5 |
| 20260830204603 | 87 | 295 | 3.0 | 6.0 | 0.00 | 0.00 | 0.00 | 72 | 1015.5 |
| 20260830204503 | 87 | 294 | 2.0 | 6.0 | 0.00 | 0.00 | 0.00 | 72 | 1015.4 |
| 20260830204403 | 87 | 294 | 2.0 | 6.0 | 0.00 | 0.00 | 0.00 | 72 | 1015.4 |
| 20260830204303 | 87 | 294 | 2.0 | 6.0 | 0.00 | 0.00 | 0.00 | 72 | 1015.5 |
| 20260830204203 | 87 | 294 | 2.0 | 6.0 | 0.00 | 0.00 | 0.00 | 72 | 1015.5 |
| 20260830204103 | 87 | 292 | 2.0 | 6.0 | 0.00 | 0.00 | 0.00 | 72 | 1015.6 |
| 20260830204003 | 87 | 293 | 2.0 | 6.0 | 0.00 | 0.00 | 0.00 | 72 | 1015.5 |
| 20260830203903 | 87 | 293 | 2.0 | 6.0 | 0.00 | 0.00 | 0.00 | 72 | 1015.5 |
| 20260830203803 | 87 | 294 | 2.0 | 6.0 | 0.00 | 0.00 | 0.00 | 73 | 1015.5 |
| 20260830203703 | 87 | 292 | 1.0 | 6.0 | 0.00 | 0.00 | 0.00 | 73 | 1015.4 |
| 20260830203603 | 87 | 292 | 1.0 | 5.0 | 0.00 | 0.00 | 0.00 | 72 | 1015.4 |
| 20260830203503 | 87 | 292 | 1.0 | 5.0 | 0.00 | 0.00 | 0.00 | 72 | 1015.4 |
| 20260830203403 | 87 | 292 | 1.0 | 5.0 | 0.00 | 0.00 | 0.00 | 72 | 1015.4 |
| 20260830203303 | 87 | 291 | 1.0 | 6.0 | 0.00 | 0.00 | 0.00 | 72 | 1015.3 |
| 20260830203203 | 87 | 289 | 1.0 | 6.0 | 0.00 | 0.00 | 0.00 | 72 | 1015.4 |
| 20260830203103 | 87 | 291 | 1.0 | 6.0 | 0.00 | 0.00 | 0.00 | 72 | 1015.4 |
| 20260830203003 | 87 | 290 | 1.0 | 6.0 | 0.00 | 0.00 | 0.00 | 72 | 1015.4 |
| 20260830202903 | 87 | 290 | 1.0 | 6.0 | 0.00 | 0.00 | 0.00 | 72 | 1015.4 |
| 20260830202803 | 87 | 286 | 1.0 | 11.0 | 0.00 | 0.00 | 0.00 | 72 | 1015.3 |
| 20260830202703 | 87 | 288 | 2.0 | 11.0 | 0.00 | 0.00 | 0.00 | 72 | 1015.5 |
| 20260830202603 | 87 | 289 | 2.0 | 11.0 | 0.00 | 0.00 | 0.00 | 72 | 1015.3 |
| 20260830202503 | 87 | 288 | 2.0 | 11.0 | 0.00 | 0.00 | 0.00 | 71 | 1015.3 |
| 20260830202403 | 87 | 289 | 2.0 | 11.0 | 0.00 | 0.00 | 0.00 | 71 | 1015.5 |
| 20260830202305 | 87 | 291 | 2.0 | 11.0 | 0.00 | 0.00 | 0.00 | 71 | 1015.5 |
| 20260830202203 | 87 | 294 | 2.0 | 11.0 | 0.00 | 0.00 | 0.00 | 71 | 1015.4 |
| 20260830202103 | 87 | 294 | 3.0 | 11.0 | 0.00 | 0.00 | 0.00 | 71 | 1015.3 |
| 20260830202003 | 87 | 295 | 3.0 | 11.0 | 0.00 | 0.00 | 0.00 | 71 | 1015.3 |
| 20260830201903 | 87 | 295 | 3.0 | 11.0 | 0.00 | 0.00 | 0.00 | 71 | 1015.5 |
| 20260830201803 | 87 | 298 | 2.0 | 8.0 | 0.00 | 0.00 | 0.00 | 71 | 1015.5 |
| 20260830201703 | 87 | 298 | 2.0 | 8.0 | 0.00 | 0.00 | 0.00 | 71 | 1015.5 |
| 20260830201603 | 87 | 298 | 3.0 | 8.0 | 0.00 | 0.00 | 0.00 | 71 | 1015.4 |
| 20260830201503 | 87 | 298 | 3.0 | 8.0 | 0.00 | 0.00 | 0.00 | 71 | 1015.5 |
| 20260830201403 | 87 | 298 | 2.0 | 7.0 | 0.00 | 0.00 | 0.00 | 71 | 1015.5 |
| 20260830201303 | 87 | 298 | 2.0 | 7.0 | 0.00 | 0.00 | 0.00 | 71 | 1015.5 |
| 20260830201203 | 88 | 295 | 2.0 | 7.0 | 0.00 | 0.00 | 0.00 | 71 | 1015.5 |
| 20260830201103 | 87 | 297 | 2.0 | 7.0 | 0.00 | 0.00 | 0.00 | 72 | 1015.5 |
| 20260830201003 | 88 | 298 | 2.0 | 7.0 | 0.00 | 0.00 | 0.00 | 72 | 1015.5 |
| 20260830200903 | 88 | 299 | 2.0 | 7.0 | 0.00 | 0.00 | 0.00 | 72 | 1015.4 |
| 20260830200803 | 88 | 300 | 3.0 | 7.0 | 0.00 | 0.00 | 0.00 | 72 | 1015.4 |
| 20260830200703 | 88 | 300 | 2.0 | 7.0 | 0.00 | 0.00 | 0.00 | 72 | 1015.4 |
| 20260830200603 | 88 | 299 | 2.0 | 7.0 | 0.00 | 0.00 | 0.00 | 72 | 1015.3 |
| 20260830200503 | 88 | 299 | 3.0 | 7.0 | 0.00 | 0.00 | 0.00 | 72 | 1015.4 |
| 20260830200403 | 88 | 299 | 3.0 | 7.0 | 0.00 | 0.00 | 0.00 | 72 | 1015.4 |
| 20260830200303 | 88 | 300 | 3.0 | 7.0 | 0.00 | 0.00 | 0.00 | 72 | 1015.4 |
| 20260830200203 | 88 | 300 | 3.0 | 7.0 | 0.00 | 0.00 | 0.00 | 72 | 1015.3 |
| 20260830200103 | 88 | 299 | 3.0 | 7.0 | 0.00 | 0.00 | 0.00 | 72 | 1015.3 |
| 20260830200003 | 88 | 297 | 3.0 | 7.0 | 0.00 | 0.00 | 0.00 | 72 | 1015.3 |
| 20260830195903 | 88 | 297 | 3.0 | 7.0 | 0.00 | 0.00 | 0.00 | 72 | 1015.3 |
| 20260830195803 | 88 | 297 | 3.0 | 7.0 | 0.00 | 0.00 | 0.00 | 72 | 1015.3 |
| 20260830195703 | 88 | 297 | 3.0 | 7.0 | 0.00 | 0.00 | 0.00 | 72 | 1015.3 |
| 20260830195603 | 88 | 297 | 2.0 | 7.0 | 0.00 | 0.00 | 0.00 | 72 | 1015.2 |
| 20260830195503 | 88 | 297 | 2.0 | 7.0 | 0.00 | 0.00 | 0.00 | 72 | 1015.2 |
| 20260830195403 | 88 | 298 | 2.0 | 7.0 | 0.00 | 0.00 | 0.00 | 72 | 1015.2 |
| 20260830195305 | 88 | 297 | 2.0 | 7.0 | 0.00 | 0.00 | 0.00 | 72 | 1015.2 |
| 20260830195203 | 88 | 296 | 2.0 | 7.0 | 0.00 | 0.00 | 0.00 | 72 | 1015.2 |
| 20260830195103 | 88 | 296 | 2.0 | 9.0 | 0.00 | 0.00 | 0.00 | 72 | 1015.2 |
| 20260830195003 | 88 | 297 | 2.0 | 9.0 | 0.00 | 0.00 | 0.00 | 73 | 1015.3 |
| 20260830194903 | 88 | 296 | 2.0 | 9.0 | 0.00 | 0.00 | 0.00 | 72 | 1015.3 |
| 20260830194803 | 88 | 296 | 2.0 | 9.0 | 0.00 | 0.00 | 0.00 | 72 | 1015.3 |
| 20260830194703 | 88 | 295 | 2.0 | 9.0 | 0.00 | 0.00 | 0.00 | 72 | 1015.3 |
| 20260830194603 | 88 | 294 | 2.0 | 9.0 | 0.00 | 0.00 | 0.00 | 72 | 1015.3 |
| 20260830194503 | 88 | 294 | 2.0 | 9.0 | 0.00 | 0.00 | 0.00 | 72 | 1015.4 |
| 20260830194403 | 88 | 296 | 2.0 | 9.0 | 0.00 | 0.00 | 0.00 | 72 | 1015.3 |
| 20260830194303 | 88 | 295 | 3.0 | 9.0 | 0.00 | 0.00 | 0.00 | 73 | 1015.3 |
| 20260830194203 | 88 | 295 | 3.0 | 9.0 | 0.00 | 0.00 | 0.00 | 73 | 1015.3 |
| 20260830194103 | 88 | 295 | 2.0 | 9.0 | 0.00 | 0.00 | 0.00 | 73 | 1015.3 |
| 20260830194003 | 88 | 296 | 2.0 | 9.0 | 0.00 | 0.00 | 0.00 | 73 | 1015.3 |
| 20260830193903 | 88 | 296 | 2.0 | 9.0 | 0.00 | 0.00 | 0.00 | 73 | 1015.2 |
| 20260830193803 | 88 | 296 | 2.0 | 9.0 | 0.00 | 0.00 | 0.00 | 73 | 1015.2 |
| 20260830193703 | 88 | 295 | 2.0 | 9.0 | 0.00 | 0.00 | 0.00 | 73 | 1015.2 |
| 20260830193603 | 88 | 297 | 2.0 | 9.0 | 0.00 | 0.00 | 0.00 | 73 | 1015.2 |
| 20260830193503 | 88 | 297 | 2.0 | 9.0 | 0.00 | 0.00 | 0.00 | 74 | 1015.3 |
| 20260830193403 | 88 | 294 | 2.0 | 7.0 | 0.00 | 0.00 | 0.00 | 74 | 1015.3 |
| 20260830193303 | 88 | 295 | 1.0 | 6.0 | 0.00 | 0.00 | 0.00 | 73 | 1015.2 |
| 20260830193203 | 88 | 297 | 1.0 | 6.0 | 0.00 | 0.00 | 0.00 | 73 | 1015.2 |
| 20260830193103 | 88 | 298 | 1.0 | 6.0 | 0.00 | 0.00 | 0.00 | 73 | 1015.2 |
| 20260830193003 | 88 | 294 | 0.0 | 4.0 | 0.00 | 0.00 | 0.00 | 73 | 1015.3 |
| 20260830192903 | 88 | 298 | 0.0 | 3.0 | 0.00 | 0.00 | 0.00 | 73 | 1015.3 |
| 20260830192803 | 88 | 292 | 0.0 | 3.0 | 0.00 | 0.00 | 0.00 | 73 | 1015.3 |
| 20260830192704 | 88 | 112 | 0.0 | 1.0 | 0.00 | 0.00 | 0.00 | 73 | 1015.3 |
| 20260830192604 | 88 | 112 | 0.0 | 3.0 | 0.00 | 0.00 | 0.00 | 73 | 1015.2 |
| 20260830192504 | 88 | 112 | 0.0 | 3.0 | 0.00 | 0.00 | 0.00 | 73 | 1015.2 |
| 20260830192404 | 88 | 112 | 0.0 | 3.0 | 0.00 | 0.00 | 0.00 | 73 | 1015.2 |
| 20260830192305 | 88 | 60 | 0.0 | 4.0 | 0.00 | 0.00 | 0.00 | 73 | 1015.2 |
| 20260830192204 | 88 | 60 | 0.0 | 4.0 | 0.00 | 0.00 | 0.00 | 73 | 1015.2 |
| 20260830192104 | 88 | 45 | 0.0 | 4.0 | 0.00 | 0.00 | 0.00 | 73 | 1015.2 |
| 20260830192004 | 88 | 45 | 0.0 | 4.0 | 0.00 | 0.00 | 0.00 | 73 | 1015.1 |
| 20260830191904 | 88 | 45 | 0.0 | 4.0 | 0.00 | 0.00 | 0.00 | 73 | 1015.1 |
| 20260830191804 | 88 | 45 | 0.0 | 4.0 | 0.00 | 0.00 | 0.00 | 73 | 1015.1 |
| 20260830191704 | 88 | 81 | 0.0 | 4.0 | 0.00 | 0.00 | 0.00 | 73 | 1015.2 |
| 20260830191604 | 88 | 45 | 0.0 | 4.0 | 0.00 | 0.00 | 0.00 | 73 | 1015.2 |
| 20260830191504 | 88 | 99 | 0.0 | 4.0 | 0.00 | 0.00 | 0.00 | 73 | 1015.2 |
| 20260830191404 | 88 | 103 | 0.0 | 4.0 | 0.00 | 0.00 | 0.00 | 73 | 1015.1 |
| 20260830191304 | 88 | 115 | 0.0 | 2.0 | 0.00 | 0.00 | 0.00 | 73 | 1015.1 |
| 20260830191204 | 88 | 115 | 0.0 | 2.0 | 0.00 | 0.00 | 0.00 | 73 | 1015.2 |
| 20260830191104 | 88 | 115 | 0.0 | 2.0 | 0.00 | 0.00 | 0.00 | 73 | 1015.2 |
| 20260830191004 | 88 | 115 | 0.0 | 2.0 | 0.00 | 0.00 | 0.00 | 73 | 1015.1 |
| 20260830190904 | 88 | 115 | 0.0 | 2.0 | 0.00 | 0.00 | 0.00 | 73 | 1015.1 |
| 20260830190804 | 88 | 115 | 0.0 | 2.0 | 0.00 | 0.00 | 0.00 | 73 | 1015.2 |
| 20260830190704 | 88 | 115 | 0.0 | 2.0 | 0.00 | 0.00 | 0.00 | 73 | 1015.1 |
| 20260830190604 | 88 | 117 | 0.0 | 2.0 | 0.00 | 0.00 | 0.00 | 73 | 1015.1 |
| 20260830190504 | 88 | 120 | 0.0 | 2.0 | 0.00 | 0.00 | 0.00 | 73 | 1015.1 |
| 20260830190404 | 88 | 112 | 0.0 | 1.0 | 0.00 | 0.00 | 0.00 | 73 | 1015.1 |
| 20260830190304 | 88 | 112 | 0.0 | 1.0 | 0.00 | 0.00 | 0.00 | 73 | 1015.1 |
| 20260830190204 | 88 | 112 | 0.0 | 1.0 | 0.00 | 0.00 | 0.00 | 73 | 1015.2 |
| 20260830190104 | 88 | 0 | 0.0 | 0.0 | 0.00 | 0.00 | 0.00 | 73 | 1015.1 |
| 20260830190005 | 88 | 0 | 0.0 | 0.0 | 0.00 | 0.00 | 0.00 | 73 | 1015.2 |
| 20260830185904 | 88 | 0 | 0.0 | 0.0 | 0.00 | 0.00 | 0.00 | 73 | 1015.3 |
| 20260830185804 | 88 | 0 | 0.0 | 0.0 | 0.00 | 0.00 | 0.00 | 73 | 1015.3 |
| 20260830185704 | 88 | 0 | 0.0 | 0.0 | 0.00 | 0.00 | 0.00 | 73 | 1015.2 |
| 20260830185604 | 88 | 108 | 0.0 | 3.0 | 0.00 | 0.00 | 0.00 | 74 | 1015.2 |
| 20260830185504 | 88 | 109 | 0.0 | 3.0 | 0.00 | 0.00 | 0.00 | 73 | 1015.2 |
| 20260830185404 | 88 | 110 | 0.0 | 3.0 | 0.00 | 0.00 | 0.00 | 74 | 1015.1 |
| 20260830185306 | 88 | 110 | 0.0 | 3.0 | 0.00 | 0.00 | 0.00 | 74 | 1015.2 |
| 20260830185204 | 88 | 110 | 0.0 | 3.0 | 0.00 | 0.00 | 0.00 | 74 | 1015.2 |
| 20260830185104 | 88 | 110 | 0.0 | 3.0 | 0.00 | 0.00 | 0.00 | 74 | 1015.2 |
| 20260830185004 | 88 | 110 | 0.0 | 3.0 | 0.00 | 0.00 | 0.00 | 73 | 1015.2 |
| 20260830184904 | 88 | 110 | 0.0 | 3.0 | 0.00 | 0.00 | 0.00 | 73 | 1015.2 |
| 20260830184804 | 88 | 110 | 0.0 | 3.0 | 0.00 | 0.00 | 0.00 | 73 | 1015.1 |
| 20260830184704 | 88 | 110 | 0.0 | 3.0 | 0.00 | 0.00 | 0.00 | 73 | 1015.0 |
| 20260830184603 | 88 | 112 | 0.0 | 2.0 | 0.00 | 0.00 | 0.00 | 73 | 1015.1 |
| 20260830184504 | 88 | 335 | 0.0 | 6.0 | 0.00 | 0.00 | 0.00 | 73 | 1015.2 |
| 20260830184403 | 88 | 318 | 0.0 | 6.0 | 0.00 | 0.00 | 0.00 | 73 | 1015.2 |
| 20260830184303 | 88 | 293 | 0.0 | 6.0 | 0.00 | 0.00 | 0.00 | 72 | 1015.1 |
| 20260830184203 | 88 | 297 | 0.0 | 6.0 | 0.00 | 0.00 | 0.00 | 73 | 1015.2 |
| 20260830184103 | 88 | 304 | 1.0 | 6.0 | 0.00 | 0.00 | 0.00 | 72 | 1015.2 |
| 20260830184003 | 88 | 318 | 1.0 | 6.0 | 0.00 | 0.00 | 0.00 | 72 | 1015.2 |
| 20260830183903 | 88 | 329 | 1.0 | 6.0 | 0.00 | 0.00 | 0.00 | 72 | 1015.1 |
| 20260830183803 | 88 | 340 | 1.0 | 6.0 | 0.00 | 0.00 | 0.00 | 72 | 1015.1 |
| 20260830183703 | 88 | 340 | 1.0 | 6.0 | 0.00 | 0.00 | 0.00 | 72 | 1015.1 |
| 20260830183603 | 88 | 340 | 1.0 | 6.0 | 0.00 | 0.00 | 0.00 | 72 | 1015.1 |
| 20260830183503 | 88 | 357 | 1.0 | 6.0 | 0.00 | 0.00 | 0.00 | 72 | 1015.0 |
| 20260830183403 | 88 | 58 | 1.0 | 6.0 | 0.00 | 0.00 | 0.00 | 72 | 1015.0 |
| 20260830183303 | 88 | 93 | 0.0 | 6.0 | 0.00 | 0.00 | 0.00 | 72 | 1015.0 |
| 20260830183203 | 88 | 104 | 0.0 | 6.0 | 0.00 | 0.00 | 0.00 | 72 | 1015.1 |
| 20260830183103 | 88 | 113 | 0.0 | 6.0 | 0.00 | 0.00 | 0.00 | 72 | 1015.0 |
| 20260830183003 | 88 | 117 | 0.0 | 2.0 | 0.00 | 0.00 | 0.00 | 72 | 1015.1 |
| 20260830182903 | 88 | 126 | 0.0 | 2.0 | 0.00 | 0.00 | 0.00 | 72 | 1015.0 |
| 20260830182803 | 88 | 202 | 0.0 | 1.0 | 0.00 | 0.00 | 0.00 | 72 | 1015.1 |
| 20260830182703 | 88 | 297 | 0.0 | 7.0 | 0.00 | 0.00 | 0.00 | 72 | 1015.0 |
| 20260830182603 | 88 | 297 | 1.0 | 7.0 | 0.00 | 0.00 | 0.00 | 72 | 1014.9 |
| 20260830182503 | 88 | 297 | 1.0 | 7.0 | 0.00 | 0.00 | 0.00 | 72 | 1014.8 |
| 20260830182403 | 88 | 297 | 1.0 | 7.0 | 0.00 | 0.00 | 0.00 | 72 | 1014.8 |
| 20260830182306 | 88 | 306 | 1.0 | 7.0 | 0.00 | 0.00 | 0.00 | 72 | 1014.8 |
| 20260830182203 | 88 | 304 | 1.0 | 7.0 | 0.00 | 0.00 | 0.00 | 72 | 1014.8 |
| 20260830182103 | 88 | 299 | 2.0 | 7.0 | 0.00 | 0.00 | 0.00 | 72 | 1014.9 |
| 20260830182003 | 88 | 299 | 2.0 | 7.0 | 0.00 | 0.00 | 0.00 | 72 | 1015.0 |
| 20260830181903 | 88 | 299 | 2.0 | 7.0 | 0.00 | 0.00 | 0.00 | 72 | 1015.0 |
| 20260830181803 | 88 | 299 | 2.0 | 7.0 | 0.00 | 0.00 | 0.00 | 72 | 1015.0 |
| 20260830181703 | 88 | 299 | 3.0 | 9.0 | 0.00 | 0.00 | 0.00 | 72 | 1015.0 |
| 20260830181603 | 88 | 302 | 3.0 | 9.0 | 0.00 | 0.00 | 0.00 | 72 | 1015.0 |
| 20260830181503 | 88 | 302 | 3.0 | 9.0 | 0.00 | 0.00 | 0.00 | 72 | 1015.0 |
| 20260830181403 | 88 | 302 | 3.0 | 9.0 | 0.00 | 0.00 | 0.00 | 72 | 1014.9 |
| 20260830181303 | 88 | 300 | 3.0 | 9.0 | 0.00 | 0.00 | 0.00 | 72 | 1014.9 |
| 20260830181203 | 88 | 300 | 2.0 | 9.0 | 0.00 | 0.00 | 0.00 | 72 | 1014.8 |
| 20260830181103 | 88 | 303 | 2.0 | 9.0 | 0.00 | 0.00 | 0.00 | 71 | 1014.8 |
| 20260830181003 | 88 | 304 | 2.0 | 9.0 | 0.00 | 0.00 | 0.00 | 71 | 1014.8 |
| 20260830180903 | 88 | 303 | 2.0 | 9.0 | 0.00 | 0.00 | 0.00 | 71 | 1014.7 |
| 20260830180803 | 88 | 305 | 2.0 | 9.0 | 0.00 | 0.00 | 0.00 | 71 | 1014.6 |
| 20260830180703 | 88 | 309 | 1.0 | 7.0 | 0.00 | 0.00 | 0.00 | 71 | 1014.6 |
| 20260830180603 | 88 | 304 | 1.0 | 7.0 | 0.00 | 0.00 | 0.00 | 71 | 1014.6 |
| 20260830180503 | 88 | 304 | 1.0 | 7.0 | 0.00 | 0.00 | 0.00 | 71 | 1014.6 |
| 20260830180403 | 88 | 301 | 1.0 | 7.0 | 0.00 | 0.00 | 0.00 | 71 | 1014.6 |
| 20260830180303 | 88 | 303 | 1.0 | 7.0 | 0.00 | 0.00 | 0.00 | 71 | 1014.5 |
| 20260830180203 | 88 | 302 | 1.0 | 7.0 | 0.00 | 0.00 | 0.00 | 71 | 1014.5 |
| 20260830180103 | 88 | 301 | 1.0 | 7.0 | 0.00 | 0.00 | 0.00 | 71 | 1014.6 |
| 20260830180003 | 88 | 299 | 1.0 | 7.0 | 0.00 | 0.00 | 0.00 | 71 | 1014.5 |
| 20260830175903 | 88 | 297 | 1.0 | 6.0 | 0.00 | 0.00 | 0.00 | 70 | 1014.5 |
| 20260830175803 | 88 | 298 | 1.0 | 6.0 | 0.00 | 0.00 | 0.00 | 70 | 1014.5 |
| 20260830175703 | 88 | 297 | 1.0 | 6.0 | 0.00 | 0.00 | 0.00 | 70 | 1014.4 |
| 20260830175603 | 88 | 296 | 1.0 | 6.0 | 0.00 | 0.00 | 0.00 | 70 | 1014.5 |
| 20260830175503 | 88 | 295 | 1.0 | 6.0 | 0.00 | 0.00 | 0.00 | 70 | 1014.5 |
| 20260830175403 | 88 | 296 | 1.0 | 6.0 | 0.00 | 0.00 | 0.00 | 70 | 1014.6 |
| 20260830175305 | 88 | 291 | 1.0 | 6.0 | 0.00 | 0.00 | 0.00 | 70 | 1014.5 |
| 20260830175203 | 88 | 289 | 1.0 | 6.0 | 0.00 | 0.00 | 0.00 | 70 | 1014.5 |
| 20260830175103 | 88 | 289 | 1.0 | 6.0 | 0.00 | 0.00 | 0.00 | 70 | 1014.5 |
| 20260830175003 | 88 | 285 | 1.0 | 6.0 | 0.00 | 0.00 | 0.00 | 71 | 1014.4 |
| 20260830174903 | 88 | 290 | 1.0 | 6.0 | 0.00 | 0.00 | 0.00 | 71 | 1014.4 |
| 20260830174803 | 88 | 291 | 1.0 | 6.0 | 0.00 | 0.00 | 0.00 | 70 | 1014.5 |
| 20260830174703 | 88 | 291 | 1.0 | 6.0 | 0.00 | 0.00 | 0.00 | 70 | 1014.5 |
| 20260830174603 | 88 | 293 | 1.0 | 6.0 | 0.00 | 0.00 | 0.00 | 70 | 1014.4 |
| 20260830174503 | 88 | 296 | 1.0 | 6.0 | 0.00 | 0.00 | 0.00 | 70 | 1014.4 |
| 20260830174403 | 88 | 295 | 1.0 | 6.0 | 0.00 | 0.00 | 0.00 | 70 | 1014.3 |
| 20260830174303 | 88 | 295 | 1.0 | 6.0 | 0.00 | 0.00 | 0.00 | 70 | 1014.2 |
| 20260830174203 | 88 | 296 | 1.0 | 6.0 | 0.00 | 0.00 | 0.00 | 70 | 1014.2 |
| 20260830174103 | 89 | 298 | 1.0 | 6.0 | 0.00 | 0.00 | 0.00 | 70 | 1014.2 |
| 20260830174003 | 89 | 299 | 1.0 | 6.0 | 0.00 | 0.00 | 0.00 | 70 | 1014.3 |
| 20260830173903 | 89 | 294 | 1.0 | 6.0 | 0.00 | 0.00 | 0.00 | 70 | 1014.3 |
| 20260830173803 | 89 | 293 | 2.0 | 9.0 | 0.00 | 0.00 | 0.00 | 70 | 1014.3 |
| 20260830173703 | 89 | 294 | 2.0 | 9.0 | 0.00 | 0.00 | 0.00 | 69 | 1014.3 |
| 20260830173603 | 89 | 294 | 2.0 | 9.0 | 0.00 | 0.00 | 0.00 | 69 | 1014.3 |
| 20260830173503 | 89 | 295 | 2.0 | 9.0 | 0.00 | 0.00 | 0.00 | 69 | 1014.3 |
| 20260830173403 | 89 | 298 | 2.0 | 9.0 | 0.00 | 0.00 | 0.00 | 69 | 1014.2 |
| 20260830173303 | 89 | 298 | 2.0 | 9.0 | 0.00 | 0.00 | 0.00 | 69 | 1014.2 |
| 20260830173203 | 89 | 298 | 3.0 | 9.0 | 0.00 | 0.00 | 0.00 | 69 | 1014.3 |
| 20260830173103 | 89 | 297 | 3.0 | 9.0 | 0.00 | 0.00 | 0.00 | 69 | 1014.3 |
| 20260830173003 | 89 | 298 | 3.0 | 9.0 | 0.00 | 0.00 | 0.00 | 69 | 1014.2 |
| 20260830172903 | 89 | 302 | 2.0 | 9.0 | 0.00 | 0.00 | 0.00 | 68 | 1014.2 |
| 20260830172803 | 89 | 305 | 2.0 | 8.0 | 0.00 | 0.00 | 0.00 | 68 | 1014.1 |
| 20260830172703 | 89 | 303 | 2.0 | 8.0 | 0.00 | 0.00 | 0.00 | 68 | 1014.3 |
| 20260830172603 | 89 | 298 | 2.0 | 8.0 | 0.00 | 0.00 | 0.00 | 68 | 1014.3 |
| 20260830172503 | 89 | 299 | 1.0 | 6.0 | 0.00 | 0.00 | 0.00 | 68 | 1014.2 |
| 20260830172403 | 89 | 297 | 2.0 | 6.0 | 0.00 | 0.00 | 0.00 | 68 | 1014.2 |
| 20260830172306 | 89 | 297 | 2.0 | 6.0 | 0.00 | 0.00 | 0.00 | 67 | 1014.2 |
| 20260830172203 | 89 | 295 | 1.0 | 6.0 | 0.00 | 0.00 | 0.00 | 67 | 1014.1 |
| 20260830172103 | 89 | 298 | 2.0 | 6.0 | 0.00 | 0.00 | 0.00 | 67 | 1014.1 |
| 20260830172003 | 89 | 295 | 2.0 | 6.0 | 0.00 | 0.00 | 0.00 | 67 | 1014.1 |
| 20260830171903 | 89 | 295 | 2.0 | 6.0 | 0.00 | 0.00 | 0.00 | 67 | 1014.1 |
| 20260830171803 | 89 | 296 | 2.0 | 6.0 | 0.00 | 0.00 | 0.00 | 67 | 1014.0 |
| 20260830171703 | 89 | 300 | 2.0 | 6.0 | 0.00 | 0.00 | 0.00 | 67 | 1014.0 |
| 20260830171603 | 89 | 305 | 2.0 | 7.0 | 0.00 | 0.00 | 0.00 | 66 | 1014.1 |
| 20260830171503 | 90 | 301 | 2.0 | 7.0 | 0.00 | 0.00 | 0.00 | 66 | 1014.0 |
| 20260830171403 | 90 | 301 | 2.0 | 7.0 | 0.00 | 0.00 | 0.00 | 66 | 1014.0 |
| 20260830171304 | 90 | 302 | 2.0 | 7.0 | 0.00 | 0.00 | 0.00 | 66 | 1013.9 |
| 20260830171204 | 90 | 302 | 2.0 | 7.0 | 0.00 | 0.00 | 0.00 | 66 | 1014.1 |
| 20260830171104 | 90 | 298 | 1.0 | 7.0 | 0.00 | 0.00 | 0.00 | 66 | 1014.2 |
| 20260830171004 | 90 | 301 | 1.0 | 7.0 | 0.00 | 0.00 | 0.00 | 66 | 1014.2 |
| 20260830170904 | 90 | 302 | 1.0 | 7.0 | 0.00 | 0.00 | 0.00 | 66 | 1014.2 |
| 20260830170804 | 90 | 301 | 1.0 | 7.0 | 0.00 | 0.00 | 0.00 | 66 | 1014.2 |
| 20260830170704 | 90 | 295 | 1.0 | 7.0 | 0.00 | 0.00 | 0.00 | 66 | 1014.2 |
| 20260830170604 | 90 | 289 | 1.0 | 6.0 | 0.00 | 0.00 | 0.00 | 66 | 1014.2 |
| 20260830170504 | 90 | 290 | 2.0 | 11.0 | 0.00 | 0.00 | 0.00 | 66 | 1014.1 |
| 20260830170404 | 90 | 287 | 2.0 | 11.0 | 0.00 | 0.00 | 0.00 | 65 | 1014.1 |
| 20260830170304 | 90 | 290 | 2.0 | 11.0 | 0.00 | 0.00 | 0.00 | 65 | 1014.2 |
| 20260830170204 | 90 | 290 | 2.0 | 11.0 | 0.00 | 0.00 | 0.00 | 65 | 1014.1 |
| 20260830170104 | 90 | 291 | 2.0 | 11.0 | 0.00 | 0.00 | 0.00 | 64 | 1014.1 |
| 20260830170004 | 90 | 290 | 2.0 | 11.0 | 0.00 | 0.00 | 0.00 | 64 | 1014.1 |
| 20260830165904 | 90 | 292 | 3.0 | 11.0 | 0.00 | 0.00 | 0.00 | 64 | 1014.1 |
| 20260830165804 | 90 | 289 | 3.0 | 11.0 | 0.00 | 0.00 | 0.00 | 64 | 1014.2 |
| 20260830165704 | 90 | 290 | 3.0 | 11.0 | 0.00 | 0.00 | 0.00 | 65 | 1014.1 |
| 20260830165604 | 90 | 293 | 4.0 | 12.0 | 0.00 | 0.00 | 0.00 | 65 | 1014.2 |
| 20260830165504 | 90 | 297 | 3.0 | 12.0 | 0.00 | 0.00 | 0.00 | 65 | 1014.1 |
| 20260830165404 | 90 | 299 | 3.0 | 12.0 | 0.00 | 0.00 | 0.00 | 65 | 1014.1 |
| 20260830165306 | 90 | 300 | 3.0 | 12.0 | 0.00 | 0.00 | 0.00 | 65 | 1014.2 |
| 20260830165204 | 90 | 299 | 3.0 | 12.0 | 0.00 | 0.00 | 0.00 | 66 | 1014.1 |
| 20260830165104 | 90 | 299 | 3.0 | 12.0 | 0.00 | 0.00 | 0.00 | 65 | 1014.1 |
| 20260830165004 | 90 | 300 | 4.0 | 12.0 | 0.00 | 0.00 | 0.00 | 65 | 1014.1 |
| 20260830164904 | 90 | 299 | 3.0 | 12.0 | 0.00 | 0.00 | 0.00 | 66 | 1014.1 |
| 20260830164804 | 90 | 301 | 3.0 | 12.0 | 0.00 | 0.00 | 0.00 | 66 | 1014.1 |
| 20260830164704 | 90 | 300 | 4.0 | 12.0 | 0.00 | 0.00 | 0.00 | 66 | 1014.0 |
| 20260830164604 | 90 | 299 | 3.0 | 11.0 | 0.00 | 0.00 | 0.00 | 66 | 1014.0 |
| 20260830164504 | 90 | 296 | 3.0 | 11.0 | 0.00 | 0.00 | 0.00 | 66 | 1014.0 |
| 20260830164404 | 90 | 297 | 3.0 | 11.0 | 0.00 | 0.00 | 0.00 | 66 | 1014.1 |
| 20260830164304 | 90 | 292 | 3.0 | 11.0 | 0.00 | 0.00 | 0.00 | 66 | 1014.0 |
| 20260830164204 | 91 | 290 | 3.0 | 11.0 | 0.00 | 0.00 | 0.00 | 67 | 1014.0 |
| 20260830164104 | 91 | 290 | 4.0 | 11.0 | 0.00 | 0.00 | 0.00 | 67 | 1014.0 |
| 20260830164004 | 91 | 289 | 3.0 | 11.0 | 0.00 | 0.00 | 0.00 | 67 | 1014.1 |
| 20260830163904 | 91 | 290 | 4.0 | 11.0 | 0.00 | 0.00 | 0.00 | 67 | 1014.2 |
| 20260830163804 | 91 | 293 | 4.0 | 11.0 | 0.00 | 0.00 | 0.00 | 66 | 1014.1 |
| 20260830163704 | 91 | 293 | 4.0 | 10.0 | 0.00 | 0.00 | 0.00 | 66 | 1014.1 |
| 20260830163604 | 91 | 296 | 3.0 | 10.0 | 0.00 | 0.00 | 0.00 | 66 | 1014.1 |
| 20260830163504 | 91 | 296 | 3.0 | 10.0 | 0.00 | 0.00 | 0.00 | 66 | 1014.1 |
| 20260830163404 | 91 | 296 | 4.0 | 10.0 | 0.00 | 0.00 | 0.00 | 66 | 1014.1 |
| 20260830163304 | 91 | 299 | 3.0 | 10.0 | 0.00 | 0.00 | 0.00 | 66 | 1014.1 |
| 20260830163204 | 91 | 302 | 3.0 | 10.0 | 0.00 | 0.00 | 0.00 | 65 | 1014.2 |
| 20260830163104 | 91 | 303 | 3.0 | 10.0 | 0.00 | 0.00 | 0.00 | 65 | 1014.2 |
| 20260830163004 | 92 | 305 | 3.0 | 10.0 | 0.00 | 0.00 | 0.00 | 65 | 1014.1 |
| 20260830162903 | 92 | 307 | 2.0 | 8.0 | 0.00 | 0.00 | 0.00 | 65 | 1014.1 |
| 20260830162803 | 92 | 304 | 2.0 | 11.0 | 0.00 | 0.00 | 0.00 | 64 | 1014.0 |
| 20260830162703 | 92 | 302 | 2.0 | 11.0 | 0.00 | 0.00 | 0.00 | 64 | 1014.1 |
| 20260830162604 | 92 | 299 | 2.0 | 11.0 | 0.00 | 0.00 | 0.00 | 64 | 1014.1 |
| 20260830162503 | 92 | 302 | 2.0 | 11.0 | 0.00 | 0.00 | 0.00 | 63 | 1014.0 |
| 20260830162404 | 92 | 300 | 2.0 | 11.0 | 0.00 | 0.00 | 0.00 | 63 | 1014.0 |
| 20260830162306 | 92 | 307 | 2.0 | 11.0 | 0.00 | 0.00 | 0.00 | 63 | 1014.0 |
| 20260830162204 | 92 | 316 | 2.0 | 11.0 | 0.00 | 0.00 | 0.00 | 63 | 1014.0 |
| 20260830162103 | 92 | 309 | 2.0 | 11.0 | 0.00 | 0.00 | 0.00 | 63 | 1014.1 |
| 20260830162003 | 92 | 287 | 2.0 | 11.0 | 0.00 | 0.00 | 0.00 | 63 | 1014.1 |
| 20260830161904 | 92 | 291 | 3.0 | 11.0 | 0.00 | 0.00 | 0.00 | 63 | 1014.0 |
| 20260830161803 | 92 | 287 | 3.0 | 8.0 | 0.00 | 0.00 | 0.00 | 62 | 1014.0 |
| 20260830161703 | 92 | 285 | 3.0 | 7.0 | 0.00 | 0.00 | 0.00 | 62 | 1013.9 |
| 20260830161603 | 92 | 286 | 3.0 | 7.0 | 0.00 | 0.00 | 0.00 | 62 | 1013.9 |
| 20260830161503 | 92 | 286 | 3.0 | 7.0 | 0.00 | 0.00 | 0.00 | 61 | 1014.0 |
| 20260830161403 | 92 | 289 | 3.0 | 7.0 | 0.00 | 0.00 | 0.00 | 61 | 1014.0 |
| 20260830161303 | 92 | 290 | 3.0 | 8.0 | 0.00 | 0.00 | 0.00 | 61 | 1014.0 |
| 20260830161203 | 92 | 290 | 3.0 | 8.0 | 0.00 | 0.00 | 0.00 | 61 | 1014.1 |
| 20260830161103 | 93 | 291 | 3.0 | 8.0 | 0.00 | 0.00 | 0.00 | 61 | 1014.1 |
| 20260830161004 | 93 | 293 | 3.0 | 8.0 | 0.00 | 0.00 | 0.00 | 61 | 1014.1 |
| 20260830160903 | 93 | 292 | 3.0 | 8.0 | 0.00 | 0.00 | 0.00 | 60 | 1014.1 |
| 20260830160803 | 93 | 293 | 3.0 | 8.0 | 0.00 | 0.00 | 0.00 | 60 | 1014.0 |
| 20260830160703 | 93 | 294 | 3.0 | 8.0 | 0.00 | 0.00 | 0.00 | 60 | 1014.0 |
| 20260830160603 | 93 | 295 | 3.0 | 8.0 | 0.00 | 0.00 | 0.00 | 59 | 1014.1 |
| 20260830160503 | 93 | 297 | 3.0 | 8.0 | 0.00 | 0.00 | 0.00 | 59 | 1014.0 |
| 20260830160403 | 93 | 296 | 3.0 | 8.0 | 0.00 | 0.00 | 0.00 | 58 | 1014.1 |
| 20260830160303 | 93 | 295 | 2.0 | 8.0 | 0.00 | 0.00 | 0.00 | 57 | 1014.1 |
| 20260830160203 | 93 | 294 | 2.0 | 8.0 | 0.00 | 0.00 | 0.00 | 57 | 1014.1 |
| 20260830160103 | 93 | 294 | 2.0 | 8.0 | 0.00 | 0.00 | 0.00 | 57 | 1014.0 |
| 20260830160003 | 94 | 294 | 2.0 | 8.0 | 0.00 | 0.00 | 0.00 | 57 | 1014.0 |
| 20260830155903 | 94 | 294 | 2.0 | 7.0 | 0.00 | 0.00 | 0.00 | 57 | 1014.0 |
| 20260830155803 | 94 | 294 | 2.0 | 7.0 | 0.00 | 0.00 | 0.00 | 56 | 1014.1 |
| 20260830155703 | 94 | 293 | 2.0 | 7.0 | 0.00 | 0.00 | 0.00 | 56 | 1014.0 |
| 20260830155603 | 94 | 296 | 2.0 | 7.0 | 0.00 | 0.00 | 0.00 | 55 | 1013.9 |
| 20260830155503 | 94 | 297 | 3.0 | 9.0 | 0.00 | 0.00 | 0.00 | 55 | 1014.0 |
| 20260830155403 | 94 | 296 | 3.0 | 9.0 | 0.00 | 0.00 | 0.00 | 54 | 1014.0 |
| 20260830155306 | 94 | 301 | 3.0 | 9.0 | 0.00 | 0.00 | 0.00 | 53 | 1013.9 |
| 20260830155203 | 94 | 299 | 4.0 | 9.0 | 0.00 | 0.00 | 0.00 | 53 | 1014.0 |
| 20260830155103 | 94 | 301 | 4.0 | 9.0 | 0.00 | 0.00 | 0.00 | 54 | 1014.0 |
| 20260830155003 | 94 | 300 | 4.0 | 9.0 | 0.00 | 0.00 | 0.00 | 53 | 1014.0 |
| 20260830154903 | 94 | 301 | 4.0 | 9.0 | 0.00 | 0.00 | 0.00 | 52 | 1013.9 |
| 20260830154803 | 94 | 301 | 4.0 | 9.0 | 0.00 | 0.00 | 0.00 | 52 | 1013.9 |
| 20260830154703 | 94 | 302 | 4.0 | 9.0 | 0.00 | 0.00 | 0.00 | 52 | 1014.0 |
| 20260830154603 | 94 | 301 | 4.0 | 9.0 | 0.00 | 0.00 | 0.00 | 52 | 1014.0 |
| 20260830154503 | 95 | 299 | 3.0 | 9.0 | 0.00 | 0.00 | 0.00 | 51 | 1014.1 |
| 20260830154403 | 95 | 301 | 3.0 | 9.0 | 0.00 | 0.00 | 0.00 | 51 | 1014.0 |
| 20260830154303 | 95 | 299 | 3.0 | 9.0 | 0.00 | 0.00 | 0.00 | 51 | 1013.9 |
| 20260830154203 | 95 | 300 | 3.0 | 9.0 | 0.00 | 0.00 | 0.00 | 50 | 1013.9 |
| 20260830154103 | 95 | 299 | 3.0 | 9.0 | 0.00 | 0.00 | 0.00 | 50 | 1014.0 |
| 20260830154003 | 95 | 299 | 3.0 | 9.0 | 0.00 | 0.00 | 0.00 | 49 | 1014.0 |
| 20260830153903 | 95 | 299 | 2.0 | 9.0 | 0.00 | 0.00 | 0.00 | 49 | 1014.0 |
| 20260830153803 | 95 | 300 | 2.0 | 9.0 | 0.00 | 0.00 | 0.00 | 49 | 1013.9 |
| 20260830153703 | 95 | 303 | 2.0 | 7.0 | 0.00 | 0.00 | 0.00 | 47 | 1013.9 |
| 20260830153603 | 95 | 305 | 2.0 | 7.0 | 0.00 | 0.00 | 0.00 | 47 | 1013.9 |
| 20260830153503 | 95 | 305 | 2.0 | 7.0 | 0.00 | 0.00 | 0.00 | 47 | 1013.9 |
| 20260830153403 | 95 | 306 | 2.0 | 7.0 | 0.00 | 0.00 | 0.00 | 47 | 1013.9 |
| 20260830153303 | 95 | 307 | 2.0 | 7.0 | 0.00 | 0.00 | 0.00 | 46 | 1013.9 |
| 20260830153203 | 95 | 308 | 2.0 | 7.0 | 0.00 | 0.00 | 0.00 | 45 | 1013.8 |
| 20260830153103 | 95 | 307 | 2.0 | 7.0 | 0.00 | 0.00 | 0.00 | 45 | 1013.8 |
| 20260830153003 | 96 | 306 | 3.0 | 7.0 | 0.00 | 0.00 | 0.00 | 44 | 1013.8 |
| 20260830152903 | 96 | 305 | 3.0 | 8.0 | 0.00 | 0.00 | 0.00 | 44 | 1013.8 |
| 20260830152803 | 96 | 304 | 4.0 | 8.0 | 0.00 | 0.00 | 0.00 | 44 | 1013.8 |
| 20260830152703 | 96 | 303 | 4.0 | 8.0 | 0.00 | 0.00 | 0.00 | 44 | 1013.8 |
| 20260830152603 | 96 | 302 | 3.0 | 8.0 | 0.00 | 0.00 | 0.00 | 44 | 1013.8 |
| 20260830152503 | 96 | 300 | 3.0 | 8.0 | 0.00 | 0.00 | 0.00 | 43 | 1013.9 |
| 20260830152403 | 96 | 300 | 3.0 | 8.0 | 0.00 | 0.00 | 0.00 | 43 | 1013.8 |
| 20260830152305 | 96 | 299 | 3.0 | 8.0 | 0.00 | 0.00 | 0.00 | 43 | 1013.9 |
| 20260830152203 | 96 | 299 | 3.0 | 8.0 | 0.00 | 0.00 | 0.00 | 43 | 1013.9 |
| 20260830152103 | 96 | 296 | 3.0 | 10.0 | 0.00 | 0.00 | 0.00 | 42 | 1013.9 |
| 20260830152003 | 96 | 298 | 4.0 | 10.0 | 0.00 | 0.00 | 0.00 | 42 | 1014.0 |
| 20260830151903 | 96 | 298 | 3.0 | 10.0 | 0.00 | 0.00 | 0.00 | 42 | 1013.9 |
| 20260830151803 | 96 | 298 | 3.0 | 10.0 | 0.00 | 0.00 | 0.00 | 41 | 1013.8 |
| 20260830151703 | 96 | 297 | 3.0 | 10.0 | 0.00 | 0.00 | 0.00 | 41 | 1013.7 |
| 20260830151603 | 96 | 296 | 3.0 | 10.0 | 0.00 | 0.00 | 0.00 | 41 | 1013.8 |
| 20260830151503 | 96 | 297 | 3.0 | 10.0 | 0.00 | 0.00 | 0.00 | 41 | 1013.7 |
| 20260830151403 | 96 | 298 | 4.0 | 10.0 | 0.00 | 0.00 | 0.00 | 41 | 1013.8 |
| 20260830151303 | 96 | 297 | 4.0 | 10.0 | 0.00 | 0.00 | 0.00 | 41 | 1013.8 |
| 20260830151203 | 96 | 297 | 4.0 | 10.0 | 0.00 | 0.00 | 0.00 | 41 | 1013.7 |
| 20260830151103 | 96 | 299 | 3.0 | 9.0 | 0.00 | 0.00 | 0.00 | 40 | 1013.7 |
| 20260830151003 | 97 | 298 | 3.0 | 9.0 | 0.00 | 0.00 | 0.00 | 40 | 1013.7 |
| 20260830150903 | 96 | 299 | 3.0 | 9.0 | 0.00 | 0.00 | 0.00 | 40 | 1013.8 |
| 20260830150803 | 97 | 299 | 3.0 | 9.0 | 0.00 | 0.00 | 0.00 | 39 | 1013.8 |
| 20260830150703 | 97 | 299 | 3.0 | 9.0 | 0.00 | 0.00 | 0.00 | 39 | 1013.8 |
| 20260830150603 | 97 | 301 | 2.0 | 9.0 | 0.00 | 0.00 | 0.00 | 39 | 1013.8 |
| 20260830150503 | 97 | 302 | 2.0 | 8.0 | 0.00 | 0.00 | 0.00 | 39 | 1013.8 |
| 20260830150403 | 97 | 302 | 2.0 | 7.0 | 0.00 | 0.00 | 0.00 | 39 | 1013.8 |
| 20260830150303 | 97 | 305 | 1.0 | 7.0 | 0.00 | 0.00 | 0.00 | 38 | 1013.8 |
| 20260830150203 | 97 | 306 | 1.0 | 7.0 | 0.00 | 0.00 | 0.00 | 38 | 1013.8 |
| 20260830150003 | 97 | 305 | 1.0 | 7.0 | 0.00 | 0.00 | 0.00 | 38 | 1013.9 |
| 20260830145903 | 97 | 303 | 1.0 | 7.0 | 0.00 | 0.00 | 0.00 | 38 | 1013.8 |
| 20260830145803 | 97 | 302 | 1.0 | 7.0 | 0.00 | 0.00 | 0.00 | 38 | 1013.8 |
| 20260830145703 | 97 | 305 | 1.0 | 6.0 | 0.00 | 0.00 | 0.00 | 38 | 1013.8 |
| 20260830145603 | 97 | 308 | 1.0 | 5.0 | 0.00 | 0.00 | 0.00 | 38 | 1013.8 |
| 20260830145503 | 96 | 317 | 1.0 | 5.0 | 0.00 | 0.00 | 0.00 | 38 | 1013.8 |
| 20260830145403 | 96 | 358 | 1.0 | 5.0 | 0.00 | 0.00 | 0.00 | 38 | 1013.8 |
| 20260830145306 | 96 | 64 | 1.0 | 5.0 | 0.00 | 0.00 | 0.00 | 38 | 1013.8 |
| 20260830145204 | 96 | 37 | 1.0 | 5.0 | 0.00 | 0.00 | 0.00 | 39 | 1013.8 |
| 20260830145104 | 96 | 43 | 1.0 | 5.0 | 0.00 | 0.00 | 0.00 | 39 | 1013.9 |
| 20260830145004 | 96 | 26 | 1.0 | 5.0 | 0.00 | 0.00 | 0.00 | 39 | 1013.9 |
| 20260830144904 | 96 | 64 | 1.0 | 5.0 | 0.00 | 0.00 | 0.00 | 39 | 1013.8 |
| 20260830144804 | 96 | 68 | 1.0 | 5.0 | 0.00 | 0.00 | 0.00 | 38 | 1013.9 |
| 20260830144704 | 96 | 83 | 1.0 | 5.0 | 0.00 | 0.00 | 0.00 | 38 | 1013.9 |
| 20260830144604 | 96 | 80 | 1.0 | 5.0 | 0.00 | 0.00 | 0.00 | 38 | 1013.9 |
| 20260830144504 | 96 | 101 | 1.0 | 5.0 | 0.00 | 0.00 | 0.00 | 39 | 1013.9 |
| 20260830144404 | 96 | 122 | 1.0 | 5.0 | 0.00 | 0.00 | 0.00 | 39 | 1014.0 |
| 20260830144304 | 96 | 115 | 1.0 | 5.0 | 0.00 | 0.00 | 0.00 | 39 | 1014.0 |
| 20260830144204 | 97 | 107 | 1.0 | 5.0 | 0.00 | 0.00 | 0.00 | 39 | 1014.0 |
| 20260830144104 | 96 | 113 | 1.0 | 5.0 | 0.00 | 0.00 | 0.00 | 38 | 1013.9 |
| 20260830144004 | 96 | 115 | 1.0 | 5.0 | 0.00 | 0.00 | 0.00 | 38 | 1013.8 |
| 20260830143904 | 97 | 107 | 1.0 | 5.0 | 0.00 | 0.00 | 0.00 | 39 | 1013.9 |
| 20260830143804 | 97 | 110 | 1.0 | 5.0 | 0.00 | 0.00 | 0.00 | 39 | 1013.9 |
| 20260830143704 | 97 | 102 | 1.0 | 5.0 | 0.00 | 0.00 | 0.00 | 39 | 1013.8 |
| 20260830143604 | 97 | 86 | 1.0 | 5.0 | 0.00 | 0.00 | 0.00 | 38 | 1013.9 |
| 20260830143504 | 97 | 79 | 1.0 | 5.0 | 0.00 | 0.00 | 0.00 | 38 | 1013.9 |
| 20260830143404 | 97 | 320 | 1.0 | 5.0 | 0.00 | 0.00 | 0.00 | 39 | 1013.9 |
| 20260830143304 | 97 | 307 | 2.0 | 7.0 | 0.00 | 0.00 | 0.00 | 38 | 1014.0 |
| 20260830143204 | 97 | 304 | 2.0 | 13.0 | 0.00 | 0.00 | 0.00 | 38 | 1014.0 |
| 20260830143104 | 97 | 301 | 2.0 | 13.0 | 0.00 | 0.00 | 0.00 | 38 | 1014.0 |
| 20260830143004 | 97 | 300 | 1.0 | 13.0 | 0.00 | 0.00 | 0.00 | 38 | 1014.1 |
| 20260830142904 | 97 | 301 | 1.0 | 13.0 | 0.00 | 0.00 | 0.00 | 38 | 1014.1 |
| 20260830142804 | 97 | 305 | 2.0 | 13.0 | 0.00 | 0.00 | 0.00 | 38 | 1013.8 |
| 20260830142704 | 97 | 301 | 1.0 | 13.0 | 0.00 | 0.00 | 0.00 | 37 | 1013.9 |
| 20260830142604 | 97 | 306 | 1.0 | 13.0 | 0.00 | 0.00 | 0.00 | 36 | 1013.9 |
| 20260830142504 | 97 | 351 | 1.0 | 13.0 | 0.00 | 0.00 | 0.00 | 36 | 1013.8 |
| 20260830142404 | 97 | 9 | 1.0 | 13.0 | 0.00 | 0.00 | 0.00 | 36 | 1013.8 |
| 20260830142305 | 97 | 105 | 1.0 | 13.0 | 0.00 | 0.00 | 0.00 | 37 | 1013.9 |
| 20260830142204 | 97 | 109 | 1.0 | 6.0 | 0.00 | 0.00 | 0.00 | 38 | 1014.0 |
| 20260830142104 | 97 | 102 | 0.0 | 6.0 | 0.00 | 0.00 | 0.00 | 38 | 1013.8 |
| 20260830142004 | 97 | 101 | 0.0 | 6.0 | 0.00 | 0.00 | 0.00 | 39 | 1014.0 |
| 20260830141904 | 97 | 101 | 0.0 | 3.0 | 0.00 | 0.00 | 0.00 | 39 | 1014.0 |
| 20260830141804 | 97 | 114 | 0.0 | 4.0 | 0.00 | 0.00 | 0.00 | 39 | 1013.9 |
| 20260830141704 | 97 | 113 | 1.0 | 4.0 | 0.00 | 0.00 | 0.00 | 39 | 1013.7 |
| 20260830141604 | 97 | 111 | 1.0 | 5.0 | 0.00 | 0.00 | 0.00 | 39 | 1013.8 |
| 20260830141504 | 97 | 111 | 1.0 | 5.0 | 0.00 | 0.00 | 0.00 | 39 | 1013.8 |
| 20260830141404 | 97 | 112 | 1.0 | 5.0 | 0.00 | 0.00 | 0.00 | 39 | 1013.8 |
| 20260830141304 | 97 | 112 | 1.0 | 5.0 | 0.00 | 0.00 | 0.00 | 39 | 1013.8 |
| 20260830141204 | 97 | 112 | 1.0 | 5.0 | 0.00 | 0.00 | 0.00 | 39 | 1013.7 |
| 20260830141103 | 97 | 112 | 1.0 | 5.0 | 0.00 | 0.00 | 0.00 | 39 | 1013.8 |
| 20260830141004 | 97 | 112 | 1.0 | 5.0 | 0.00 | 0.00 | 0.00 | 39 | 1013.7 |
| 20260830140904 | 97 | 112 | 1.0 | 5.0 | 0.00 | 0.00 | 0.00 | 38 | 1013.8 |
| 20260830140803 | 97 | 110 | 1.0 | 5.0 | 0.00 | 0.00 | 0.00 | 39 | 1013.8 |
| 20260830140703 | 97 | 103 | 0.0 | 6.0 | 0.00 | 0.00 | 0.00 | 39 | 1013.8 |
| 20260830140603 | 97 | 99 | 1.0 | 7.0 | 0.00 | 0.00 | 0.00 | 39 | 1013.8 |
| 20260830140503 | 97 | 97 | 1.0 | 7.0 | 0.00 | 0.00 | 0.00 | 40 | 1013.9 |
| 20260830140403 | 97 | 97 | 1.0 | 7.0 | 0.00 | 0.00 | 0.00 | 39 | 1013.9 |
| 20260830140303 | 97 | 97 | 1.0 | 7.0 | 0.00 | 0.00 | 0.00 | 40 | 1013.9 |
| 20260830140203 | 97 | 97 | 1.0 | 7.0 | 0.00 | 0.00 | 0.00 | 40 | 1013.9 |
| 20260830140004 | 97 | 97 | 1.0 | 7.0 | 0.00 | 0.00 | 0.00 | 40 | 1013.8 |
| 20260830135903 | 97 | 96 | 1.0 | 7.0 | 0.00 | 0.00 | 0.00 | 40 | 1013.8 |
| 20260830135803 | 97 | 97 | 1.0 | 7.0 | 0.00 | 0.00 | 0.00 | 39 | 1013.8 |
| 20260830135703 | 97 | 95 | 1.0 | 7.0 | 0.00 | 0.00 | 0.00 | 39 | 1013.8 |
| 20260830135603 | 98 | 96 | 1.0 | 6.0 | 0.00 | 0.00 | 0.00 | 39 | 1013.7 |
| 20260830135503 | 98 | 93 | 0.0 | 5.0 | 0.00 | 0.00 | 0.00 | 39 | 1013.7 |
| 20260830135403 | 98 | 95 | 1.0 | 5.0 | 0.00 | 0.00 | 0.00 | 38 | 1013.8 |
| 20260830135306 | 98 | 89 | 1.0 | 5.0 | 0.00 | 0.00 | 0.00 | 38 | 1013.8 |
| 20260830135203 | 98 | 94 | 1.0 | 5.0 | 0.00 | 0.00 | 0.00 | 38 | 1013.7 |
| 20260830135103 | 98 | 94 | 1.0 | 6.0 | 0.00 | 0.00 | 0.00 | 38 | 1013.7 |
| 20260830135003 | 98 | 96 | 1.0 | 6.0 | 0.00 | 0.00 | 0.00 | 38 | 1013.8 |
| 20260830134903 | 98 | 97 | 1.0 | 6.0 | 0.00 | 0.00 | 0.00 | 38 | 1013.7 |
| 20260830134803 | 98 | 96 | 1.0 | 6.0 | 0.00 | 0.00 | 0.00 | 38 | 1013.7 |
| 20260830134703 | 98 | 97 | 1.0 | 6.0 | 0.00 | 0.00 | 0.00 | 38 | 1013.7 |
| 20260830134603 | 98 | 97 | 1.0 | 6.0 | 0.00 | 0.00 | 0.00 | 38 | 1013.7 |
| 20260830134503 | 98 | 98 | 1.0 | 6.0 | 0.00 | 0.00 | 0.00 | 38 | 1013.7 |
| 20260830134403 | 98 | 98 | 1.0 | 6.0 | 0.00 | 0.00 | 0.00 | 37 | 1013.8 |
| 20260830134303 | 98 | 102 | 1.0 | 6.0 | 0.00 | 0.00 | 0.00 | 37 | 1013.8 |
| 20260830134203 | 98 | 102 | 1.0 | 6.0 | 0.00 | 0.00 | 0.00 | 37 | 1013.8 |
| 20260830134103 | 98 | 103 | 1.0 | 4.0 | 0.00 | 0.00 | 0.00 | 37 | 1013.8 |
| 20260830134003 | 98 | 104 | 1.0 | 4.0 | 0.00 | 0.00 | 0.00 | 37 | 1013.9 |
| 20260830133903 | 98 | 106 | 1.0 | 4.0 | 0.00 | 0.00 | 0.00 | 37 | 1013.9 |
| 20260830133803 | 98 | 108 | 0.0 | 4.0 | 0.00 | 0.00 | 0.00 | 36 | 1013.8 |
| 20260830133703 | 98 | 109 | 0.0 | 4.0 | 0.00 | 0.00 | 0.00 | 36 | 1013.7 |
| 20260830133603 | 99 | 109 | 0.0 | 4.0 | 0.00 | 0.00 | 0.00 | 36 | 1013.7 |
| 20260830133503 | 99 | 109 | 0.0 | 4.0 | 0.00 | 0.00 | 0.00 | 36 | 1013.7 |
| 20260830133403 | 99 | 109 | 0.0 | 4.0 | 0.00 | 0.00 | 0.00 | 36 | 1013.8 |
| 20260830133303 | 99 | 112 | 0.0 | 3.0 | 0.00 | 0.00 | 0.00 | 36 | 1013.7 |
| 20260830133203 | 99 | 112 | 0.0 | 2.0 | 0.00 | 0.00 | 0.00 | 36 | 1013.7 |
| 20260830133103 | 99 | 112 | 0.0 | 2.0 | 0.00 | 0.00 | 0.00 | 36 | 1013.6 |
| 20260830133003 | 99 | 112 | 0.0 | 2.0 | 0.00 | 0.00 | 0.00 | 37 | 1013.7 |
| 20260830132903 | 99 | 135 | 0.0 | 1.0 | 0.00 | 0.00 | 0.00 | 37 | 1013.6 |
| 20260830132803 | 99 | 135 | 0.0 | 1.0 | 0.00 | 0.00 | 0.00 | 37 | 1013.6 |
| 20260830132703 | 99 | 135 | 0.0 | 1.0 | 0.00 | 0.00 | 0.00 | 36 | 1013.6 |
| 20260830132603 | 99 | 117 | 0.0 | 1.0 | 0.00 | 0.00 | 0.00 | 36 | 1013.7 |
| 20260830132503 | 99 | 117 | 0.0 | 1.0 | 0.00 | 0.00 | 0.00 | 36 | 1013.8 |
| 20260830132403 | 99 | 105 | 0.0 | 1.0 | 0.00 | 0.00 | 0.00 | 36 | 1013.8 |
| 20260830132305 | 99 | 105 | 0.0 | 1.0 | 0.00 | 0.00 | 0.00 | 36 | 1013.8 |
| 20260830132203 | 100 | 105 | 0.0 | 1.0 | 0.00 | 0.00 | 0.00 | 36 | 1013.9 |
| 20260830132103 | 100 | 107 | 0.0 | 2.0 | 0.00 | 0.00 | 0.00 | 36 | 1013.8 |
| 20260830132003 | 100 | 98 | 0.0 | 4.0 | 0.00 | 0.00 | 0.00 | 36 | 1013.9 |
| 20260830131903 | 100 | 88 | 0.0 | 4.0 | 0.00 | 0.00 | 0.00 | 36 | 1013.9 |
| 20260830131803 | 100 | 96 | 0.0 | 5.0 | 0.00 | 0.00 | 0.00 | 36 | 1013.8 |
| 20260830131703 | 100 | 93 | 0.0 | 5.0 | 0.00 | 0.00 | 0.00 | 35 | 1013.9 |
| 20260830131603 | 100 | 94 | 0.0 | 5.0 | 0.00 | 0.00 | 0.00 | 35 | 1013.8 |
| 20260830131503 | 100 | 94 | 1.0 | 5.0 | 0.00 | 0.00 | 0.00 | 35 | 1013.7 |
| 20260830131403 | 100 | 96 | 1.0 | 5.0 | 0.00 | 0.00 | 0.00 | 33 | 1013.7 |
| 20260830131303 | 100 | 101 | 1.0 | 5.0 | 0.00 | 0.00 | 0.00 | 33 | 1013.8 |
| 20260830131203 | 100 | 101 | 1.0 | 5.0 | 0.00 | 0.00 | 0.00 | 33 | 1013.8 |
| 20260830131103 | 100 | 101 | 1.0 | 5.0 | 0.00 | 0.00 | 0.00 | 32 | 1013.8 |
| 20260830131003 | 100 | 102 | 1.0 | 5.0 | 0.00 | 0.00 | 0.00 | 31 | 1013.8 |
| 20260830130903 | 100 | 103 | 1.0 | 5.0 | 0.00 | 0.00 | 0.00 | 30 | 1013.8 |
| 20260830130803 | 100 | 103 | 1.0 | 4.0 | 0.00 | 0.00 | 0.00 | 30 | 1013.8 |
| 20260830130703 | 100 | 105 | 1.0 | 4.0 | 0.00 | 0.00 | 0.00 | 30 | 1013.8 |
| 20260830130603 | 100 | 106 | 1.0 | 4.0 | 0.00 | 0.00 | 0.00 | 30 | 1013.7 |
| 20260830130503 | 100 | 107 | 1.0 | 4.0 | 0.00 | 0.00 | 0.00 | 30 | 1013.8 |
| 20260830130403 | 100 | 108 | 1.0 | 4.0 | 0.00 | 0.00 | 0.00 | 30 | 1013.8 |
| 20260830130303 | 100 | 106 | 1.0 | 4.0 | 0.00 | 0.00 | 0.00 | 30 | 1013.8 |
| 20260830130203 | 100 | 107 | 1.0 | 4.0 | 0.00 | 0.00 | 0.00 | 30 | 1013.8 |
| 20260830130003 | 99 | 108 | 1.0 | 4.0 | 0.00 | 0.00 | 0.00 | 31 | 1013.8 |
| 20260830125903 | 99 | 108 | 1.0 | 4.0 | 0.00 | 0.00 | 0.00 | 31 | 1013.8 |
| 20260830125803 | 99 | 107 | 1.0 | 4.0 | 0.00 | 0.00 | 0.00 | 31 | 1013.8 |
| 20260830125703 | 99 | 107 | 1.0 | 4.0 | 0.00 | 0.00 | 0.00 | 32 | 1013.8 |
| 20260830125603 | 99 | 107 | 1.0 | 4.0 | 0.00 | 0.00 | 0.00 | 32 | 1013.8 |
| 20260830125503 | 99 | 107 | 1.0 | 4.0 | 0.00 | 0.00 | 0.00 | 32 | 1013.8 |
| 20260830125403 | 99 | 106 | 1.0 | 4.0 | 0.00 | 0.00 | 0.00 | 33 | 1013.8 |
| 20260830125306 | 99 | 107 | 1.0 | 4.0 | 0.00 | 0.00 | 0.00 | 33 | 1013.8 |
| 20260830125203 | 99 | 108 | 1.0 | 5.0 | 0.00 | 0.00 | 0.00 | 33 | 1013.9 |
| 20260830125103 | 99 | 109 | 1.0 | 6.0 | 0.00 | 0.00 | 0.00 | 33 | 1013.9 |
| 20260830125003 | 99 | 109 | 1.0 | 6.0 | 0.00 | 0.00 | 0.00 | 33 | 1013.8 |
| 20260830124903 | 99 | 108 | 1.0 | 6.0 | 0.00 | 0.00 | 0.00 | 33 | 1013.9 |
| 20260830124803 | 99 | 110 | 1.0 | 6.0 | 0.00 | 0.00 | 0.00 | 33 | 1014.0 |
| 20260830124703 | 99 | 110 | 1.0 | 6.0 | 0.00 | 0.00 | 0.00 | 33 | 1013.9 |
| 20260830124603 | 99 | 110 | 1.0 | 6.0 | 0.00 | 0.00 | 0.00 | 33 | 1014.1 |
| 20260830124503 | 99 | 109 | 1.0 | 6.0 | 0.00 | 0.00 | 0.00 | 33 | 1014.0 |
| 20260830124403 | 99 | 110 | 1.0 | 6.0 | 0.00 | 0.00 | 0.00 | 33 | 1014.0 |
| 20260830124303 | 99 | 109 | 1.0 | 6.0 | 0.00 | 0.00 | 0.00 | 33 | 1014.0 |
| 20260830124203 | 99 | 109 | 1.0 | 6.0 | 0.00 | 0.00 | 0.00 | 33 | 1014.0 |
| 20260830124103 | 99 | 108 | 1.0 | 6.0 | 0.00 | 0.00 | 0.00 | 32 | 1014.0 |
| 20260830124003 | 99 | 108 | 1.0 | 6.0 | 0.00 | 0.00 | 0.00 | 32 | 1014.0 |
| 20260830123903 | 99 | 109 | 1.0 | 6.0 | 0.00 | 0.00 | 0.00 | 32 | 1014.1 |
| 20260830123803 | 99 | 109 | 1.0 | 6.0 | 0.00 | 0.00 | 0.00 | 32 | 1014.1 |
| 20260830123703 | 99 | 109 | 1.0 | 6.0 | 0.00 | 0.00 | 0.00 | 32 | 1014.2 |
| 20260830123603 | 99 | 109 | 1.0 | 6.0 | 0.00 | 0.00 | 0.00 | 32 | 1014.1 |
| 20260830123503 | 99 | 109 | 2.0 | 6.0 | 0.00 | 0.00 | 0.00 | 32 | 1014.2 |
| 20260830123403 | 99 | 108 | 2.0 | 6.0 | 0.00 | 0.00 | 0.00 | 32 | 1014.1 |
| 20260830123303 | 99 | 107 | 2.0 | 6.0 | 0.00 | 0.00 | 0.00 | 32 | 1014.1 |
| 20260830123203 | 99 | 106 | 1.0 | 4.0 | 0.00 | 0.00 | 0.00 | 32 | 1014.1 |
| 20260830123103 | 99 | 106 | 1.0 | 4.0 | 0.00 | 0.00 | 0.00 | 32 | 1014.1 |
| 20260830123003 | 99 | 106 | 1.0 | 5.0 | 0.00 | 0.00 | 0.00 | 32 | 1014.1 |
| 20260830122904 | 99 | 105 | 1.0 | 5.0 | 0.00 | 0.00 | 0.00 | 32 | 1014.2 |
| 20260830122804 | 99 | 105 | 1.0 | 5.0 | 0.00 | 0.00 | 0.00 | 32 | 1014.1 |
| 20260830122704 | 99 | 105 | 2.0 | 5.0 | 0.00 | 0.00 | 0.00 | 32 | 1014.2 |
| 20260830122604 | 99 | 104 | 1.0 | 5.0 | 0.00 | 0.00 | 0.00 | 32 | 1014.1 |
| 20260830122504 | 99 | 103 | 1.0 | 5.0 | 0.00 | 0.00 | 0.00 | 32 | 1014.1 |
| 20260830122404 | 99 | 103 | 1.0 | 5.0 | 0.00 | 0.00 | 0.00 | 32 | 1014.1 |
| 20260830122306 | 99 | 107 | 1.0 | 5.0 | 0.00 | 0.00 | 0.00 | 32 | 1014.1 |
| 20260830122204 | 99 | 106 | 1.0 | 5.0 | 0.00 | 0.00 | 0.00 | 32 | 1014.1 |
| 20260830122104 | 99 | 104 | 1.0 | 5.0 | 0.00 | 0.00 | 0.00 | 32 | 1014.1 |
| 20260830122004 | 99 | 104 | 1.0 | 5.0 | 0.00 | 0.00 | 0.00 | 32 | 1014.1 |
| 20260830121904 | 99 | 106 | 2.0 | 5.0 | 0.00 | 0.00 | 0.00 | 33 | 1014.2 |
| 20260830121804 | 99 | 106 | 2.0 | 5.0 | 0.00 | 0.00 | 0.00 | 33 | 1014.3 |
| 20260830121704 | 99 | 107 | 1.0 | 5.0 | 0.00 | 0.00 | 0.00 | 33 | 1014.3 |
| 20260830121604 | 99 | 107 | 2.0 | 5.0 | 0.00 | 0.00 | 0.00 | 33 | 1014.4 |
| 20260830121504 | 99 | 108 | 2.0 | 5.0 | 0.00 | 0.00 | 0.00 | 33 | 1014.3 |
| 20260830121404 | 99 | 109 | 2.0 | 5.0 | 0.00 | 0.00 | 0.00 | 33 | 1014.3 |
| 20260830121304 | 99 | 108 | 1.0 | 5.0 | 0.00 | 0.00 | 0.00 | 33 | 1014.4 |
| 20260830121204 | 99 | 109 | 1.0 | 5.0 | 0.00 | 0.00 | 0.00 | 33 | 1014.4 |
| 20260830121104 | 99 | 110 | 1.0 | 5.0 | 0.00 | 0.00 | 0.00 | 33 | 1014.3 |
| 20260830121004 | 99 | 109 | 1.0 | 5.0 | 0.00 | 0.00 | 0.00 | 32 | 1014.3 |
| 20260830120904 | 99 | 109 | 1.0 | 6.0 | 0.00 | 0.00 | 0.00 | 32 | 1014.4 |
| 20260830120804 | 99 | 108 | 1.0 | 6.0 | 0.00 | 0.00 | 0.00 | 32 | 1014.4 |
| 20260830120704 | 99 | 107 | 1.0 | 6.0 | 0.00 | 0.00 | 0.00 | 32 | 1014.4 |
| 20260830120604 | 99 | 108 | 1.0 | 6.0 | 0.00 | 0.00 | 0.00 | 33 | 1014.5 |
| 20260830120504 | 99 | 107 | 1.0 | 6.0 | 0.00 | 0.00 | 0.00 | 32 | 1014.4 |
| 20260830120404 | 99 | 105 | 1.0 | 7.0 | 0.00 | 0.00 | 0.00 | 32 | 1014.5 |
| 20260830120304 | 99 | 103 | 1.0 | 9.0 | 0.00 | 0.00 | 0.00 | 32 | 1014.5 |
| 20260830120204 | 99 | 103 | 1.0 | 9.0 | 0.00 | 0.00 | 0.00 | 32 | 1014.6 |
| 20260830120104 | 99 | 103 | 1.0 | 9.0 | 0.00 | 0.00 | 0.00 | 32 | 1014.5 |
| 20260830120004 | 99 | 104 | 1.0 | 9.0 | 0.00 | 0.00 | 0.00 | 32 | 1014.5 |
| 20260830115904 | 99 | 104 | 1.0 | 9.0 | 0.00 | 0.00 | 0.00 | 32 | 1014.6 |
| 20260830115804 | 99 | 104 | 1.0 | 9.0 | 0.00 | 0.00 | 0.00 | 31 | 1014.5 |
| 20260830115704 | 99 | 103 | 1.0 | 9.0 | 0.00 | 0.00 | 0.00 | 31 | 1014.5 |
| 20260830115604 | 99 | 102 | 1.0 | 9.0 | 0.00 | 0.00 | 0.00 | 30 | 1014.6 |
| 20260830115504 | 99 | 102 | 1.0 | 9.0 | 0.00 | 0.00 | 0.00 | 30 | 1014.5 |
| 20260830115404 | 99 | 103 | 1.0 | 9.0 | 0.00 | 0.00 | 0.00 | 30 | 1014.5 |
| 20260830115306 | 99 | 104 | 1.0 | 4.0 | 0.00 | 0.00 | 0.00 | 30 | 1014.5 |
| 20260830115204 | 99 | 104 | 1.0 | 4.0 | 0.00 | 0.00 | 0.00 | 30 | 1014.5 |
| 20260830115104 | 99 | 103 | 1.0 | 3.0 | 0.00 | 0.00 | 0.00 | 30 | 1014.6 |
| 20260830115004 | 99 | 104 | 1.0 | 5.0 | 0.00 | 0.00 | 0.00 | 30 | 1014.6 |
| 20260830114904 | 99 | 102 | 1.0 | 5.0 | 0.00 | 0.00 | 0.00 | 30 | 1014.5 |
| 20260830114804 | 99 | 101 | 1.0 | 5.0 | 0.00 | 0.00 | 0.00 | 30 | 1014.6 |
| 20260830114703 | 99 | 102 | 1.0 | 5.0 | 0.00 | 0.00 | 0.00 | 30 | 1014.5 |
| 20260830114604 | 99 | 103 | 1.0 | 5.0 | 0.00 | 0.00 | 0.00 | 30 | 1014.5 |
| 20260830114504 | 99 | 106 | 1.0 | 5.0 | 0.00 | 0.00 | 0.00 | 30 | 1014.6 |
| 20260830114404 | 99 | 106 | 1.0 | 5.0 | 0.00 | 0.00 | 0.00 | 30 | 1014.7 |
| 20260830114304 | 99 | 107 | 2.0 | 5.0 | 0.00 | 0.00 | 0.00 | 30 | 1014.7 |
| 20260830114203 | 99 | 106 | 2.0 | 5.0 | 0.00 | 0.00 | 0.00 | 30 | 1014.7 |
| 20260830114104 | 99 | 106 | 2.0 | 5.0 | 0.00 | 0.00 | 0.00 | 30 | 1014.7 |
| 20260830114004 | 99 | 106 | 2.0 | 5.0 | 0.00 | 0.00 | 0.00 | 30 | 1014.6 |
| 20260830113904 | 99 | 107 | 2.0 | 5.0 | 0.00 | 0.00 | 0.00 | 30 | 1014.7 |
| 20260830113804 | 99 | 108 | 2.0 | 5.0 | 0.00 | 0.00 | 0.00 | 30 | 1014.7 |
| 20260830113703 | 99 | 108 | 2.0 | 5.0 | 0.00 | 0.00 | 0.00 | 30 | 1014.7 |
| 20260830113604 | 99 | 108 | 2.0 | 5.0 | 0.00 | 0.00 | 0.00 | 30 | 1014.7 |
| 20260830113504 | 99 | 107 | 2.0 | 5.0 | 0.00 | 0.00 | 0.00 | 30 | 1014.7 |
| 20260830113403 | 99 | 106 | 2.0 | 4.0 | 0.00 | 0.00 | 0.00 | 30 | 1014.8 |
| 20260830113304 | 99 | 106 | 2.0 | 4.0 | 0.00 | 0.00 | 0.00 | 30 | 1014.8 |
| 20260830113203 | 99 | 107 | 1.0 | 4.0 | 0.00 | 0.00 | 0.00 | 30 | 1014.8 |
| 20260830113104 | 99 | 107 | 1.0 | 4.0 | 0.00 | 0.00 | 0.00 | 30 | 1014.8 |
| 20260830113004 | 98 | 107 | 1.0 | 4.0 | 0.00 | 0.00 | 0.00 | 30 | 1014.8 |
| 20260830112903 | 98 | 107 | 1.0 | 4.0 | 0.00 | 0.00 | 0.00 | 30 | 1014.7 |
| 20260830112804 | 99 | 104 | 1.0 | 4.0 | 0.00 | 0.00 | 0.00 | 30 | 1014.7 |
| 20260830112704 | 98 | 104 | 1.0 | 4.0 | 0.00 | 0.00 | 0.00 | 30 | 1014.8 |
| 20260830112604 | 98 | 102 | 1.0 | 4.0 | 0.00 | 0.00 | 0.00 | 30 | 1014.7 |
| 20260830112503 | 98 | 103 | 1.0 | 4.0 | 0.00 | 0.00 | 0.00 | 30 | 1014.8 |
| 20260830112403 | 98 | 104 | 2.0 | 4.0 | 0.00 | 0.00 | 0.00 | 30 | 1014.8 |
| 20260830112306 | 98 | 103 | 1.0 | 4.0 | 0.00 | 0.00 | 0.00 | 30 | 1014.7 |
| 20260830112203 | 98 | 102 | 1.0 | 4.0 | 0.00 | 0.00 | 0.00 | 30 | 1014.8 |
| 20260830112103 | 98 | 103 | 1.0 | 5.0 | 0.00 | 0.00 | 0.00 | 30 | 1014.7 |
| 20260830112003 | 98 | 104 | 1.0 | 5.0 | 0.00 | 0.00 | 0.00 | 30 | 1014.6 |
| 20260830111903 | 98 | 104 | 1.0 | 5.0 | 0.00 | 0.00 | 0.00 | 30 | 1014.8 |
| 20260830111803 | 98 | 107 | 1.0 | 6.0 | 0.00 | 0.00 | 0.00 | 30 | 1014.9 |
| 20260830111703 | 98 | 108 | 1.0 | 6.0 | 0.00 | 0.00 | 0.00 | 30 | 1014.8 |
| 20260830111603 | 98 | 106 | 2.0 | 6.0 | 0.00 | 0.00 | 0.00 | 30 | 1014.8 |
| 20260830111503 | 98 | 106 | 2.0 | 6.0 | 0.00 | 0.00 | 0.00 | 30 | 1014.8 |
| 20260830111403 | 98 | 106 | 1.0 | 6.0 | 0.00 | 0.00 | 0.00 | 31 | 1014.8 |
| 20260830111303 | 98 | 105 | 2.0 | 6.0 | 0.00 | 0.00 | 0.00 | 31 | 1014.8 |
| 20260830111203 | 98 | 105 | 2.0 | 6.0 | 0.00 | 0.00 | 0.00 | 31 | 1014.7 |
| 20260830111103 | 98 | 105 | 1.0 | 6.0 | 0.00 | 0.00 | 0.00 | 30 | 1014.7 |
| 20260830111003 | 98 | 104 | 1.0 | 6.0 | 0.00 | 0.00 | 0.00 | 31 | 1014.7 |
| 20260830110903 | 98 | 104 | 1.0 | 6.0 | 0.00 | 0.00 | 0.00 | 31 | 1014.7 |
| 20260830110803 | 98 | 103 | 1.0 | 4.0 | 0.00 | 0.00 | 0.00 | 31 | 1014.8 |
| 20260830110703 | 97 | 103 | 1.0 | 4.0 | 0.00 | 0.00 | 0.00 | 31 | 1014.8 |
| 20260830110603 | 97 | 107 | 1.0 | 4.0 | 0.00 | 0.00 | 0.00 | 31 | 1014.9 |
| 20260830110503 | 97 | 106 | 1.0 | 4.0 | 0.00 | 0.00 | 0.00 | 32 | 1014.9 |
| 20260830110403 | 97 | 105 | 1.0 | 4.0 | 0.00 | 0.00 | 0.00 | 32 | 1014.9 |
| 20260830110303 | 97 | 108 | 1.0 | 4.0 | 0.00 | 0.00 | 0.00 | 32 | 1014.8 |
| 20260830110203 | 97 | 109 | 1.0 | 4.0 | 0.00 | 0.00 | 0.00 | 31 | 1014.8 |
| 20260830110103 | 97 | 109 | 1.0 | 4.0 | 0.00 | 0.00 | 0.00 | 31 | 1014.9 |
| 20260830110004 | 97 | 110 | 1.0 | 4.0 | 0.00 | 0.00 | 0.00 | 32 | 1014.9 |
| 20260830105903 | 97 | 109 | 1.0 | 4.0 | 0.00 | 0.00 | 0.00 | 31 | 1015.0 |
| 20260830105803 | 97 | 108 | 1.0 | 4.0 | 0.00 | 0.00 | 0.00 | 32 | 1015.0 |
| 20260830105703 | 97 | 109 | 1.0 | 4.0 | 0.00 | 0.00 | 0.00 | 32 | 1015.0 |
| 20260830105603 | 97 | 108 | 1.0 | 4.0 | 0.00 | 0.00 | 0.00 | 32 | 1015.0 |
| 20260830105503 | 97 | 110 | 1.0 | 6.0 | 0.00 | 0.00 | 0.00 | 32 | 1015.0 |
| 20260830105403 | 97 | 111 | 1.0 | 6.0 | 0.00 | 0.00 | 0.00 | 32 | 1014.9 |
| 20260830105305 | 97 | 110 | 1.0 | 6.0 | 0.00 | 0.00 | 0.00 | 32 | 1015.0 |
| 20260830105203 | 97 | 110 | 1.0 | 6.0 | 0.00 | 0.00 | 0.00 | 33 | 1014.9 |
| 20260830105103 | 97 | 111 | 1.0 | 6.0 | 0.00 | 0.00 | 0.00 | 33 | 1014.8 |
| 20260830105003 | 97 | 111 | 1.0 | 6.0 | 0.00 | 0.00 | 0.00 | 33 | 1014.9 |
| 20260830104903 | 97 | 112 | 1.0 | 6.0 | 0.00 | 0.00 | 0.00 | 33 | 1015.0 |
| 20260830104803 | 97 | 110 | 1.0 | 6.0 | 0.00 | 0.00 | 0.00 | 33 | 1015.1 |
| 20260830104703 | 97 | 104 | 1.0 | 6.0 | 0.00 | 0.00 | 0.00 | 33 | 1014.9 |
| 20260830104603 | 97 | 103 | 1.0 | 6.0 | 0.00 | 0.00 | 0.00 | 33 | 1014.8 |
| 20260830104503 | 96 | 98 | 1.0 | 6.0 | 0.00 | 0.00 | 0.00 | 34 | 1014.8 |
| 20260830104403 | 96 | 100 | 1.0 | 8.0 | 0.00 | 0.00 | 0.00 | 34 | 1014.8 |
| 20260830104303 | 96 | 98 | 1.0 | 8.0 | 0.00 | 0.00 | 0.00 | 34 | 1014.8 |
| 20260830104203 | 96 | 98 | 1.0 | 8.0 | 0.00 | 0.00 | 0.00 | 34 | 1014.8 |
| 20260830104103 | 96 | 97 | 1.0 | 8.0 | 0.00 | 0.00 | 0.00 | 36 | 1014.8 |
| 20260830104003 | 96 | 97 | 1.0 | 8.0 | 0.00 | 0.00 | 0.00 | 36 | 1014.8 |
| 20260830103903 | 96 | 96 | 1.0 | 8.0 | 0.00 | 0.00 | 0.00 | 35 | 1014.8 |
| 20260830103803 | 96 | 95 | 1.0 | 8.0 | 0.00 | 0.00 | 0.00 | 36 | 1014.9 |
| 20260830103703 | 96 | 99 | 1.0 | 8.0 | 0.00 | 0.00 | 0.00 | 37 | 1014.8 |
| 20260830103603 | 96 | 102 | 1.0 | 8.0 | 0.00 | 0.00 | 0.00 | 35 | 1014.9 |
| 20260830103503 | 96 | 100 | 1.0 | 8.0 | 0.00 | 0.00 | 0.00 | 37 | 1015.0 |
| 20260830103403 | 96 | 95 | 1.0 | 5.0 | 0.00 | 0.00 | 0.00 | 38 | 1015.0 |
| 20260830103303 | 95 | 98 | 0.0 | 5.0 | 0.00 | 0.00 | 0.00 | 38 | 1015.0 |
| 20260830103203 | 95 | 100 | 0.0 | 4.0 | 0.00 | 0.00 | 0.00 | 39 | 1015.1 |
| 20260830103103 | 95 | 101 | 0.0 | 4.0 | 0.00 | 0.00 | 0.00 | 39 | 1015.1 |
| 20260830103003 | 95 | 103 | 1.0 | 7.0 | 0.00 | 0.00 | 0.00 | 40 | 1015.1 |
| 20260830102903 | 95 | 104 | 1.0 | 7.0 | 0.00 | 0.00 | 0.00 | 40 | 1015.1 |